[[{"header":{"parameterUnit":"m.s-1","parameterCategory":1,"la1":30.6,"la2":28.766,"lo1":-90.7593,"lo2":-88.6598,"dy":0.0162,"dx":0.0183,"nx":116,"ny":114,"refTime":"2023-06-22T06:00:00:Z","depth":0,"parameterNumber":2,"parameterNumberName":"U-component_of_WINDS"},"data":[0.0,0.0,0.0,0.0,0.0,0.0,0.0,0.0,0.0,0.0,0.0,0.0,0.0,0.0,0.0,0.0,0.0,0.0,0.0,0.0,0.0,0.0,0.0,0.0,0.0,0.0,0.0,0.0,0.0,0.0,0.0,0.0,0.0,0.0,0.0,0.0,0.0,0.0,0.0,0.0,0.0,0.0,0.0,0.0,0.0,0.0,0.0,0.0,0.0,0.0,0.0,0.0,0.0,0.0,0.0,0.0,0.0,0.0,0.0,0.0,0.0,0.0,0.0,0.0,0.0,0.0,0.0,0.0,0.0,0.0,0.0,0.0,0.0,0.0,0.0,0.0,0.0,0.0,0.0,0.0,0.0,0.0,0.0,0.0,0.0,0.0,0.0,0.0,0.0,0.0,0.0,0.0,0.0,0.0,0.0,0.0,0.0,0.0,0.0,0.0,0.0,0.0,0.0,0.0,0.0,0.0,0.0,0.0,0.0,0.0,0.0,0.0,0.0,0.0,0.0,0.0,0.0,0.0,0.0,0.0,0.0,0.0,0.0,0.0,0.0,0.0,0.0,0.0,0.0,0.0,0.0,0.0,0.0,0.0,0.0,0.0,0.0,0.0,0.0,0.0,0.0,0.0,0.0,0.0,0.0,0.0,0.0,0.0,0.0,0.0,0.0,0.0,0.0,0.0,0.0,0.0,0.0,0.0,0.0,0.0,0.0,0.0,0.0,0.0,0.0,0.0,0.0,0.0,0.0,0.0,0.0,0.0,0.0,0.0,0.0,0.0,0.0,0.0,0.0,0.0,0.0,0.0,0.0,0.0,0.0,0.0,0.0,0.0,0.0,0.0,0.0,0.0,0.0,0.0,0.0,0.0,0.0,0.0,0.0,0.0,0.0,0.0,0.0,0.0,0.0,0.0,0.0,0.0,0.0,0.0,0.0,0.0,0.0,0.0,0.0,0.0,0.0,0.0,0.0,0.0,0.0,0.0,0.0,0.0,0.0,0.0,0.0,0.0,0.0,0.0,0.0,0.0,0.0,0.0,0.0,0.0,0.0,0.0,0.0,0.0,0.0,0.0,0.0,0.0,0.0,0.0,0.0,0.0,0.0,0.0,0.0,0.0,0.0,0.0,0.0,0.0,0.0,0.0,0.0,0.0,0.0,0.0,0.0,0.0,0.0,0.0,0.0,0.0,0.0,0.0,0.0,0.0,0.0,0.0,0.0,0.0,0.0,0.0,0.0,0.0,0.0,0.0,0.0,0.0,0.0,0.0,0.0,0.0,0.0,0.0,0.0,0.0,0.0,0.0,0.0,0.0,0.0,0.0,0.0,0.0,0.0,0.0,0.0,0.0,0.0,0.0,0.0,0.0,0.0,0.0,0.0,0.0,0.0,0.0,0.0,0.0,0.0,0.0,0.0,0.0,0.0,0.0,0.0,0.0,0.0,0.0,0.0,0.0,0.0,0.0,0.0,0.0,0.0,0.0,0.0,0.0,0.0,0.0,0.0,0.0,0.0,0.0,0.0,0.0,0.0,0.0,0.0,0.0,0.0,0.0,0.0,0.0,0.0,0.0,0.0,0.0,0.0,0.0,0.0,0.0,0.0,0.0,0.0,0.0,0.0,0.0,0.0,0.0,0.0,0.0,0.0,0.0,0.0,0.0,0.0,0.0,0.0,0.0,0.0,0.0,0.0,0.0,0.0,0.0,0.0,0.0,0.0,0.0,0.0,0.0,0.0,0.0,0.0,0.0,0.0,0.0,0.0,0.0,0.0,0.0,0.0,0.0,0.0,0.0,0.0,0.0,0.0,0.0,0.0,0.0,0.0,0.0,0.0,0.0,0.0,0.0,0.0,0.0,0.0,0.0,0.0,0.0,0.0,0.0,0.0,0.0,0.0,0.0,0.0,0.0,0.0,0.0,0.0,0.0,0.0,0.0,0.0,0.0,0.0,0.0,0.0,0.0,0.0,0.0,0.0,0.0,0.0,0.0,0.0,0.0,0.0,0.0,0.0,0.0,0.0,0.0,0.0,0.0,0.0,0.0,0.0,0.0,0.0,0.0,0.0,0.0,0.0,0.0,0.0,0.0,0.0,0.0,0.0,0.0,0.0,0.0,0.0,0.0,0.0,0.0,0.0,0.0,0.0,0.0,0.0,0.0,0.0,0.0,0.0,0.0,0.0,0.0,0.0,0.0,0.0,0.0,0.0,0.0,0.0,0.0,0.0,0.0,0.0,0.0,0.0,0.0,0.0,0.0,0.0,0.0,0.0,0.0,0.0,0.0,0.0,0.0,0.0,0.0,0.0,0.0,0.0,0.0,0.0,0.0,0.0,0.0,0.0,0.0,0.0,0.0,0.0,0.0,0.0,0.0,0.0,0.0,0.0,0.0,0.0,0.0,0.0,0.0,0.0,0.0,0.0,0.0,0.0,0.0,0.0,0.0,0.0,0.0,0.0,0.0,0.0,0.0,0.0,0.0,0.0,0.0,0.0,0.0,0.0,0.0,0.0,0.0,0.0,0.0,0.0,0.0,0.0,0.0,0.0,0.0,0.0,0.0,0.0,0.0,0.0,0.0,0.0,0.0,0.0,0.0,0.0,0.0,0.0,0.0,0.0,0.0,0.0,0.0,0.0,0.0,0.0,0.0,0.0,0.0,0.0,0.0,0.0,0.0,0.0,0.0,0.0,0.0,0.0,0.0,0.0,0.0,0.0,0.0,0.0,0.0,0.0,0.0,0.0,0.0,0.0,0.0,0.0,0.0,0.0,0.0,0.0,0.0,0.0,0.0,0.0,0.0,0.0,0.0,0.0,0.0,0.0,0.0,0.0,0.0,0.0,0.0,0.0,0.0,0.0,0.0,0.0,0.0,0.0,0.0,0.0,0.0,0.0,0.0,0.0,0.0,0.0,0.0,0.0,0.0,0.0,0.0,0.0,0.0,0.0,0.0,0.0,0.0,0.0,0.0,0.0,0.0,0.0,0.0,0.0,0.0,0.0,0.0,0.0,0.0,0.0,0.0,0.0,0.0,0.0,0.0,0.0,0.0,0.0,0.0,0.0,0.0,0.0,0.0,0.0,0.0,0.0,0.0,0.0,0.0,0.0,0.0,0.0,0.0,0.0,0.0,0.0,0.0,0.0,0.0,0.0,0.0,0.0,0.0,0.0,0.0,0.0,0.0,0.0,0.0,0.0,0.0,0.0,0.0,0.0,0.0,0.0,0.0,0.0,0.0,0.0,0.0,0.0,0.0,0.0,0.0,0.0,0.0,0.0,0.0,0.0,0.0,0.0,0.0,0.0,0.0,0.0,0.0,0.0,0.0,0.0,0.0,0.0,0.0,0.0,0.0,0.0,0.0,0.0,0.0,0.0,0.0,0.0,0.0,0.0,0.0,0.0,0.0,0.0,0.0,0.0,0.0,0.0,0.0,0.0,0.0,0.0,0.0,0.0,0.0,0.0,0.0,0.0,0.0,0.0,0.0,0.0,0.0,0.0,0.0,0.0,0.0,0.0,0.0,0.0,0.0,0.0,0.0,0.0,0.0,0.0,0.0,0.0,0.0,0.0,0.0,0.0,0.0,0.0,0.0,0.0,0.0,0.0,0.0,0.0,0.0,0.0,0.0,0.0,0.0,0.0,0.0,0.0,0.0,0.0,0.0,0.0,0.0,0.0,0.0,0.0,0.0,0.0,0.0,0.0,0.0,0.0,0.0,0.0,0.0,0.0,0.0,0.0,0.0,0.0,0.0,0.0,0.0,0.0,0.0,0.0,0.0,0.0,0.0,0.0,0.0,0.0,0.0,0.0,0.0,0.0,0.0,0.0,0.0,0.0,0.0,0.0,0.0,0.0,0.0,0.0,0.0,0.0,0.0,0.0,0.0,0.0,0.0,0.0,0.0,0.0,0.0,0.0,0.0,0.0,0.0,0.0,0.0,0.0,0.0,0.0,0.0,0.0,0.0,0.0,0.0,0.0,0.0,0.0,0.0,0.0,0.0,0.0,0.0,0.0,0.0,0.0,0.0,0.0,0.0,0.0,0.0,0.0,0.0,0.0,0.0,0.0,0.0,0.0,0.0,0.0,0.0,0.0,0.0,0.0,0.0,0.0,0.0,0.0,0.0,0.0,0.0,0.0,0.0,0.0,0.0,0.0,0.0,0.0,0.0,0.0,0.0,0.0,0.0,0.0,0.0,0.0,0.0,0.0,0.0,0.0,0.0,0.0,0.0,0.0,0.0,0.0,0.0,0.0,0.0,0.0,0.0,0.0,0.0,0.0,0.0,0.0,0.0,0.0,0.0,0.0,0.0,0.0,0.0,0.0,0.0,0.0,0.0,0.0,0.0,0.0,0.0,0.0,0.0,0.0,0.0,0.0,0.0,0.0,0.0,0.0,0.0,0.0,0.0,0.0,0.0,0.0,0.0,0.0,0.0,0.0,0.0,0.0,0.0,0.0,0.0,0.0,0.0,0.0,0.0,0.0,0.0,0.0,0.0,0.0,0.0,0.0,0.0,0.0,0.0,0.0,0.0,0.0,0.0,0.0,0.0,0.0,0.0,0.0,0.0,0.0,0.0,0.0,0.0,0.0,0.0,0.0,0.0,0.0,0.0,0.0,0.0,0.0,0.0,0.0,0.0,0.0,0.0,0.0,0.0,0.0,0.0,0.0,0.0,0.0,0.0,0.0,0.0,0.0,0.0,0.0,0.0,0.0,0.0,0.0,0.0,0.0,0.0,0.0,0.0,0.0,0.0,0.0,0.0,0.0,0.0,0.0,0.0,0.0,0.0,0.0,0.0,0.0,0.0,0.0,0.0,0.0,0.0,0.0,0.0,0.0,0.0,0.0,0.0,0.0,0.0,0.0,0.0,0.0,0.0,0.0,0.0,0.0,0.0,0.0,0.0,0.0,0.0,0.0,0.0,0.0,0.0,0.0,0.0,0.0,0.0,0.0,0.0,0.0,0.0,0.0,0.0,0.0,0.0,0.0,0.0,0.0,0.0,0.0,0.0,0.0,0.0,0.0,0.0,0.0,0.0,0.0,0.0,0.0,0.0,0.0,0.0,0.0,0.0,0.0,0.0,0.0,0.0,0.0,0.0,0.0,0.0,0.0,0.0,0.0,0.0,0.0,0.0,0.0,0.0,0.0,0.0,0.0,0.0,0.0,0.0,0.0,0.0,0.0,0.0,0.0,0.0,0.0,0.0,0.0,0.0,0.0,0.0,0.0,0.0,0.0,0.0,0.0,0.0,0.0,0.0,0.0,0.0,0.0,0.0,0.0,0.0,0.0,0.0,0.0,0.0,0.0,0.0,0.0,0.0,0.0,0.0,0.0,0.0,0.0,0.0,0.0,0.0,0.0,0.0,0.0,0.0,0.0,0.0,0.0,0.0,0.0,0.0,0.0,0.0,0.0,0.0,0.0,0.0,0.0,0.0,0.0,0.0,0.0,0.0,0.0,0.0,0.0,0.0,0.0,0.0,0.0,0.0,0.0,0.0,0.0,0.0,0.0,0.0,0.0,0.0,0.0,0.0,0.0,0.0,0.0,0.0,0.0,0.0,0.0,0.0,0.0,0.0,0.0,0.0,0.0,0.0,0.0,0.0,0.0,0.0,0.0,0.0,0.0,0.0,0.0,0.0,0.0,0.0,0.0,0.0,0.0,0.0,0.0,0.0,0.0,0.0,0.0,0.0,0.0,0.0,0.0,0.0,0.0,0.0,0.0,0.0,0.0,0.0,0.0,0.0,0.0,0.0,0.0,0.0,0.0,0.0,0.0,0.0,0.0,0.0,0.0,0.0,0.0,0.0,0.0,0.0,0.0,0.0,0.0,0.0,0.0,0.0,0.0,0.0,0.0,0.0,0.0,0.0,0.0,0.0,0.0,0.0,0.0,0.0,0.0,0.0,0.0,0.0,0.0,0.0,0.0,0.0,0.0,0.0,0.0,0.0,0.0,0.0,0.0,0.0,0.0,0.0,0.0,0.0,0.0,0.0,0.0,0.0,0.0,0.0,0.0,0.0,0.0,0.0,0.0,0.0,0.0,0.0,0.0,0.0,0.0,0.0,0.0,0.0,0.0,0.0,0.0,0.0,0.0,0.0,0.0,0.0,0.0,0.0,0.0,0.0,0.7362,0.8602,0.0,0.0,0.0,0.0,0.0,0.0,0.0,0.0,0.0,0.0,0.0,0.0,0.0,0.0,0.0,0.0,0.0,0.0,0.0,0.0,0.0,0.0,0.0,0.0,0.0,0.0,0.0,0.0,0.0,0.0,0.0,0.0,0.0,0.0,0.0,0.0,0.0,0.0,0.0,0.0,0.0,0.0,0.0,0.0,0.0,0.0,0.0,0.0,0.0,0.0,0.0,0.0,0.0,0.0,0.0,0.0,0.0,0.0,0.0,0.0,0.0,0.0,0.0,0.0,0.0,0.0,0.0,0.0,0.0,0.0,0.0,0.0,0.0,0.0,0.0,0.0,0.0,0.0,0.0,0.0,0.0,0.0,0.0,0.0,0.0,0.0,0.0,0.0,0.0,0.0,0.0,0.0,0.0,0.0,0.0,0.0,0.0,0.0,0.0,0.0,0.0,0.0,0.0,0.0,0.0,0.0,0.0,0.0,0.0,0.0,0.0,0.0,0.0,0.0,0.8694,0.9091,0.0,0.0,0.0,0.0,0.0,0.0,0.0,0.0,0.0,0.0,0.0,0.0,0.0,0.0,0.0,0.0,0.0,0.0,0.0,0.0,0.0,0.0,0.0,0.0,0.0,0.0,0.0,0.0,0.0,0.0,0.0,0.0,0.0,0.0,0.0,0.0,0.0,0.0,0.0,0.0,0.0,0.0,0.0,0.0,0.0,0.0,0.0,0.0,0.0,0.0,0.0,0.0,0.0,0.0,0.0,0.0,0.0,0.0,0.0,0.0,0.0,0.0,0.0,0.0,0.0,0.0,0.0,0.0,0.0,0.0,0.0,0.0,0.0,0.0,0.0,0.0,0.0,0.0,0.0,0.0,0.0,0.0,0.0,0.0,0.0,0.0,0.0,0.0,0.0,0.0,0.0,0.0,0.0,0.0,0.0,0.0,0.0,0.0,0.0,0.0,0.0,0.0,0.0,0.0,0.0,0.0,0.0,0.0,1.1678,1.1584,1.1897,1.1823,1.1555,1.1159,0.9817,0.9452,0.9833,1.0255,0.0,0.0,0.0,0.0,0.0,0.0,0.0,0.0,0.0,0.0,0.0,0.0,0.0,0.0,0.0,0.0,0.0,0.0,0.0,0.0,0.0,0.0,0.0,0.0,0.0,0.0,0.0,0.0,0.0,0.0,0.0,0.0,0.0,0.0,0.0,0.0,0.0,0.0,0.0969,0.1288,0.177,0.2424,0.2401,0.0,0.0,0.0,0.0,0.0,0.0,0.0,0.0,0.0,0.0,0.0,0.0,0.0,0.0,0.0,0.0,0.0,0.0,0.0,0.0,0.0,0.0,0.0,0.0,0.0,0.0,0.0,0.0,0.0,0.0,0.0,0.0,0.0,0.0,0.0,0.0,0.0,0.0,0.0,0.0,0.0,0.0,0.0,1.5472,1.5332,0.0,0.0,0.0,0.0,0.0,0.0,0.0,0.0,0.0,0.0,0.0,0.0,0.0,1.2326,1.2596,1.2102,1.2254,1.3033,1.2433,1.2107,1.1977,1.1728,1.1389,1.0937,1.0735,0.0,1.063,1.0527,0.0,0.0,0.0,0.0,0.0,0.0,0.0,0.0,0.0,0.0,0.0,0.0,0.0,0.0,0.0,0.0,0.0,0.0,0.0,0.0,0.0,0.0,0.0,0.0,0.0,0.0,0.0,0.0,0.0,0.0,0.0,0.0,0.0,0.0,0.0,0.0,-0.0404,0.0393,0.1207,0.1447,0.1883,0.2515,0.2624,0.3186,0.3961,0.4169,0.0,0.0,0.0,0.0,0.0,0.0,0.0,0.0,0.0,0.0,0.0,0.0,0.0,0.0,0.0,0.0,0.0,0.0,0.0,0.0,0.0,0.0,0.0,0.0,0.0,0.0,0.0,0.0,0.0,0.0,0.0,0.0,0.0,0.0,0.0,0.0,0.0,0.0,0.0,1.6281,1.5947,1.5629,1.5929,1.6022,0.0,0.0,0.0,0.0,0.0,0.0,0.0,0.0,0.0,1.3043,1.2927,1.2924,1.2928,1.2522,1.2434,1.2679,1.2436,1.2381,1.2509,1.238,1.2368,1.242,1.2119,1.1923,1.1746,1.1153,1.1006,1.127,0.0,0.0,0.0,0.0,1.1531,1.1137,0.0,0.0,0.0,0.0,0.0,0.0,0.0,0.0,0.0,0.0,0.0,0.0,0.0,0.0,0.0,-0.4879,0.0,0.0,0.0,0.0,0.0,0.0,0.0,0.0,0.0,0.0,0.0,0.0,-0.0441,0.033,0.1374,0.1474,0.1967,0.2747,0.3151,0.3571,0.3982,0.4268,0.4865,0.0,0.0,0.0,0.0,0.0,0.0,0.0,0.0,0.0,0.0,0.0,0.0,0.0,0.0,0.0,0.0,0.0,0.0,0.0,0.0,0.0,0.0,0.0,0.0,0.0,0.0,0.0,0.0,0.0,0.0,0.0,0.0,0.0,0.0,0.0,0.0,0.0,0.0,1.6051,1.5884,1.5644,1.5772,1.5808,0.0,0.0,0.0,0.0,0.0,0.0,1.3614,1.3425,1.3211,1.2962,1.314,1.3081,1.2679,1.2636,1.2569,1.242,1.2385,1.2513,1.2863,1.2909,1.3093,1.3447,1.3155,1.2858,1.2529,1.1736,1.1337,1.1337,1.1724,1.1724,1.1598,1.1806,1.1548,1.1102,0.0,0.0,0.0,0.0,0.0,0.0,0.0,0.0,0.0,0.0,0.0,0.0,0.0,0.0,-0.6029,-0.5493,-0.5236,-0.5056,0.0,0.0,0.0,0.0,0.0,0.0,0.0,0.0,0.0,-0.1632,-0.1043,-0.0102,0.1215,0.1149,0.1835,0.3116,0.3828,0.4062,0.3946,0.4281,0.4768,0.53,0.0,0.0,0.0,0.0,0.0,0.0,0.0,0.0,0.0,0.0,0.0,0.0,0.0,0.0,0.0,0.0,0.0,0.0,0.0,0.0,0.0,0.0,0.0,0.0,0.0,0.0,0.0,0.0,0.0,0.0,0.0,0.0,0.0,0.0,0.0,0.0,0.0,0.0,0.0,1.452,1.5175,0.0,0.0,0.0,0.0,1.5276,1.4482,1.3762,1.3244,1.299,1.2573,1.1986,1.235,1.2428,1.2122,1.2524,1.2725,1.2754,1.2589,1.2599,1.2831,1.2928,1.2996,1.3064,1.3294,1.3097,1.2579,1.2075,1.1958,1.2129,1.2022,1.215,1.2309,1.1926,1.1677,1.1427,0.0,0.0,0.0,0.0,0.0,0.0,0.0,0.0,0.0,0.0,0.0,0.0,0.0,-0.5951,-0.5734,-0.4939,-0.4992,-0.4811,-0.4094,0.0,0.0,0.0,0.0,0.0,0.0,0.0,-0.1766,-0.1895,-0.1214,-0.0638,-0.0165,0.0501,0.1624,0.3137,0.358,0.3764,0.3758,0.4462,0.4751,0.4722,0.4654,0.464,0.0,0.0,0.0,0.0,0.0,0.0,0.0,0.0,0.0,0.0,0.0,0.0,0.0,0.0,0.0,0.0,0.0,0.0,0.0,0.0,0.0,0.0,0.0,0.0,0.0,0.0,0.0,0.0,0.0,0.0,0.0,0.0,0.0,0.0,0.0,0.0,0.0,1.5166,1.5217,0.0,1.5022,1.4858,1.4597,1.4216,1.3584,1.3131,1.2951,1.283,1.2848,1.2976,1.2884,1.2779,1.2693,1.2617,1.2599,1.2608,1.252,1.252,1.2608,1.2657,1.2657,1.2706,1.2754,1.2667,1.2416,1.2451,1.2197,1.1814,1.178,1.1553,1.1227,1.0971,1.057,1.012,0.0,0.0,0.0,0.0,0.0,0.0,0.0,0.0,0.0,0.0,0.0,-0.6231,-0.5679,-0.5751,-0.5529,-0.4828,-0.476,-0.4463,-0.3875,0.0,0.0,0.0,0.0,0.0,0.0,-0.2397,-0.2145,-0.2062,-0.1534,-0.0987,-0.0393,0.0056,0.112,0.2691,0.2912,0.3212,0.3641,0.4053,0.424,0.4289,0.4283,0.4318,0.4306,0.0,0.0,0.0,0.0,0.0,0.0,0.0,0.0,0.0,0.0,0.0,0.0,0.0,0.0,0.0,0.0,0.0,0.0,0.0,0.0,0.0,0.0,0.0,0.0,0.0,0.0,0.0,0.0,0.0,0.0,0.0,0.0,0.0,0.0,0.0,1.5232,1.5412,1.496,1.4686,1.4834,1.4419,1.4,1.3622,1.3282,1.2996,1.2801,1.2755,1.2802,1.2977,1.2783,1.2589,1.2433,1.2363,1.2224,1.2076,1.2076,1.2076,1.2076,1.2224,1.2274,1.2274,1.2372,1.2382,1.2323,1.2471,1.2235,1.1774,1.181,1.1435,1.088,1.0693,1.027,0.9795,0.0,0.0,0.0,0.0,0.0,0.0,0.0,0.0,0.0,0.0,-0.609,-0.6103,-0.5553,-0.5638,-0.5564,-0.532,-0.4503,-0.408,-0.4252,-0.3669,0.0,0.0,0.0,0.0,-0.3102,-0.3118,-0.2823,-0.2276,-0.2174,-0.1179,0.0562,-0.0056,0.0393,0.174,0.1796,0.2473,0.3495,0.2925,0.3238,0.4069,0.405,0.4175,0.433,0.0,0.0,0.0,0.0,0.0,0.0,0.0,0.0,0.0,0.0,0.0,0.0,0.0,0.0,0.0,0.0,0.0,0.0,0.0,0.0,0.0,0.0,0.0,0.0,0.0,0.0,0.0,0.0,0.0,0.0,0.0,0.0,0.0,1.4915,1.4651,1.4558,1.5017,1.4176,1.38,1.4326,1.3905,1.3573,1.3583,1.3573,1.3324,1.2832,1.2686,1.2295,1.1728,1.1945,1.1855,1.1344,1.1704,1.1713,1.131,1.131,1.131,1.1361,1.1763,1.1904,1.1895,1.2144,1.2292,1.2274,1.2126,1.2076,1.2076,1.2157,1.1918,1.1469,1.1175,1.0863,1.0549,0.0,0.0,0.0,0.0,0.0,0.0,0.0,0.0,0.0,0.0,-0.5997,-0.6135,-0.5695,-0.556,-0.5294,-0.4905,-0.464,-0.429,-0.3812,0.0,0.0,0.0,0.0,0.0,-0.3475,-0.3142,-0.3222,-0.3792,-0.2593,-0.114,0.054,0.012,0.0301,0.0902,0.1562,0.2042,0.2404,0.258,0.2789,0.3011,0.3199,0.3521,0.3853,0.0,0.0,0.0,0.0,0.0,0.0,0.0,0.0,0.0,0.0,0.0,0.0,0.0,0.0,0.0,0.0,0.0,0.0,0.0,0.0,0.0,0.0,0.0,0.0,0.0,0.0,0.0,0.0,0.0,0.0,0.0,0.0,1.3658,1.3988,1.3894,1.3858,1.3988,1.3752,1.3658,1.381,1.3314,1.3154,1.3431,1.287,1.2594,1.2735,1.2549,1.2268,1.1886,1.2271,1.2272,1.1791,1.2113,1.2189,1.2081,1.2081,1.2081,1.2081,1.2189,1.2095,1.1844,1.1896,1.1781,1.1569,1.1828,1.1778,1.1578,1.1977,1.1769,1.1175,1.0863,1.0241,0.9569,0.0,0.0,0.0,0.0,0.0,0.0,0.0,0.0,0.0,0.0,-0.6044,-0.6186,-0.5547,-0.5346,-0.5082,-0.474,-0.4503,-0.4257,-0.3983,0.0,0.0,0.0,0.0,-0.3315,-0.3683,-0.3531,-0.3642,-0.402,-0.3357,-0.1845,0.0308,0.0431,0.0617,0.0803,0.1376,0.1634,0.1635,0.1846,0.2158,0.2497,0.2718,0.2979,0.3265,0.3001,0.2941,0.2978,0.3431,0.357,0.364,0.4297,0.0,0.0,0.0,0.0,0.0,0.0,0.0,0.0,0.0,0.0,0.0,0.0,0.0,0.0,0.0,0.0,0.0,0.0,0.0,0.0,0.0,0.0,0.0,0.0,1.3057,1.3018,1.3441,1.3361,1.3456,1.4029,1.3561,1.3382,1.3711,1.3319,1.294,1.2809,1.2492,1.2414,1.2583,1.2694,1.2538,1.2254,1.2389,1.2153,1.1529,1.1837,1.2047,1.2103,1.2334,1.2389,1.2389,1.2389,1.2192,1.1788,1.1788,1.1627,1.1326,1.1569,1.1519,1.1326,0.0,0.0,0.0,0.0,0.9829,0.9263,0.0,0.0,0.0,0.0,0.0,0.0,0.0,0.0,0.0,0.0,0.0,-0.6205,-0.5296,-0.5004,-0.4819,-0.4689,-0.4205,-0.4043,0.0,0.0,0.0,-0.3656,-0.3439,-0.3485,-0.3729,-0.394,-0.3835,-0.3459,-0.4036,-0.2857,-0.0124,0.0559,0.0936,0.1004,0.1096,0.1176,0.1116,0.1145,0.1542,0.2158,0.2286,0.2504,0.2683,0.2532,0.2408,0.2383,0.2919,0.2983,0.2866,0.336,0.0,0.0,0.0,0.0,0.0,0.0,0.0,0.0,0.0,0.0,0.0,0.0,0.0,0.0,0.0,0.0,0.0,0.0,0.0,0.0,0.0,0.0,0.0,0.0,1.2355,1.2232,1.3086,1.2846,1.3082,1.4373,1.3351,1.2865,1.3645,1.3368,1.2768,1.197,1.2369,1.2596,1.2458,0.0,0.0,0.0,0.0,1.1807,1.0997,1.1355,1.1598,1.172,1.2187,1.2393,1.2282,1.2304,1.2163,1.1794,1.1752,1.1601,1.1336,1.1243,1.1243,1.1387,1.1444,1.1167,1.071,1.0028,0.9562,0.9256,0.0,0.0,0.0,0.0,0.0,0.0,0.0,0.0,0.0,-0.55,-0.5831,-0.5888,-0.5279,-0.4454,-0.4134,-0.4582,-0.4067,-0.3951,0.0,0.0,-0.4035,-0.3832,-0.333,-0.3129,-0.3319,-0.3247,-0.3158,-0.3126,-0.3538,-0.2979,-0.1517,-0.0925,-0.0268,0.0479,0.0826,0.0838,0.0642,0.1003,0.1289,0.1425,0.1424,0.1985,0.2753,0.318,0.2954,0.255,0.3056,0.3099,0.2885,0.3022,0.3444,0.3884,0.3678,0.0,0.0,0.0,0.0,0.0,0.0,0.0,0.0,0.0,0.0,0.0,0.0,0.0,0.0,0.0,0.0,0.0,0.0,0.0,0.0,1.186,1.2066,1.2312,1.2533,1.2012,1.1872,1.2668,1.2091,1.1639,1.1807,1.1971,1.2059,1.192,1.2134,1.2213,1.2033,1.2444,1.229,1.1459,1.205,1.212,1.1388,1.2238,1.2382,1.1791,0.0,0.0,1.1491,1.1801,1.1855,1.1781,1.1361,1.1358,1.1652,1.0883,1.1036,1.1704,1.1447,1.0804,0.9976,0.9865,0.9302,0.858,0.0,0.0,0.0,0.0,0.0,0.0,0.0,0.0,0.0,0.0,-0.5358,-0.5283,-0.4487,-0.3819,-0.3688,-0.4235,-0.4042,0.0,0.0,-0.427,-0.4081,-0.3621,-0.3382,-0.3234,-0.3107,-0.3028,-0.3022,-0.3093,-0.3207,-0.2758,-0.1746,-0.1432,-0.076,0.014,0.036,0.0367,0.0297,0.0527,0.0601,0.0594,0.0817,0.1054,0.1412,0.2468,0.2582,0.2294,0.2852,0.2932,0.283,0.3045,0.3345,0.3556,0.3453,0.3623,0.3968,0.0,0.0,0.0,0.0,0.0,0.0,0.0,0.0,0.0,0.0,0.0,0.0,0.0,0.0,1.1333,0.0,0.0,1.1831,1.1735,1.1914,1.223,1.2624,1.1913,1.1652,1.2533,1.192,1.1508,1.1854,1.2043,1.2025,1.1722,1.2225,1.245,1.2239,1.2787,1.2714,1.2056,1.229,1.2036,1.124,1.1725,1.1849,1.1553,1.1947,1.1842,1.1487,1.1612,1.1605,1.1367,1.1027,1.0966,1.0993,1.0277,1.0291,1.0685,1.051,1.0291,1.0121,1.0121,0.9428,0.8517,0.0,0.0,0.0,0.0,0.0,0.0,0.0,0.0,0.0,0.0,-0.4989,-0.4734,-0.3831,-0.3378,-0.3325,0.0,0.0,0.0,0.0,-0.4253,-0.418,-0.3477,-0.3585,-0.3474,-0.3073,-0.2954,-0.2916,-0.2958,-0.2822,-0.2359,-0.1628,-0.1526,-0.0987,-0.0143,-0.0074,-0.0076,-0.0076,-0.0,-0.0,-0.0,0.0305,0.0297,0.0284,0.1657,0.1873,0.1602,0.2251,0.2362,0.2323,0.281,0.3098,0.3192,0.3268,0.3423,0.3592,0.3683,0.3684,0.0,0.0,0.0,0.0,0.0,0.0,0.0,0.0,0.0,1.009,1.0442,1.0778,1.1052,1.1357,1.142,1.1456,1.1662,1.1773,1.205,1.2575,1.1851,1.1665,1.2557,1.1881,1.1557,1.2089,1.2205,1.1971,1.1365,1.2119,1.2553,1.2296,1.2883,1.2978,1.2596,1.2326,1.172,1.0909,1.1051,1.1115,1.1115,1.1413,1.1397,1.116,1.121,1.1125,1.0865,1.0875,1.0605,1.017,0.9853,0.9751,0.9804,0.9804,0.9929,1.0159,1.0159,0.9439,0.8559,0.0,0.0,0.0,0.0,0.0,0.0,0.0,0.0,0.0,0.0,0.0,0.0,0.0,0.0,0.0,0.0,0.0,0.0,-0.3939,-0.4361,-0.4451,-0.4025,-0.3987,-0.3732,-0.3258,-0.283,-0.2471,-0.2018,-0.1883,-0.1703,-0.1675,-0.1679,-0.1365,-0.0751,-0.0377,-0.0306,-0.0548,-0.0157,-0.0,-0.0,0.0078,0.0384,0.1046,0.1675,0.115,0.0245,0.0919,0.0984,0.0806,0.1378,0.1907,0.246,0.2705,0.3166,0.3555,0.3335,0.0,0.3268,0.3189,0.3819,0.4526,0.4606,0.5742,0.6846,0.0,0.0,0.9382,0.9735,1.0588,1.1373,1.1666,1.178,1.1662,1.11,1.1545,1.1819,1.1428,1.1224,1.1145,1.1369,1.0987,1.0732,1.08,1.1047,1.1023,1.0701,1.1262,1.1485,1.1188,1.1736,1.1803,1.1235,1.1377,1.1229,1.0678,1.1192,1.1115,1.0428,1.0927,1.0628,0.9661,0.9953,1.0241,1.0494,1.0938,1.0646,0.9893,1.0194,1.0406,1.0477,1.0477,0.9974,0.9254,0.9157,0.8664,0.8033,0.0,0.0,0.0,0.0,0.0,0.0,0.0,0.0,0.0,0.0,0.0,0.0,0.0,0.0,0.0,0.0,0.0,0.0,-0.3849,-0.4435,-0.4521,-0.3971,-0.4104,-0.3971,-0.3347,-0.3287,-0.3076,-0.2816,-0.2332,-0.2113,-0.2171,-0.1637,-0.1317,-0.1061,-0.0922,-0.094,-0.0962,-0.079,-0.0791,-0.072,-0.0789,-0.0541,-0.0301,-0.0072,-0.0134,-0.0308,0.0422,0.0741,0.0,0.0,0.1305,0.1602,0.1993,0.246,0.2788,0.2636,0.2911,0.0,0.3262,0.3794,0.4393,0.0,0.567,0.6894,0.6988,0.8011,0.8946,0.9119,0.9515,0.9922,1.0099,1.0122,1.0079,0.0,1.0422,1.0699,1.0539,1.0527,1.0514,1.0315,0.9971,0.9994,1.0548,1.0668,1.0762,1.0808,1.1356,1.1557,1.1263,1.1643,1.1757,1.151,1.1289,1.1136,1.1062,1.0978,1.0807,1.0491,1.0499,1.0287,0.9807,0.9982,1.0048,1.0112,1.0044,0.9773,0.9305,0.9245,0.9236,0.9223,0.9114,0.8854,0.8664,0.8929,0.8651,0.8137,0.0,0.0,0.0,0.0,0.0,0.0,0.0,0.0,0.0,0.0,0.0,0.0,0.0,0.0,0.0,0.0,0.0,0.0,0.0,-0.4505,-0.4613,-0.3934,-0.4242,-0.4134,-0.3532,-0.3626,-0.3648,-0.3466,-0.2627,-0.2307,-0.2406,-0.1588,-0.1183,-0.1213,-0.1243,-0.1265,-0.1277,-0.1263,-0.127,-0.1288,-0.1335,-0.1226,-0.1117,-0.1264,-0.1111,-0.0728,-0.0117,0.0276,0.0,0.0,0.0751,0.0847,0.132,0.1666,0.1896,0.1796,0.2293,0.2922,0.2817,0.0,0.0,0.4174,0.5523,0.6772,0.6819,0.7776,0.8672,0.8749,0.8913,0.9135,0.92,0.9144,0.917,0.9357,0.9626,0.9906,0.991,1.005,0.9934,0.9597,0.9248,0.9377,1.0158,1.0184,1.0301,1.0451,1.0857,1.0962,1.0691,1.0943,1.1198,1.1344,1.094,1.085,1.1189,1.0768,1.0624,1.0618,1.0341,1.0194,1.0114,1.0114,1.006,0.9932,0.9607,0.943,0.9304,0.8875,0.8689,0.8598,0.8353,0.8179,0.8165,0.8545,0.8607,0.8514,0.0,0.0,0.0,0.0,0.0,0.0,0.0,0.0,0.0,0.0,0.0,0.0,0.0,0.0,0.0,0.0,0.0,0.0,0.0,-0.4729,-0.4914,-0.4107,-0.4396,-0.435,-0.3825,-0.3806,-0.363,-0.3339,-0.2383,-0.202,-0.2181,-0.153,-0.1183,-0.1213,-0.1243,-0.1241,-0.1216,-0.1245,-0.1336,-0.1334,-0.1302,-0.1046,-0.0651,-0.1137,-0.1309,-0.1348,-0.0966,0.0,0.0,0.0,0.0148,0.0241,0.078,0.0958,0.0,0.0849,0.1274,0.17,0.0,0.0,0.3579,0.3495,0.4775,0.6046,0.6187,0.7393,0.8523,0.868,0.9332,0.9829,0.9723,0.9764,0.9784,0.9508,0.9753,0.997,0.9823,0.967,0.9572,0.942,0.9034,0.892,0.0,0.9273,0.9196,0.9075,0.911,0.9083,0.8969,0.8991,0.9332,1.0007,1.0062,1.0196,1.0588,1.0631,1.0624,1.0624,1.0618,1.0394,1.0114,1.0114,1.0114,1.0073,1.022,1.0275,1.0212,0.9894,0.96,0.9346,0.9157,0.8517,0.772,0.772,0.8291,0.9094,0.0,0.0,0.0,0.0,0.0,0.0,0.0,0.0,0.0,0.0,0.0,0.0,0.0,0.0,0.0,0.0,0.0,0.0,0.0,-0.474,-0.4745,-0.4108,-0.4033,-0.3964,-0.3938,-0.4131,-0.4206,-0.4103,-0.3486,-0.3202,-0.3288,-0.2619,-0.2251,-0.2313,-0.2334,-0.2211,-0.2011,-0.2137,-0.1811,-0.1265,-0.098,-0.0961,-0.1165,-0.2036,-0.2357,-0.2356,0.0,0.0,0.0,-0.1356,-0.1222,-0.0956,-0.0245,-0.0102,-0.016,0.0328,0.0894,0.1428,0.1754,0.0,0.3986,0.402,0.4956,0.5895,0.5956,0.6661,0.7204,0.7062,0.7163,0.722,0.6967,0.6789,0.6912,0.7603,0.7931,0.8203,0.8674,0.8992,0.886,0.8181,0.8106,0.0,0.0,0.0,0.0,0.9308,0.9296,0.9162,0.8946,0.9045,0.922,0.9496,0.9908,1.0214,1.0325,1.0679,1.0755,1.0561,1.0104,0.9793,0.97,0.9019,0.9346,1.0401,0.9619,0.9681,1.0225,0.9349,0.9154,0.9352,0.8632,0.8199,0.796,0.796,0.7985,0.7978,0.0,0.0,0.0,0.0,0.0,0.0,0.0,0.0,0.0,0.0,0.0,0.0,0.0,0.0,0.0,0.0,0.0,0.0,0.0,0.0,-0.488,-0.4103,-0.4052,-0.3959,-0.3814,-0.4213,-0.4426,-0.4431,-0.3753,-0.3465,-0.3558,-0.2867,-0.2542,-0.2593,-0.2648,-0.2504,-0.2342,-0.2364,-0.2131,-0.1644,-0.109,-0.106,-0.1419,-0.208,-0.2597,0.0,0.0,0.0,0.0,-0.2062,-0.1907,-0.1722,-0.1131,-0.0828,-0.0602,-0.0229,0.0118,0.0667,0.1614,0.2955,0.4147,0.4251,0.4999,0.5852,0.5907,0.6263,0.6509,0.6294,0.6148,0.6051,0.5657,0.5571,0.5726,0.6392,0.6643,0.6895,0.7399,0.7693,0.758,0.6983,0.6978,0.6987,0.0,0.0,0.0,0.8799,0.8931,0.8881,0.8506,0.8675,0.8889,0.9082,0.9441,0.9765,0.9974,1.0129,1.0118,0.9849,0.939,0.9134,0.9128,0.8455,0.8788,0.9837,0.9029,0.9052,0.9576,0.8777,0.8646,0.8935,0.8225,0.7887,0.7691,0.7633,0.7274,0.678,0.0,0.0,0.0,0.0,0.0,0.0,0.0,0.0,0.0,0.0,0.0,0.0,0.0,0.0,0.0,0.0,0.0,0.0,0.0,0.0,0.0,-0.4094,-0.4367,-0.4248,-0.3554,-0.397,-0.424,-0.4326,-0.3251,-0.2847,-0.3054,-0.2454,-0.2163,-0.206,-0.2194,-0.2257,-0.226,-0.2197,-0.2201,-0.2258,-0.171,-0.1459,-0.148,-0.1472,0.0,0.0,0.0,0.0,0.0,0.0,0.0,0.0,0.0,-0.1042,-0.0457,-0.079,-0.087,-0.0575,0.0924,0.2607,0.4024,0.4227,0.4957,0.573,0.5855,0.6175,0.6448,0.6149,0.6186,0.6119,0.0,0.0,0.6007,0.5976,0.5928,0.5994,0.6162,0.6055,0.5957,0.0,0.0,0.0,0.0,0.0,0.0,0.7438,0.0,0.8014,0.7484,0.7941,0.8364,0.8837,0.8708,0.8951,0.9561,0.9094,0.8721,0.849,0.849,0.8425,0.8425,0.8425,0.8425,0.849,0.849,0.849,0.849,0.8231,0.8172,0.8172,0.8047,0.7521,0.6859,0.6736,0.6276,0.5745,0.0,0.0,0.0,0.0,0.0,0.0,0.0,0.0,0.0,0.0,0.0,0.0,0.0,0.0,0.0,0.0,0.0,0.0,0.0,0.0,0.0,0.0,0.0,0.0,0.0,0.0,0.0,0.0,0.0,-0.3792,-0.3823,-0.3307,-0.3093,-0.3183,-0.3192,-0.3118,-0.3093,-0.3088,-0.2918,-0.2756,0.0,-0.2526,-0.253,0.0,0.0,0.0,0.0,0.0,0.0,0.0,0.0,0.0,0.0,-0.0294,-0.0122,-0.0189,-0.0401,-0.0425,-0.0074,0.1254,0.2809,0.4197,0.478,0.4979,0.5007,0.4932,0.486,0.4698,0.4563,0.4372,0.0,0.0,0.0,0.4988,0.5188,0.0,0.5982,0.6209,0.0,0.5955,0.0,0.6092,0.6074,0.6187,0.0,0.0,0.6683,0.6856,0.736,0.7446,0.7775,0.8533,0.9175,0.9494,0.9206,0.9064,0.869,0.8112,0.7847,0.7782,0.7717,0.7195,0.7517,0.849,0.7972,0.8037,0.849,0.7912,0.7912,0.8172,0.7591,0.7195,0.6924,0.6863,0.6408,0.5818,0.0,0.0,0.0,0.0,0.0,0.0,0.0,0.0,0.0,0.0,0.0,0.0,0.0,0.0,0.0,0.0,0.0,0.0,0.0,0.0,0.0,0.0,0.0,0.0,0.0,0.0,0.0,0.0,0.0,0.0,0.0,-0.3363,-0.3191,-0.3159,-0.322,-0.3219,-0.3248,-0.3187,0.0,0.0,0.0,0.0,0.0,0.0,0.0,0.0,0.0,0.0,0.0,0.0,0.0,-0.3191,-0.1976,-0.0831,-0.0,-0.0,0.0,-0.0228,-0.0239,0.0415,0.1283,0.234,0.3313,0.3878,0.3881,0.3726,0.3615,0.4102,0.4014,0.0,0.3602,0.0,0.0,0.0,0.0,0.0,0.5006,0.5277,0.5408,0.0,0.5454,0.0,0.548,0.562,0.5667,0.0,0.6224,0.673,0.7081,0.7574,0.8035,0.8318,0.92,0.9321,0.8644,0.8596,0.8307,0.7787,0.7396,0.7269,0.7199,0.6679,0.6806,0.7587,0.7195,0.726,0.7517,0.7199,0.7199,0.7391,0.7003,0.6806,0.6671,0.6601,0.6342,0.6032,0.0,0.0,0.0,0.0,0.0,0.0,0.0,0.0,0.0,0.0,0.0,0.0,0.0,0.0,0.0,0.0,0.0,0.0,0.0,0.0,0.0,0.0,0.0,0.0,0.0,0.0,0.0,0.0,0.0,0.0,0.0,0.0,0.0,0.0,0.0,0.0,0.0,0.0,0.0,0.0,0.0,0.0,0.0,0.0,0.0,0.0,0.0,0.0,0.0,0.0,-0.2409,-0.3542,-0.3215,-0.167,-0.0,-0.0,-0.0,-0.0,-0.0,-0.0,-0.0,-0.0,0.1259,0.2481,0.2508,0.2335,0.2497,0.3537,0.0,0.354,0.337,0.3234,0.3202,0.3532,0.0,0.3803,0.3939,0.4143,0.4325,0.4455,0.4635,0.4706,0.4723,0.474,0.4748,0.4748,0.6036,0.6795,0.6701,0.7742,0.8387,0.8351,0.8881,0.8852,0.8226,0.8192,0.7912,0.7591,0.7138,0.7012,0.6946,0.6679,0.6548,0.6548,0.6548,0.6548,0.6548,0.6486,0.6486,0.6486,0.642,0.642,0.6416,0.628,0.6226,0.6273,0.0,0.0,0.0,0.0,0.0,0.0,0.0,0.0,0.0,0.0,-0.4174,-0.3863,0.0,0.0,0.0,0.0,0.0,0.0,0.0,0.0,0.0,0.0,0.0,0.0,0.0,0.0,0.0,0.0,0.0,0.0,0.0,0.0,0.0,0.0,0.0,0.0,0.0,0.0,0.0,0.0,0.0,0.0,0.0,0.0,0.0,0.0,0.0,0.0,0.0,0.0,-0.2375,-0.3222,-0.1273,-0.0371,-0.0,-0.0,-0.0,-0.0,-0.0,-0.0,-0.0,-0.0,0.0252,0.0479,0.0522,0.0482,0.0,0.0,0.1494,0.2127,0.2127,0.2062,0.2411,0.3422,0.0,0.0,0.0,0.0,0.423,0.0,0.0,0.0,0.0,0.0,0.0,0.0,0.5143,0.5613,0.6208,0.6446,0.7226,0.8571,0.8505,0.8679,0.8996,0.8526,0.8168,0.7922,0.7591,0.7396,0.7396,0.733,0.7326,0.7326,0.7326,0.0,0.7265,0.6942,0.6815,0.6815,0.6486,0.642,0.642,0.635,0.6447,0.6583,0.0,0.0,0.0,0.0,0.0,0.0,0.0,0.0,-0.5761,-0.5126,-0.4649,-0.4428,-0.4538,-0.4746,0.0,0.0,0.0,0.0,0.0,0.0,0.0,0.0,0.0,0.0,0.0,0.0,0.0,0.0,0.0,0.0,0.0,0.0,0.0,0.0,0.0,0.0,0.0,0.0,0.0,0.0,0.0,0.0,0.0,0.0,0.0,0.0,0.0,0.0,0.0,0.0,-0.2201,-0.1536,-0.0363,-0.0,-0.0,-0.0,-0.0,-0.0,-0.0,-0.0,-0.0,-0.0,-0.0,-0.0,-0.0,0.0,0.0,0.0,0.0453,0.084,0.084,0.0,0.0,0.0,0.0,0.0,0.0,0.0,0.0,0.0,0.0,0.0,0.0,0.0,0.0,0.4928,0.5057,0.5295,0.5536,0.5973,0.6777,0.8003,0.8369,0.8538,0.8574,0.8672,0.8586,0.8252,0.7922,0.7787,0.7722,0.7587,0.7521,0.7521,0.7521,0.7521,0.7456,0.7265,0.7204,0.7204,0.7003,0.6876,0.6696,0.6789,0.6751,0.6721,0.0,0.0,0.0,0.0,0.0,0.0,0.0,-0.5107,-0.571,-0.4991,-0.494,-0.4936,-0.4831,-0.4657,-0.4724,0.0,0.0,0.0,0.0,0.0,0.0,0.0,0.0,0.0,0.0,0.0,0.0,0.0,0.0,0.0,0.0,0.0,0.0,0.0,0.0,0.0,0.0,0.0,0.0,0.0,0.0,0.0,0.0,0.0,0.0,0.0,0.0,0.0,0.0,0.0,-0.228,-0.0707,-0.0498,-0.0226,-0.0,-0.0,-0.0,-0.0,-0.0,-0.0,-0.0,-0.0,-0.0,-0.0,-0.0,-0.0,0.0,0.0,0.0112,0.0168,0.0168,0.0,0.0,0.0,0.0,0.0,0.0,0.0,0.0,0.0,0.0,0.0,0.0,0.0,0.0,0.5132,0.5231,0.5246,0.5018,0.5631,0.6318,0.7157,0.7851,0.8067,0.7785,0.8421,0.8513,0.8129,0.7815,0.7724,0.7724,0.7545,0.7391,0.726,0.7456,0.755,0.7588,0.7461,0.7461,0.7461,0.7395,0.7065,0.6626,0.6763,0.6733,0.6565,0.0,0.0,0.0,0.0,0.0,0.0,0.0,-0.6637,-0.6797,-0.4806,-0.4915,-0.5093,-0.4918,-0.4764,-0.5042,0.0,0.0,0.0,0.0,0.0,0.0,0.0,0.0,0.0,0.0,0.0,0.0,0.0,0.0,0.0,0.0,0.0,0.0,0.0,0.0,0.0,0.0,0.0,0.0,0.0,0.0,0.0,0.0,0.0,0.0,0.0,0.0,0.0,0.0,0.0,0.0,-0.306,-0.1989,-0.0914,-0.0,-0.0,0.0,0.0,-0.0,-0.0,-0.0,-0.0,-0.0,-0.0,-0.0,0.0,0.0,-0.0,0.0449,0.0842,0.0842,0.0561,0.0617,0.0,0.0,0.2361,0.0,0.0,0.0,0.0,0.0,0.0,0.0,0.0,0.0,0.5454,0.549,0.5404,0.5018,0.5093,0.5476,0.6318,0.6395,0.6692,0.7179,0.7249,0.7155,0.6962,0.6794,0.6716,0.6776,0.7277,0.7125,0.6531,0.719,0.7626,0.0,0.7468,0.7337,0.7269,0.6997,0.6382,0.5634,0.5652,0.5827,0.6067,0.0,0.0,0.0,0.0,0.0,0.0,0.0,-0.5831,-0.6033,-0.4739,-0.4438,-0.4409,-0.4528,-0.442,-0.4586,0.0,0.0,0.0,0.0,0.0,0.0,0.0,0.0,0.0,0.0,0.0,0.0,0.0,0.0,0.0,0.0,0.0,0.0,0.0,0.0,0.0,0.0,0.0,0.0,0.0,0.0,0.0,0.0,0.0,0.0,0.0,0.0,0.0,0.0,0.0,0.0,0.0,-0.3042,-0.2549,0.0,0.0,-0.0,-0.0,-0.0,-0.0,-0.0,-0.0,-0.0,0.0072,0.0452,0.0,0.0,0.0281,0.0449,0.0673,0.0842,0.0785,0.0842,0.1178,0.0,0.0,0.0,0.0,0.0,0.0,0.0,0.0,0.0,0.0,0.0,0.5781,0.5681,0.5559,0.5404,0.5326,0.5479,0.5864,0.6247,0.6558,0.6767,0.6982,0.7041,0.7011,0.68,0.6708,0.6599,0.6869,0.6772,0.64,0.6728,0.6902,0.0,0.6899,0.6814,0.6735,0.6822,0.6425,0.5876,0.6072,0.6075,0.604,0.0,0.0,0.0,0.0,0.0,-0.5049,-0.449,-0.4951,-0.5037,-0.407,-0.3844,-0.3814,-0.3925,-0.3944,-0.4056,-0.4407,0.0,0.0,0.0,0.0,0.0,0.0,0.0,0.0,0.0,0.0,0.0,0.0,0.0,0.0,0.0,0.0,-0.351,-0.3214,0.0,0.0,0.0,0.0,0.0,0.0,0.0,0.0,0.0,0.0,0.0,0.0,0.0,0.0,0.0,0.0,0.0,0.0,0.0,0.0,0.0,0.0,-0.0363,0.0153,-0.0,0.0084,0.0171,0.0236,0.0223,0.021,0.0,0.0,0.0,0.0617,0.0561,0.0617,0.0842,0.0898,0.0898,0.0898,0.0,0.187,0.0,0.0,0.0,0.0,0.0,0.0,0.0,0.0,0.6257,0.6022,0.5867,0.5792,0.5792,0.5792,0.5715,0.5637,0.6022,0.628,0.6249,0.6492,0.6651,0.666,0.6417,0.6335,0.6268,0.6429,0.631,0.6011,0.6211,0.6344,0.0,0.6415,0.6351,0.6312,0.6491,0.619,0.5732,0.5949,0.5907,0.5733,0.0,0.0,0.0,0.0,0.0,0.0,0.0,-0.4441,-0.4079,-0.261,-0.3164,-0.3554,-0.3162,-0.3353,-0.3583,-0.3803,0.0,0.0,0.0,0.0,0.0,0.0,0.0,0.0,0.0,0.0,0.0,0.0,0.0,0.0,0.0,0.0,0.0,0.0,0.0,0.0,0.0,0.0,0.0,0.0,0.0,0.0,0.0,0.0,0.0,0.0,0.0,0.0,0.0,0.0,0.0,0.0,0.0,0.0,0.0,0.0,-0.1182,0.0426,0.0075,0.0314,0.0641,0.0818,0.0643,0.0409,0.0,0.0,0.0898,0.0898,0.0898,0.0898,0.0898,0.0898,0.0898,0.0898,0.0898,0.0,0.0,0.0,0.0,0.0,0.0,0.0,0.0,0.0,0.6261,0.6261,0.6261,0.0,0.6261,0.6261,0.6106,0.5637,0.5637,0.5637,0.5634,0.55,0.55,0.5631,0.5356,0.5298,0.5501,0.6085,0.5856,0.5158,0.5844,0.6123,0.0,0.6051,0.6073,0.6076,0.5943,0.5456,0.483,0.4833,0.4909,0.5015,0.0,0.0,0.0,0.0,0.0,0.0,0.0,-0.4128,-0.3696,-0.3093,-0.2896,-0.2727,-0.2512,-0.3008,-0.3307,-0.3118,0.0,0.0,0.0,0.0,0.0,0.0,0.0,0.0,0.0,0.0,0.0,0.0,0.0,0.0,0.0,0.0,0.0,0.0,0.0,0.0,0.0,0.0,0.0,0.0,0.0,0.0,0.0,0.0,0.0,0.0,0.0,0.0,0.0,0.0,0.0,0.0,0.0,0.0,0.0,0.0,0.0,0.0,-0.0482,-0.0359,-0.0364,-0.0,-0.0068,-0.013,0.006,0.0,0.0393,0.0842,0.0898,0.0898,0.0898,0.0898,0.0898,0.0898,0.0898,0.0,0.0,0.0,0.0,0.0,0.0,0.0,0.0,0.0,0.4846,0.5395,0.5395,0.5709,0.6261,0.6338,0.6261,0.6106,0.5867,0.5867,0.6106,0.5748,0.5591,0.5786,0.5549,0.5481,0.5507,0.5683,0.5532,0.5092,0.53,0.5381,0.5235,0.5264,0.5329,0.5454,0.551,0.547,0.5295,0.531,0.5289,0.5246,0.0,0.0,0.0,0.0,0.0,0.0,0.0,-0.3612,-0.3077,-0.297,-0.2704,-0.245,-0.2295,-0.2844,-0.3083,-0.2753,0.0,0.0,0.0,0.0,0.0,0.0,0.0,0.0,0.0,0.0,0.0,0.0,0.0,0.0,0.0,0.0,0.0,0.0,0.0,0.0,0.0,0.0,0.0,0.0,0.0,0.0,-0.2912,0.0,0.0,0.0,0.0,0.0,0.0,0.0,0.0,0.0,0.0,0.0,0.0,0.0,-0.2231,0.0,0.0,-0.0798,-0.0674,-0.0525,-0.045,0.0,0.0,0.0,0.0224,0.0785,0.0898,0.0898,0.0898,0.0898,0.0898,0.0898,0.0898,0.0,0.0,0.0,0.0,0.0,0.0,0.0,0.0,0.3559,0.3986,0.4533,0.4535,0.4768,0.5318,0.5318,0.5473,0.5789,0.5944,0.6103,0.6261,0.5973,0.5816,0.6022,0.5813,0.5771,0.5815,0.5815,0.5686,0.5458,0.5406,0.5234,0.0,0.5136,0.5199,0.5265,0.5421,0.5466,0.5521,0.5607,0.5587,0.5541,0.0,0.0,0.0,0.0,0.0,0.0,0.0,0.0,0.0,-0.2442,-0.259,-0.264,-0.2456,-0.2825,-0.2951,-0.2633,0.0,0.0,0.0,0.0,0.0,0.0,0.0,0.0,0.0,0.0,0.0,-0.3026,-0.256,-0.2563,-0.2991,0.0,0.0,0.0,0.0,0.0,0.0,0.0,0.0,0.0,0.0,0.0,0.0,0.0,0.0,0.0,0.0,0.0,0.0,0.0,0.0,0.0,0.0,0.0,0.0,0.0,0.0,0.0,0.0,0.0,0.0,0.0,0.0,0.0,0.0,0.0,0.0,0.0785,0.0898,0.0898,0.0898,0.0898,0.0898,0.0898,0.0,0.0,0.0,0.0,0.0,0.0,0.0,0.0,0.0,0.3118,0.3675,0.3675,0.3675,0.3752,0.383,0.383,0.4144,0.4924,0.5709,0.618,0.6261,0.6118,0.6118,0.6335,0.6115,0.6122,0.6338,0.6338,0.6176,0.0,0.5878,0.5735,0.5606,0.5392,0.5406,0.5551,0.5535,0.5594,0.5637,0.5637,0.5792,0.5879,0.0,0.0,0.0,0.0,0.0,0.0,0.0,0.0,0.0,0.0,-0.2815,-0.2806,-0.2858,-0.2828,-0.2773,0.0,0.0,0.0,0.0,0.0,0.0,0.0,0.0,0.0,0.0,0.0,0.0,-0.2108,-0.2011,-0.1972,-0.2036,-0.2256,0.0,0.0,0.0,0.0,0.0,0.0,0.0,0.0,0.0,0.0,0.0,0.0,0.0,0.0,-0.2912,-0.2932,0.0,0.0,0.0,0.0,0.0,0.0,0.0,0.0,-0.1983,-0.2044,-0.1813,0.0,-0.1403,-0.1544,-0.1551,0.0,0.0,0.0,0.0,0.0,0.0,0.0,0.0,0.0,0.0,0.0,0.0,0.0,0.0,0.0,0.0,0.0,0.0,0.0,0.0,0.1754,0.2118,0.2743,0.2821,0.3132,0.3752,0.383,0.3908,0.4066,0.43,0.5004,0.6261,0.6224,0.6224,0.6261,0.6224,0.6227,0.6338,0.6338,0.6176,0.6027,0.5989,0.5891,0.5752,0.5678,0.5768,0.5909,0.5868,0.5974,0.6106,0.6106,0.6045,0.5908,0.0,0.0,0.0,0.0,0.0,0.0,0.0,0.0,0.0,0.0,0.0,0.0,0.0,0.0,0.0,0.0,0.0,0.0,0.0,0.0,0.0,0.0,0.0,0.0,0.0,0.0,0.0,0.0,0.0,-0.1584,0.0,0.0,0.0,0.0,0.0,0.0,0.0,0.0,0.0,0.0,-0.2912,0.0,0.0,0.0,0.0,0.0,-0.2912,-0.2912,0.0,-0.2912,-0.2911,-0.2881,0.0,0.0,0.0,0.0,-0.1992,-0.1972,-0.1843,-0.1774,-0.1756,-0.1789,-0.1797,-0.1572,0.0,0.0,0.0,0.0,0.0,0.0,0.0,0.0,0.0,0.0,0.0,0.0,0.0,0.0,0.0,0.0,0.0,0.0,0.0,0.1251,0.1589,0.2199,0.2196,0.2508,0.3132,0.321,0.3366,0.3759,0.3837,0.4226,0.516,0.516,0.516,0.516,0.516,0.516,0.516,0.5553,0.5668,0.5591,0.5832,0.5983,0.5908,0.5908,0.5956,0.6037,0.6108,0.6186,0.6338,0.6338,0.6267,0.6288,0.0,0.0,0.0,0.0,0.0,0.0,0.0,0.0,0.0,0.0,0.0,0.0,0.0,0.0,0.0,0.0,0.0,0.0,0.0,0.0,0.0,0.0,0.0,0.0,0.0,0.0,0.0,0.0,0.0,0.0,0.0,0.0,-0.171,0.0,0.0,0.0,0.0,0.0,0.0,0.0,-0.2779,0.0,0.0,0.0,0.0,0.0,0.0,0.0,0.0,-0.2934,-0.2884,-0.28,-0.2679,0.0,0.0,0.0,0.0,0.0,-0.1794,-0.1741,-0.1685,-0.1685,-0.1685,-0.1459,0.0,0.0,0.0,0.0,0.0,0.0,0.0,0.0,0.0,0.0,0.0,0.0,0.0,0.0,0.0,0.0,0.0,0.0,0.1243,0.1279,0.1451,0.1807,0.1803,0.196,0.2353,0.2431,0.2744,0.345,0.3528,0.3524,0.3519,0.3752,0.391,0.391,0.383,0.383,0.383,0.4533,0.4846,0.4841,0.543,0.0,0.5685,0.5685,0.5761,0.5849,0.6053,0.618,0.6338,0.6338,0.6496,0.6699,0.0,0.0,0.0,0.0,0.0,0.0,0.0,0.0,0.0,0.0,0.0,0.0,0.0,0.0,0.0,0.0,0.0,0.0,0.0,0.0,0.0,0.0,0.0,0.0,0.0,0.0,0.0,0.0,0.0,0.0,-0.0812,-0.0815,-0.0828,-0.0889,0.0,0.0,-0.0853,-0.0403,-0.0313,-0.0581,-0.2243,0.0,0.0,0.0,0.0,0.0,0.0,0.0,0.0,-0.2987,-0.2771,-0.2443,-0.2396,0.0,0.0,0.0,0.0,0.0,-0.1783,-0.1515,-0.1234,-0.1234,-0.1234,-0.0954,0.0,0.0,0.0,0.0,0.0,0.0,0.0,0.0,0.0,0.0,0.0,0.0,0.0,0.0,0.0,0.0,0.0,0.1288,0.119,0.1254,0.129,0.1416,0.1414,0.157,0.196,0.196,0.2038,0.2194,0.2194,0.2194,0.2194,0.36,0.4304,0.4304,0.3988,0.383,0.383,0.3908,0.3986,0.3986,0.0,0.4119,0.4119,0.4119,0.4508,0.5134,0.5151,0.5783,0.6563,0.6338,0.6443,0.657,0.0,0.0,0.0,0.0,0.0,0.0,0.0,0.0,0.0,0.0,0.0,0.0,0.0,0.0,0.0,0.0,0.0,0.0,0.0,0.0,0.0,0.0,0.0,0.0,0.0,0.0,0.0,0.0,0.0,-0.057,-0.0584,-0.0631,-0.0677,-0.0719,0.0,-0.0539,-0.0315,-0.009,-0.0,-0.0089,0.0,0.0,0.0,0.0,0.0,0.0,0.0,0.0,0.0,0.0,-0.277,-0.2498,-0.2248,0.0,0.0,0.0,0.0,0.0,-0.1789,-0.1459,-0.1066,-0.0785,-0.0729,-0.0561,0.0,0.0,0.0,0.0,0.0,0.0,0.0,0.0,0.0,0.0,0.0,0.0,0.0,0.0,0.0,0.0,0.0,0.1259,0.1219,0.1269,0.1451,0.1887,0.1727,0.204,0.2899,0.2666,0.2666,0.2901,0.2901,0.2901,0.2901,0.3448,0.3606,0.337,0.3212,0.3132,0.3132,0.3602,0.3837,0.3837,0.0,0.4455,0.4455,0.4455,0.4691,0.5004,0.5004,0.5315,0.5715,0.5714,0.5787,0.5938,0.0,0.0,0.0,0.0,0.0,0.0,0.0,0.0,0.0,0.0,0.0,0.0,0.0,0.0,0.0,0.0,0.0,0.0,0.0,0.0,0.0,0.0,0.0,0.0,0.0,0.0,-0.0905,-0.0504,-0.0561,-0.0579,-0.0595,-0.0608,-0.0647,0.0,0.0,-0.0315,-0.0,-0.0,-0.0,-0.0,0.0,0.0,0.0,0.0,0.0,0.0,0.0,0.0,0.0,0.0,0.0,0.0,0.0,0.0,0.0,-0.1704,-0.1695,-0.1685,-0.1797,-0.1459,-0.101,-0.0505,0.0,-0.0168,0.028,0.0,0.0,0.0,0.0,0.0,0.0,0.0,0.0,0.0,0.0,0.0,0.0,0.1139,0.1143,0.1183,0.1221,0.1247,0.1256,0.1285,0.1612,0.2278,0.2038,0.243,0.3608,0.3295,0.3297,0.3608,0.3606,0.3606,0.3606,0.3295,0.2982,0.2668,0.2511,0.2511,0.2511,0.3215,0.3528,0.3528,0.4148,0.438,0.438,0.438,0.4535,0.4693,0.4693,0.4849,0.5015,0.519,0.5303,0.5328,0.0,0.0,0.0,0.0,0.0,0.0,0.0,0.0,0.0,0.0,0.0,0.0,0.0,0.0,0.0,0.0,0.0,0.0,0.0,0.0,0.0,0.0,0.0,0.0,0.0,-0.0773,-0.0672,-0.0504,-0.0506,-0.0534,-0.0587,-0.0412,-0.0474,-0.0674,0.0,0.0,-0.0,-0.0,-0.0,-0.0,-0.0,0.0,0.0,0.0,0.0,0.0,0.0,0.0,0.0,0.0,0.0,0.0,0.0,0.0,-0.1171,-0.1599,-0.1421,-0.1234,-0.1685,-0.1459,-0.101,-0.0505,0.0,0.0,0.0729,0.0,0.0,0.0,0.0,0.0,0.0,0.0,0.0,0.0,0.0,0.0,0.1235,0.0,0.1277,0.1254,0.1303,0.1317,0.1262,0.1285,0.145,0.1885,0.1882,0.2275,0.3139,0.3141,0.3141,0.3141,0.3141,0.3141,0.3141,0.3141,0.3062,0.3062,0.2668,0.2511,0.2511,0.2589,0.2588,0.2588,0.2666,0.2666,0.2666,0.2666,0.3136,0.3919,0.3919,0.4307,0.5004,0.5251,0.5255,0.52,0.0,0.0,0.0,0.0,0.0,0.0,0.0,0.0,0.0,0.0,0.0,0.0,0.0,0.0,0.0,0.0,0.0,0.0,0.0,0.0,0.0,0.0,0.0,-0.0808,-0.0875,-0.0739,-0.0649,-0.0571,-0.0469,-0.0481,-0.059,-0.0494,0.0,0.0,0.0,0.0,-0.0,-0.0,-0.0,-0.0,-0.0,-0.0,0.0,0.0,0.0,0.0,0.0,0.0,0.0,0.0,-0.142,-0.1024,0.0,-0.173,-0.1542,-0.1708,-0.1667,-0.1515,-0.1403,-0.101,-0.0561,-0.0112,0.0,0.0,0.0,0.0,0.0,0.0,0.0,0.0,0.0,0.0,0.0,0.0,0.0,0.0,0.1194,0.1227,0.1242,0.123,0.1266,0.1282,0.1338,0.1268,0.1586,0.2198,0.2038,0.2352,0.3452,0.3249,0.3168,0.3528,0.3478,0.3373,0.3373,0.3373,0.3373,0.3375,0.3348,0.3294,0.3294,0.3294,0.3294,0.3294,0.3294,0.3294,0.3294,0.3294,0.3528,0.3763,0.3763,0.3997,0.4229,0.4307,0.4214,0.4046,0.0,0.0,0.0,0.0,0.0,0.0,0.0,0.0,0.0,0.0,0.0,0.0,0.0,0.0,0.0,0.0,0.0,0.0,0.0,0.0,0.0,0.0,0.0,-0.0605,-0.0706,-0.0584,-0.0561,-0.0624,-0.0516,-0.0465,-0.0523,0.0,0.0,0.0,0.0,0.0,0.0,0.0,-0.0,-0.0,-0.0,-0.0,0.0,0.0,0.0,0.0,0.0,0.0,0.0,0.0,-0.1295,0.0,0.0,0.0,0.0,-0.1741,-0.1572,-0.1347,-0.1122,-0.0785,-0.028,0.0,0.0,0.0,0.0,0.0,0.0,0.0,0.0,0.0,0.0,0.0,0.0,0.0,0.1115,0.1149,0.1189,0.1213,0.1226,0.1226,0.1245,0.1254,0.1244,0.1399,0.1703,0.2377,0.2299,0.2682,0.3679,0.3321,0.3317,0.3677,0.362,0.3585,0.3585,0.3585,0.3599,0.3628,0.3689,0.3734,0.3763,0.3763,0.3763,0.3763,0.3763,0.3763,0.3763,0.3763,0.3763,0.3763,0.3763,0.3763,0.3763,0.3763,0.3644,0.3445,0.0,0.0,0.0,0.0,0.0,0.0,0.0,0.0,0.0,0.0,0.0,0.0,0.0,0.0,0.0,0.0,0.0,0.0,0.0,0.0,0.0,0.0,0.0,-0.0303,-0.0303,-0.018,-0.0298,-0.0705,-0.0635,-0.0482,-0.0295,-0.0352,0.0,0.0,0.0,0.0,0.0,0.0,-0.0,-0.0,-0.0,-0.0,-0.009,0.0,0.0,0.0,0.0,0.0,0.0,0.0,-0.0729,-0.1628,0.0,0.0,0.0,-0.1685,-0.1122,-0.0505,-0.0954,-0.0729,0.0,0.0,0.0,0.0,0.0,0.0,0.0,0.0,0.0,0.0,0.0,0.0,0.0,0.1106,0.1146,0.1187,0.1325,0.1335,0.1335,0.1335,0.1335,0.1245,0.1215,0.1515,0.1873,0.2261,0.2693,0.306,0.3499,0.3499,0.3499,0.3499,0.3499,0.3499,0.3499,0.3499,0.354,0.3624,0.3624,0.3673,0.3763,0.3763,0.3763,0.3763,0.3763,0.3763,0.3763,0.3763,0.3763,0.3763,0.3763,0.3763,0.3763,0.3763,0.3763,0.3763,0.0,0.0,0.0,0.0,0.0,0.0,0.0,0.0,0.0,0.0,0.0,0.0,0.0,0.0,0.0,0.0,0.0,0.0,0.0,0.0,0.0,0.0,0.0,0.0,0.0,0.0,-0.0585,-0.0415,-0.0493,-0.0516,0.0,0.0,0.0,-0.0,0.0,0.0,0.0,0.0,-0.0,-0.0,-0.0,-0.0,-0.0045,0.0,0.0,0.0,0.0,0.0,0.0,0.0,0.0,0.0,0.0,0.0,0.0,-0.1741,-0.1628,-0.129,-0.0729,-0.0505,0.0,0.0,0.0,0.0,0.0,0.0,0.0,0.0,0.0,0.0,0.0,0.0,0.0,0.1088,0.1114,0.1141,0.1159,0.118,0.1194,0.1194,0.1212,0.1298,0.1516,0.164,0.1985,0.2695,0.284,0.306,0.3499,0.344,0.3434,0.3497,0.3438,0.3405,0.3405,0.3405,0.3418,0.3442,0.3442,0.3554,0.3761,0.3697,0.3701,0.3761,0.3695,0.3703,0.3763,0.3763,0.3763,0.3763,0.3763,0.3763,0.3763,0.3763,0.3608,0.3295,0.0,0.0,0.0,0.0,0.0,0.0,0.0,0.0,0.0,0.0,0.0,0.0,0.0,0.0,0.0,0.0,0.0,0.0,0.0,0.0,0.0,0.0,0.0,0.0,0.0,-0.0698,-0.0585,0.0,0.0,0.0,0.0,0.0,0.0,-0.0,0.0,-0.0,0.0,0.0,-0.0,-0.0,-0.0,-0.0,-0.0,0.0,0.0,0.0,0.0,0.0,0.0,0.0,0.0,0.0,0.0,0.0,0.0,-0.1572,-0.1403,-0.1066,-0.0336,0.0,0.0,0.0,0.0,0.0,0.0,0.0,0.0,0.0,0.0,0.0,0.0,0.1082,0.0,0.1093,0.1109,0.1125,0.1138,0.1155,0.1239,0.1386,0.1404,0.1412,0.1471,0.1594,0.1779,0.1948,0.2105,0.232,0.2504,0.2489,0.2499,0.2541,0.2502,0.2481,0.2481,0.2481,0.2495,0.2522,0.2522,0.2597,0.2814,0.3298,0.3624,0.3703,0.3614,0.3607,0.3658,0.3658,0.3658,0.3663,0.3695,0.3707,0.3714,0.375,0.3608,0.3374,0.0,0.0,0.0,0.0,0.0,0.0,0.0,0.0,0.0,0.0,0.0,0.0,0.0,0.0,0.0,0.0,0.0,0.0,0.0,0.0,0.0,0.0,0.0,0.0,0.0,0.0,0.0,0.0,0.0,0.0,0.0,0.0,-0.027,-0.0,0.0,-0.0,0.0,0.0,-0.0,-0.0,-0.0,-0.0,-0.0,-0.0,0.0,0.0,0.0,0.0,0.0,0.0,0.0,0.0,0.0,0.0,-0.1741,-0.129,-0.0842,-0.0393,0.0,0.0,0.0,0.0,0.0,0.0,0.0,0.0,0.0,0.0,0.0,0.0,0.0,0.1061,0.1062,0.1113,0.1121,0.1131,0.123,0.1235,0.138,0.1671,0.1744,0.1582,0.119,0.1463,0.1429,0.0708,0.092,0.1121,0.1091,0.1118,0.1136,0.1072,0.1072,0.1073,0.1076,0.1076,0.1156,0.1182,0.1185,0.1201,0.1372,0.2682,0.3381,0.3448,0.353,0.3499,0.3499,0.3499,0.3499,0.3507,0.3593,0.3626,0.3638,0.373,0.3763,0.3763,0.0,0.0,0.0,0.0,0.0,0.0,0.0,0.0,0.0,0.0,0.0,0.0,0.0,0.0,0.0,0.0,0.0,0.0,0.0,0.0,0.0,0.0,0.0,0.0,0.0,0.0,0.0,0.0,0.0,0.0,0.0,0.0,0.0,-0.0,0.0,-0.0,0.0,0.0,-0.0,-0.0,-0.0,-0.0,-0.0,-0.0,-0.0,0.0,0.0,0.0,0.0,0.0,0.0,0.0,-0.2411,-0.2189,-0.1797,-0.1685,-0.1291,-0.0842,0.0,0.0,0.0,0.0,0.0,0.0,0.0,0.0,0.0,0.0,0.0,0.0,0.0,0.1126,0.1134,0.1123,0.1121,0.1194,0.1554,0.1626,0.1697,0.2051,0.2122,0.1959,0.1633,0.1663,0.1553,0.1122,0.1126,0.119,0.1182,0.1189,0.1143,0.1104,0.1105,0.1117,0.1075,0.1076,0.1133,0.1116,0.1141,0.1157,0.1301,0.154,0.1983,0.2635,0.3258,0.3499,0.3499,0.3499,0.3499,0.3507,0.3593,0.3626,0.3638,0.373,0.3763,0.3763,0.0,0.0,0.0,0.0,0.0,0.0,0.0,0.0,0.0,0.0,0.0,0.0,0.0,0.0,0.0,0.0,0.0,0.0,0.0,0.0,0.0,0.0,0.0,0.0,0.0,0.0,0.0,0.0,0.0,0.0,0.0,0.0,0.0,-0.0225,0.0,-0.0,0.0,0.0,-0.0,-0.0,-0.0,-0.0,-0.0,-0.0,-0.0,-0.0,-0.0,0.0,0.0,0.0,0.0,0.0,0.0,0.0,-0.1741,-0.1515,-0.1291,-0.0954,0.0,0.0,0.0,0.0,0.0,0.0,0.0,0.0,0.0,0.0,0.0,0.0,0.1057,0.1203,0.1276,0.1257,0.1386,0.1518,0.1518,0.1584,0.165,0.1849,0.1849,0.1641,0.1099,0.1018,0.0747,-0.0,-0.0061,-0.0,0.006,0.0061,0.0063,0.0064,0.0064,0.0064,0.0066,0.0065,0.0064,0.0063,0.0064,0.0129,0.0194,0.0944,0.1648,0.2263,0.2682,0.3029,0.3307,0.335,0.3344,0.3318,0.3448,0.3528,0.3577,0.3665,0.3726,0.3763,0.0,0.0,0.0,0.0,0.0,0.0,0.0,0.0,0.0,0.0,0.0,0.0,0.0,0.0,0.0,0.0,0.0,0.0,0.0,0.0,0.0,0.0,0.0,0.0,0.0,0.0,0.0,0.0,0.0,0.0,0.0,0.0,0.0,-0.0539,0.0,0.0,0.0,0.0,0.0,-0.0,-0.0,-0.0,-0.0,-0.0,-0.0,-0.0,-0.0,-0.0,-0.0,-0.0,0.0,0.0,0.0,0.0,-0.1796,-0.1347,-0.1178,-0.0954,0.0,0.0,0.0,0.0,0.0,0.0,0.0,0.0,0.0,0.0,0.0,0.0,0.1049,0.1233,0.1417,0.1478,0.1663,0.1725,0.1417,0.1354,0.1354,0.1355,0.1355,0.1044,0.0244,0.0183,-0.0241,-0.1289,-0.1378,-0.1323,-0.1171,-0.1199,-0.111,-0.1017,-0.0994,-0.0995,-0.1026,-0.1001,-0.0986,-0.0981,-0.0981,-0.0983,-0.099,0.0258,0.1252,0.1849,0.1938,0.2238,0.2753,0.2768,0.2763,0.2849,0.3016,0.3195,0.327,0.3348,0.3509,0.3583,0.0,0.0,0.0,0.0,0.0,0.0,0.0,0.0,0.0,0.0,0.0,0.0,0.0,0.0,0.0,0.0,0.0,0.0,-0.1607,0.0,0.0,-0.111,-0.111,-0.1043,0.0,0.0,0.0,0.0,0.0,0.0,0.0,0.0,0.0,-0.0674,0.0,0.0,0.0,0.0,0.0,0.0,0.0,0.0,-0.0,-0.0,-0.0,-0.0,-0.0,-0.0,-0.0,-0.0,-0.084,0.0,0.0,0.0,-0.2073,-0.1796,-0.1403,-0.1066,0.0,0.0,0.0,0.0,0.0,0.0,0.0,0.0,0.0,0.0,0.0,0.0617,0.1232,0.1355,0.1478,0.1787,0.1601,0.1417,0.1354,0.1108,0.0923,0.08,0.08,0.0548,-0.0178,-0.0236,-0.0525,-0.1245,-0.1305,-0.1249,-0.113,-0.1134,-0.1039,-0.0895,-0.0891,-0.0963,-0.0994,-0.099,-0.0975,-0.089,-0.089,-0.1023,-0.1173,-0.0969,-0.0426,0.0374,0.0744,0.1115,0.1427,0.1087,0.1292,0.1878,0.1779,0.2034,0.2476,0.2537,0.2601,0.2735,0.0,0.0,0.0,0.0,0.0,0.0,0.0,0.0,0.0,0.0,0.0,0.0,0.0,0.0,0.0,-0.2004,-0.1947,-0.178,-0.1444,-0.1211,-0.111,-0.111,-0.111,-0.1059,-0.0951,0.0,0.0,0.0,0.0,0.0,0.0,-0.0719,-0.0719,0.0,0.0,0.0,0.0,0.0,0.0,0.0,0.0,0.0,0.0,0.0,-0.0,-0.0,-0.0,-0.0,-0.0,-0.0,-0.0784,-0.1959,-0.2805,0.0,0.0,0.0,-0.1794,0.0,0.0,0.0,0.0,0.0,0.0,0.0,0.0,0.0,0.0,0.0,-0.0517,-0.0117,0.0819,0.1169,0.1343,0.146,0.146,0.1286,0.0643,0.0468,0.0351,0.0234,0.0117,-0.0116,-0.0573,-0.0687,-0.0968,-0.1518,-0.1572,-0.1459,-0.1234,-0.1234,-0.114,-0.0883,-0.0926,-0.0932,-0.0962,-0.0946,-0.093,-0.0917,-0.0975,-0.104,-0.1171,-0.1328,-0.0942,-0.0184,0.006,0.042,0.0842,0.0744,0.0808,0.1108,0.1372,0.162,0.1924,0.226,0.2391,0.2443,0.0,0.0,0.0,0.0,0.0,0.0,0.0,0.0,0.0,0.0,0.0,0.0,0.0,0.0,0.0,0.0,-0.2065,-0.1912,-0.1375,-0.1221,-0.1152,-0.1134,-0.1134,-0.1093,-0.1078,0.0,0.0,0.0,0.0,0.0,-0.0719,-0.0719,-0.0723,0.0,-0.0731,0.0,0.0,0.0,0.0,0.0,0.0,0.0,0.0,0.0,-0.0,-0.0,-0.0,-0.0,-0.0,-0.0,-0.0784,-0.2015,-0.32,-0.3086,0.0,0.0,0.0,0.0,0.0,0.0,0.0,0.0,0.0,0.0,0.0,0.0,0.0,0.0,-0.101,-0.0673,0.028,0.0784,0.1063,0.1006,0.1119,0.0896,-0.0056,-0.0224,-0.0336,-0.0561,-0.0673,-0.0842,-0.1122,-0.1234,-0.1403,-0.1797,-0.1797,-0.1685,-0.1403,-0.1347,-0.1192,-0.093,-0.0909,-0.0909,-0.0873,-0.0909,-0.0898,-0.0954,-0.1066,-0.1122,-0.1234,-0.1459,-0.1267,-0.0781,-0.0704,-0.0406,0.0116,0.006,0.012,0.0237,0.0566,0.0849,0.1135,0.1442,0.1693,0.1874,0.0,0.0,0.0,0.0,0.0,0.0,0.0,0.0,0.0,0.0,0.0,0.0,-0.3195,-0.3396,-0.3184,-0.2353,-0.2568,-0.24,-0.1561,-0.1349,-0.1276,-0.1197,-0.12,0.0,-0.1291,0.0,0.0,0.0,0.0,0.0,-0.0719,-0.0719,-0.0735,-0.081,-0.081,-0.081,-0.0812,0.0,0.0,0.0,0.0,0.0,0.0,0.0,0.0,0.0,0.0,-0.0,-0.0,-0.0,-0.0784,-0.2015,-0.32,-0.3365,-0.2963,0.0,0.0,0.0,0.0,0.0,0.0,0.0,0.0,0.0,0.0,0.0,0.0,0.0,-0.1403,-0.1066,-0.028,0.0168,0.0504,0.0671,0.0448,0.0056,-0.0559,-0.0896,-0.1234,-0.1685,-0.1741,-0.1741,-0.1741,-0.1741,-0.1797,-0.1797,-0.1797,-0.1741,-0.1572,-0.1403,-0.1235,-0.1069,-0.0955,-0.0898,-0.09,-0.0898,-0.0954,-0.1066,-0.1122,-0.129,-0.1572,-0.1572,-0.1631,-0.1749,-0.1746,-0.1519,-0.1241,-0.1629,-0.1414,-0.083,-0.107,-0.0837,-0.0324,-0.0333,-0.0,0.0491,0.0,0.0,0.0,0.0,0.0,0.0,0.0,0.0,0.0,0.0,0.0,0.0,0.0,-0.3992,-0.3701,-0.2815,-0.2555,-0.2296,-0.1988,-0.1653,-0.15,-0.1451,-0.1339,-0.1293,-0.1311,0.0,0.0,0.0,0.0,-0.0862,-0.081,-0.0719,-0.0725,-0.0735,-0.0735,-0.0757,-0.0791,-0.0783,0.0,0.0,0.0,0.0,0.0,0.0,0.0,0.0,0.0,0.0,0.0,-0.1797,-0.2076,-0.2014,-0.3195,-0.336,-0.2963,-0.235,-0.2128,0.0,0.0,0.0,0.0,0.0,0.0,0.0,0.0,0.0,0.0,-0.1459,-0.1347,-0.1178,-0.0729,-0.028,-0.0,-0.0,-0.0224,-0.0615,-0.1289,-0.1514,-0.1572,-0.1685,-0.1685,-0.1685,-0.1685,-0.1685,-0.1685,-0.1797,-0.1797,-0.1741,-0.1628,-0.1403,-0.1234,-0.1122,-0.0954,-0.0954,-0.101,-0.101,-0.1122,-0.1234,-0.1347,-0.1459,-0.1628,-0.1685,-0.1741,-0.1797,-0.1797,-0.1741,-0.163,-0.1762,-0.1713,-0.1437,-0.1285,-0.1126,-0.0881,-0.0594,-0.0406,-0.0136,0.0,0.0,0.0,0.0,0.0,0.0,0.0,0.0,0.0,0.0,0.0,0.0,0.0,0.0,-0.4235,-0.3552,-0.2898,-0.259,-0.2637,-0.2327,-0.2047,-0.1801,-0.1685,-0.1518,-0.1329,0.0,0.0,0.0,0.0,0.0,0.0,-0.081,-0.0771,-0.0734,-0.0724,-0.0752,0.0,0.0,0.0,-0.0596,0.0,0.0,-0.0,0.0,0.0,0.0,0.0,0.0,0.0,0.0,-0.2749,-0.2517,-0.3357,-0.3357,-0.3019,-0.2629,-0.235,0.0,-0.1962,0.0,0.0,0.0,0.0,0.0,0.0,0.0,0.0,-0.1459,-0.1403,-0.1347,-0.1066,-0.0842,-0.0673,-0.0673,-0.0896,-0.1176,-0.1684,-0.1741,-0.1685,-0.1515,-0.1515,-0.1515,-0.1572,-0.1572,-0.1629,-0.1797,-0.1797,0.0,-0.1685,-0.1459,-0.1234,-0.1122,-0.101,-0.101,-0.1178,-0.1178,-0.1234,-0.1403,-0.1515,-0.1628,-0.1685,-0.1741,-0.1797,-0.1797,-0.1797,-0.1797,-0.1797,-0.1797,-0.1797,-0.1753,-0.1565,-0.1478,-0.1426,-0.1185,-0.0941,-0.0739,0.0,0.0,0.0,0.0,0.0,0.0,0.0,0.0,0.0,-0.5937,0.0,0.0,0.0,0.0,0.0,-0.4451,-0.3721,-0.3389,-0.3522,-0.3374,-0.3,-0.2259,-0.2222,-0.197,-0.1477,0.0,0.0,0.0,0.0,0.0,0.0,0.0,-0.0919,0.0,-0.0779,-0.08,-0.0809,0.0,-0.0923,-0.0898,0.0,-0.0561,-0.0,0.0,0.0,0.0,-0.2757,-0.3613,0.0,-0.2242,0.0,0.0,0.0,0.0,-0.313,-0.313,-0.2685,0.0,0.0,0.0,0.0,0.0,0.0,0.0,0.0,0.0,0.0,-0.1628,-0.1572,-0.1515,-0.1347,-0.1459,-0.1515,-0.1347,-0.1459,-0.1628,-0.1628,-0.1628,-0.1515,-0.1347,-0.1291,-0.1403,-0.1572,-0.1628,-0.1629,-0.1797,-0.1797,-0.1797,-0.1797,-0.1515,-0.1234,-0.1122,-0.1122,-0.1178,-0.1291,-0.1291,-0.1403,-0.1628,-0.1628,-0.1685,-0.1797,-0.1797,-0.1797,-0.1797,-0.1797,-0.1797,-0.1797,-0.1797,-0.1797,-0.1809,-0.1926,-0.1971,-0.1986,-0.2175,-0.1817,-0.1344,0.0,0.0,0.0,0.0,0.0,0.0,-0.5857,-0.6117,-0.6397,0.0,0.0,0.0,-0.602,-0.5119,-0.4543,-0.4412,-0.3971,-0.3753,-0.3803,-0.3638,-0.337,-0.306,-0.2892,-0.269,-0.2499,0.0,0.0,0.0,0.0,0.0,0.0,0.0,0.0,0.0,-0.1903,-0.1685,-0.1263,-0.0969,0.0,0.0,-0.0898,-0.0673,0.0,0.0,0.0,0.0,0.0,-0.3607,-0.3543,0.0,-0.3304,-0.3585,0.0,0.0,0.0,0.0,0.0,0.0,-0.2633,0.0,0.0,0.0,0.0,0.0,0.0,0.0,0.0,-0.1628,-0.1572,-0.1515,-0.1347,-0.1459,-0.1572,-0.1515,-0.1629,-0.1741,-0.1741,-0.1741,-0.1741,-0.1685,-0.1572,-0.1572,-0.1741,-0.1685,-0.1629,0.0,-0.1797,-0.1797,-0.1797,-0.1628,-0.1459,-0.1234,-0.1234,-0.1347,-0.1515,-0.1515,-0.1572,-0.1741,-0.1741,-0.1741,-0.1797,-0.1797,-0.1797,-0.1797,-0.1797,-0.1797,-0.1797,-0.1797,-0.1797,-0.1809,-0.1926,-0.1971,-0.1986,-0.2175,-0.2087,-0.1884,0.0,0.0,0.0,0.0,0.0,-0.6342,-0.6506,-0.6796,-0.704,0.0,0.0,0.0,-0.6136,-0.5404,-0.4888,-0.4675,-0.4456,-0.4368,-0.4368,-0.4232,-0.4005,-0.3646,-0.347,-0.3233,-0.2973,0.0,0.0,0.0,0.0,0.0,0.0,0.0,0.0,0.0,0.0,0.0,0.0,0.0,0.0,0.0,-0.0898,0.0,0.0,-0.1347,-0.2077,0.0,0.0,0.0,-0.3591,-0.3585,-0.3585,0.0,0.0,0.0,0.0,0.0,0.0,0.0,0.0,0.0,0.0,0.0,0.0,0.0,-0.1964,-0.1852,-0.1797,0.0,-0.1685,-0.1629,-0.1515,-0.1628,-0.1685,-0.1685,-0.1741,-0.1797,-0.1741,-0.1741,-0.1685,-0.1628,-0.1515,-0.1515,-0.1685,-0.1629,-0.1629,-0.1797,-0.1797,-0.1797,-0.1741,-0.1629,-0.1572,-0.1403,-0.1403,-0.1515,-0.1685,-0.1685,-0.1741,-0.1797,-0.1797,-0.1797,-0.1797,-0.1797,-0.1797,-0.1797,-0.1797,-0.1797,-0.1797,-0.1797,-0.1797,-0.1809,-0.1926,-0.1971,-0.1986,-0.2175,-0.2221,-0.2154,0.0,0.0,0.0,-0.676,-0.684,-0.6975,-0.7309,-0.7589,-0.781,0.0,-0.7603,-0.7112,-0.6085,-0.5874,-0.5674,-0.5228,-0.51,-0.5056,-0.5056,-0.5056,-0.4781,-0.4095,-0.405,-0.3799,-0.3316,-0.3157,0.0,0.0,0.0,0.0,0.0,0.0,0.0,0.0,0.0,0.0,0.0,0.0,0.0,-0.1121,-0.1065,-0.1234,0.0,0.0,-0.2923,-0.2125,-0.319,-0.3585,-0.3638,-0.3638,-0.3638,0.0,0.0,0.0,0.0,0.0,-0.3413,0.0,0.0,0.0,0.0,0.0,0.0,0.0,-0.224,-0.2076,-0.1909,0.0,-0.1853,-0.1853,-0.1797,-0.1797,-0.1853,-0.1797,-0.1797,-0.1741,-0.1629,-0.1628,-0.1572,-0.1403,-0.1347,-0.1403,-0.1628,-0.1628,-0.1685,-0.1797,-0.1797,-0.1741,-0.1628,-0.1628,-0.1628,-0.1628,-0.1628,-0.1685,-0.1797,-0.1797,-0.1797,-0.1797,-0.1797,-0.1797,-0.1797,-0.1797,-0.1797,-0.1797,-0.1797,-0.1797,-0.1797,-0.1797,-0.1797,-0.1809,-0.1926,-0.1971,-0.1986,-0.2175,-0.2221,-0.2221,0.0,0.0,-0.6729,-0.68,-0.703,-0.7324,-0.7636,-0.7747,-0.7897,-0.8238,-0.7792,-0.7334,-0.7178,-0.6439,-0.607,-0.636,-0.5816,-0.5486,-0.5486,-0.5486,-0.5385,-0.5136,-0.4996,-0.4801,-0.4493,-0.4272,-0.4183,0.0,0.0,0.0,0.0,0.0,0.0,0.0,0.0,0.0,0.0,0.0,0.0,-0.2347,-0.2015,0.0,-0.1628,-0.3091,-0.3482,-0.3302,-0.3527,-0.3694,-0.3799,-0.3913,-0.3805,-0.3638,0.0,0.0,0.0,-0.3585,0.0,0.0,0.0,0.0,0.0,0.0,0.0,0.0,-0.2577,-0.2579,-0.2467,0.0,-0.2354,-0.2355,-0.1909,-0.1964,-0.2074,-0.1853,-0.1797,-0.1797,-0.1741,-0.1741,-0.1741,-0.1685,-0.1685,-0.1741,-0.1741,-0.1741,-0.1797,-0.1797,-0.1797,-0.1797,-0.1741,-0.1741,-0.1741,-0.1741,-0.1741,-0.1797,-0.1797,-0.1797,-0.1797,-0.1797,-0.1797,-0.1797,-0.1797,-0.1797,-0.1797,-0.1797,-0.1797,-0.1797,-0.1797,-0.1797,-0.1797,-0.1809,-0.1926,-0.1971,-0.1986,-0.2175,-0.2221,-0.2221,0.0,0.0,-0.709,-0.7271,-0.7448,-0.769,-0.8047,-0.8103,-0.823,-0.8588,-0.8338,-0.8047,-0.7753,-0.7108,-0.6552,-0.6231,-0.5881,-0.5569,-0.5301,-0.5391,-0.54,-0.5257,-0.5304,-0.5211,-0.5063,-0.4868,-0.4771,-0.4812,0.0,0.0,0.0,0.0,0.0,0.0,0.0,0.0,0.0,0.0,-0.3014,-0.2736,-0.2291,0.0,-0.2577,-0.3535,-0.3869,-0.3802,-0.3802,-0.3858,-0.391,-0.3965,-0.3913,0.0,0.0,-0.3855,-0.3802,0.0,-0.3691,-0.3691,0.0,0.0,0.0,-0.3357,0.0,0.0,0.0,-0.28,-0.2635,-0.2465,-0.2577,-0.2635,-0.23,-0.2242,-0.2128,-0.2018,-0.1908,-0.1797,-0.1797,-0.1797,-0.1797,-0.1797,-0.1797,-0.1797,-0.1797,-0.1797,-0.1797,-0.1797,-0.1797,-0.1797,-0.1797,-0.1797,-0.1797,-0.1797,-0.1797,-0.1797,-0.1797,-0.1797,-0.1797,-0.1797,-0.1797,-0.1797,-0.1797,-0.1797,-0.1797,-0.1797,-0.1964,-0.2018,-0.2018,-0.2188,-0.2244,-0.2255,-0.201,-0.2067,-0.2233,-0.2335,-0.2462,-0.2559,-0.7638,0.0,0.0,-0.7999,-0.8102,-0.822,-0.8488,-0.8537,-0.8601,-0.8762,-0.8802,-0.8601,-0.8114,0.0,0.0,-0.6226,-0.6052,-0.5863,-0.5475,-0.5676,-0.5706,-0.5476,-0.5628,-0.5576,-0.5401,-0.5195,-0.5086,-0.5136,0.0,0.0,0.0,0.0,0.0,0.0,0.0,0.0,0.0,0.0,0.0,-0.3183,0.0,-0.2903,-0.3471,-0.3981,-0.4144,-0.4024,-0.4024,-0.4024,-0.4024,-0.4079,-0.4076,-0.4024,-0.4024,-0.4024,0.0,0.0,0.0,0.0,0.0,0.0,0.0,0.0,0.0,-0.3241,0.0,0.0,0.0,-0.28,-0.2802,0.0,0.0,0.0,0.0,0.0,0.0,0.0,0.0,-0.1852,0.0,-0.1797,-0.1797,-0.1797,-0.1797,-0.1797,-0.1797,-0.1797,-0.1797,-0.1797,-0.1797,-0.1797,-0.1797,-0.1797,-0.1797,-0.1797,-0.1797,-0.1797,-0.1853,-0.1852,-0.1852,-0.1908,-0.1965,-0.1965,-0.1965,-0.1965,-0.2186,-0.2296,-0.2296,-0.2577,-0.2691,-0.2643,-0.2264,-0.2277,-0.26,-0.2679,-0.2761,-0.2898,-0.8938,-0.8875,0.0,0.0,-0.9203,-0.9297,-0.8967,-0.8935,-0.883,-0.8511,-0.8354,0.0,0.0,0.0,0.0,0.0,0.0,0.0,-0.7145,-0.7435,-0.7378,-0.6913,-0.677,-0.6385,-0.5666,-0.5526,-0.5371,-0.5297,-0.5052,0.0,0.0,0.0,0.0,0.0,-0.4922,0.0,0.0,0.0,-0.4294,0.0,-0.4239,-0.3907,0.0,-0.3971,-0.4138,-0.4024,-0.4138,-0.4079,-0.4021,0.0,-0.4242,-0.4024,0.0,-0.4079,-0.4021,-0.3965,0.0,0.0,0.0,0.0,0.0,0.0,-0.3741,0.0,0.0,0.0,-0.3416,-0.3132,0.0,0.0,0.0,0.0,0.0,0.0,0.0,0.0,-0.2184,-0.2128,-0.2074,-0.1853,-0.1797,-0.1797,-0.1797,-0.1797,-0.1797,-0.1797,-0.1797,-0.1797,-0.1797,-0.1797,-0.1797,-0.1797,-0.1797,-0.1797,-0.1797,-0.1797,-0.1908,-0.2128,-0.2128,-0.2298,-0.2579,-0.2579,-0.2579,-0.2579,-0.2635,-0.2635,-0.2635,-0.2691,-0.2691,-0.2699,-0.2725,-0.2813,-0.2966,-0.2929,-0.2954,-0.2898,-0.9477,-0.9371,0.0,0.0,-0.9506,-0.9621,-0.9744,-0.9724,-0.9658,-0.9485,-0.8966,0.0,0.0,0.0,0.0,0.0,0.0,-0.7222,0.0,0.0,-0.7443,-0.739,-0.7423,-0.7132,-0.6405,-0.6347,-0.6086,-0.5569,-0.5483,-0.5417,0.0,0.0,0.0,0.0,-0.5023,0.0,-0.4897,0.0,-0.4632,0.0,0.0,0.0,0.0,-0.4298,-0.4353,-0.4311,-0.4452,-0.4429,-0.4311,0.0,-0.4482,0.0,0.0,0.0,0.0,0.0,0.0,0.0,0.0,0.0,0.0,0.0,0.0,0.0,-0.3747,0.0,-0.3633,0.0,0.0,0.0,0.0,0.0,0.0,0.0,-0.28,0.0,0.0,0.0,-0.2073,0.0,0.0,0.0,-0.1797,-0.1797,-0.1797,-0.1797,-0.1797,-0.1797,-0.1797,-0.1797,-0.1797,-0.1797,-0.1797,-0.1797,-0.1797,-0.1964,-0.2074,-0.2184,-0.2408,-0.2577,-0.2691,-0.2691,-0.2691,-0.2691,-0.2856,-0.291,-0.2965,-0.3137,-0.3249,-0.3198,-0.3239,-0.3205,-0.3188,-0.3102,-0.3394,-0.3558,0.0,0.0,0.0,0.0,0.0,-1.0167,-1.0271,0.0,0.0,0.0,0.0,0.0,-0.8567,-0.8392,0.0,0.0,-0.7559,-0.7531,0.0,0.0,-0.7732,-0.7785,-0.7995,0.0,-0.7176,-0.7176,-0.6912,-0.6332,-0.6168,-0.5932,0.0,0.0,0.0,0.0,0.0,-0.5069,-0.4956,0.0,0.0,-0.4688,-0.4574,-0.4519,-0.4519,-0.4519,-0.4543,-0.4594,-0.465,-0.4619,-0.4548,-0.4701,-0.4623,0.0,-0.4567,0.0,-0.4484,0.0,0.0,0.0,-0.4483,0.0,0.0,0.0,0.0,0.0,0.0,0.0,0.0,0.0,0.0,0.0,0.0,0.0,0.0,-0.3244,0.0,-0.2914,0.0,-0.2575,0.0,0.0,0.0,0.0,0.0,-0.1797,-0.1797,-0.1797,-0.1797,-0.1797,-0.1797,-0.1797,-0.1797,-0.1797,-0.1797,-0.1853,-0.1908,-0.2128,-0.2294,-0.2462,-0.2687,-0.2856,-0.297,-0.297,-0.297,-0.297,-0.3135,-0.3244,-0.3244,-0.3527,-0.3585,-0.3585,-0.3585,-0.3486,-0.3367,-0.335,-0.3793,-0.4132,-1.1643,-1.1178,0.0,0.0,0.0,0.0,0.0,0.0,0.0,0.0,0.0,0.0,0.0,0.0,0.0,0.0,0.0,-0.8663,-0.8623,0.0,-0.8898,0.0,0.0,-0.8508,0.0,-0.7871,-0.7771,-0.7616,-0.7128,-0.6745,0.0,0.0,0.0,0.0,0.0,-0.5242,-0.5069,-0.4798,-0.4691,-0.4688,-0.4574,-0.4519,-0.4519,0.0,-0.4555,-0.4684,-0.4687,0.0,0.0,-0.486,-0.4711,0.0,0.0,0.0,0.0,0.0,0.0,0.0,0.0,0.0,0.0,-0.4477,0.0,0.0,0.0,0.0,-0.3744,0.0,0.0,0.0,0.0,0.0,-0.3583,-0.3583,-0.3583,0.0,0.0,0.0,0.0,0.0,0.0,0.0,0.0,-0.1797,-0.1797,-0.1797,-0.1797,-0.1797,-0.1797,-0.1797,-0.1797,-0.1797,-0.1797,-0.1908,-0.2183,-0.2184,-0.2517,-0.3074,-0.3074,-0.3244,-0.3583,-0.3583,-0.3583,-0.3583,-0.3583,-0.3583,-0.3583,-0.3585,-0.3585,-0.3585,-0.3585,-0.3605,-0.3613,-0.3721,-0.398,-0.4322,0.0,0.0,0.0,0.0,0.0,0.0,0.0,-1.0498,0.0,0.0,0.0,0.0,0.0,-0.9278,-0.9087,0.0,0.0,-0.9103,-0.9137,-0.9256,0.0,0.0,0.0,-0.9093,0.0,-0.8508,-0.8296,-0.7824,-0.7658,0.0,0.0,0.0,0.0,0.0,0.0,-0.5407,0.0,0.0,0.0,0.0,0.0,-0.4632,-0.4643,0.0,-0.4646,-0.4718,-0.4911,-0.4921,0.0,-0.5009,-0.486,-0.4623,-0.4674,-0.4585,-0.4536,-0.4582,-0.4597,-0.4573,0.0,0.0,-0.4497,-0.4592,0.0,0.0,0.0,0.0,0.0,0.0,0.0,0.0,0.0,0.0,-0.3585,-0.3585,-0.3585,-0.3583,0.0,0.0,0.0,0.0,0.0,0.0,0.0,0.0,-0.23,-0.2074,-0.2242,-0.23,-0.2074,-0.2074,-0.2074,-0.2074,-0.2074,-0.2242,-0.2521,-0.2687,-0.2907,-0.313,-0.3302,-0.3471,-0.3585,-0.3585,-0.3585,-0.3585,-0.3585,-0.3585,-0.3591,-0.3721,-0.3651,-0.3599,-0.3704,-0.3186,-0.2493,-0.3383,-0.3743,-0.3621,-1.2027,0.0,0.0,0.0,0.0,0.0,0.0,0.0,0.0,0.0,-1.0471,0.0,-1.0401,0.0,-0.9768,0.0,-0.9463,-0.9326,-0.935,-0.9323,0.0,-0.9453,-0.9555,0.0,0.0,0.0,0.0,0.0,0.0,-0.8088,0.0,0.0,0.0,0.0,0.0,-0.6105,-0.5673,0.0,-0.5285,0.0,0.0,-0.4794,0.0,0.0,-0.4807,-0.4721,0.0,-0.4996,-0.4942,-0.5084,-0.4935,-0.4691,-0.4691,-0.4585,-0.4536,-0.4579,-0.4594,-0.4573,-0.4769,-0.4653,0.0,-0.4653,-0.465,0.0,-0.4154,0.0,-0.4131,0.0,0.0,0.0,0.0,0.0,-0.3638,-0.3635,-0.3638,-0.3585,0.0,-0.3413,0.0,0.0,0.0,0.0,0.0,-0.2577,-0.2635,-0.2408,-0.2577,-0.2577,0.0,-0.2352,-0.2352,-0.2352,-0.2352,-0.2521,-0.2856,-0.3021,-0.3188,-0.3299,-0.3471,-0.3585,-0.3585,-0.3585,-0.3585,-0.3585,-0.3585,-0.3663,-0.3764,-0.384,-0.3854,-0.3842,-0.3517,-0.304,-0.2507,-0.3328,-0.3073,-0.2104,0.0,0.0,0.0,0.0,-1.2554,0.0,0.0,0.0,-1.0904,0.0,-1.082,-1.1081,-1.1081,-1.0795,-1.0553,-1.0408,-0.9847,-0.946,-0.9269,-0.9254,0.0,0.0,-0.9468,-0.9614,-0.9614,0.0,0.0,0.0,0.0,0.0,0.0,0.0,0.0,0.0,-0.7559,0.0,-0.6465,-0.6312,-0.5832,-0.5179,-0.5066,-0.5007,-0.4971,-0.5076,-0.4966,-0.4701,-0.486,-0.4921,-0.4948,-0.5077,-0.4935,-0.4701,-0.4694,-0.4585,-0.4519,-0.4519,-0.4519,-0.4549,-0.464,-0.4572,-0.4553,-0.4643,-0.4575,0.0,0.0,0.0,-0.42,0.0,0.0,0.0,0.0,0.0,0.0,-0.3796,-0.3691,-0.3585,-0.3585,0.0,-0.3585,0.0,0.0,0.0,0.0,-0.2747,-0.2747,-0.2747,-0.2747,-0.2747,0.0,-0.2747,-0.2747,-0.2747,-0.2747,-0.2856,-0.313,-0.313,-0.3299,-0.3585,-0.3585,-0.3585,-0.3585,-0.3585,-0.3641,-0.3641,-0.3646,-0.3769,-0.3993,-0.4004,-0.4201,-0.4311,-0.321,-0.3088,-0.3434,-0.3434,-0.1975,-0.0,-1.2534,-1.2668,-1.2793,0.0,-1.2559,-1.2269,0.0,0.0,0.0,0.0,-1.2041,-1.2025,-1.2301,-1.2224,-1.1926,-1.1438,-1.1335,0.0,0.0,0.0,0.0,-0.9504,-0.957,-0.9614,-0.9614,-0.9614,-0.9614,-0.9614,0.0,0.0,-0.9233,0.0,0.0,0.0,0.0,0.0,-0.7224,-0.7069,-0.6858,-0.6593,-0.6421,-0.61,-0.5732,0.0,-0.5294,-0.4889,-0.4995,-0.5171,-0.5258,-0.4999,-0.4921,-0.484,-0.4724,-0.4585,-0.4519,-0.4519,-0.4519,-0.4525,-0.4567,-0.4546,-0.4525,-0.4567,-0.4575,-0.4545,0.0,0.0,0.0,0.0,0.0,0.0,0.0,0.0,0.0,0.0,0.0,0.0,0.0,0.0,0.0,-0.3585,0.0,-0.3249,-0.3021,-0.3249,-0.3249,-0.3021,-0.3249,0.0,0.0,0.0,-0.3021,-0.3021,-0.3021,-0.3135,-0.3471,-0.3471,-0.3527,-0.3585,-0.3585,-0.3635,-0.3744,-0.3744,-0.3799,-0.3919,-0.4017,-0.4079,-0.4185,-0.4378,-0.4482,-0.4446,-0.4338,-0.2911,-0.0933,-0.0933,-0.0536,-0.0,-1.2586,0.0,0.0,-1.3186,0.0,0.0,-1.2617,-1.2766,0.0,-1.2903,-1.2852,0.0,-1.3391,-1.321,-1.2865,-1.2369,-1.2016,0.0,-1.0647,0.0,0.0,-0.9777,-0.9725,-0.9681,-0.9681,-0.9621,0.0,-0.9614,0.0,0.0,-0.9424,0.0,0.0,0.0,0.0,-0.8302,0.0,-0.7509,-0.7285,-0.709,-0.7132,-0.6898,0.0,-0.6376,-0.6154,-0.5868,-0.5653,-0.5464,-0.5232,-0.4966,-0.4882,-0.4855,-0.4697,-0.4587,-0.4519,-0.4519,-0.4519,-0.4519,-0.4519,-0.4519,-0.4519,-0.4519,-0.4584,-0.4568,-0.4376,-0.4419,-0.4449,0.0,-0.4135,-0.4135,0.0,0.0,0.0,0.0,0.0,0.0,0.0,0.0,0.0,0.0,-0.3585,-0.3527,-0.3357,-0.3471,-0.3527,-0.3357,-0.3471,0.0,0.0,0.0,-0.3302,-0.3302,-0.3302,-0.3413,-0.3585,-0.3635,-0.3691,-0.3691,-0.3749,-0.3831,-0.3996,-0.3996,-0.4083,-0.4201,-0.4277,-0.4225,-0.4047,-0.4184,-0.4102,-0.3908,-0.3919,-0.2423,-0.027,-0.0067,-0.0,-0.0,0.0,0.0,0.0,0.0,0.0,0.0,0.0,-1.3496,0.0,-1.3082,0.0,-1.3838,-1.4179,-1.3852,-1.3459,-1.3067,0.0,-1.1604,-1.0855,-1.048,-1.0249,-1.0198,-1.0095,-0.9991,-0.9895,-0.9769,-0.9666,0.0,-0.9614,-0.9482,-0.9241,0.0,0.0,0.0,0.0,0.0,0.0,-0.8046,-0.7695,-0.7466,-0.7695,-0.7589,-0.729,-0.7203,-0.7139,-0.7052,-0.6585,-0.5944,-0.5238,-0.4991,-0.494,-0.4868,-0.4573,-0.4519,-0.4519,-0.4519,-0.4519,-0.4519,-0.4519,-0.4519,-0.4519,-0.4519,-0.4519,-0.4519,-0.4519,-0.4519,-0.4519,-0.4519,-0.4356,-0.4307,-0.449,0.0,0.0,0.0,0.0,0.0,0.0,0.0,0.0,0.0,0.0,0.0,-0.3585,-0.3585,-0.3585,-0.3585,-0.3585,0.0,0.0,0.0,-0.3585,-0.3585,-0.3638,-0.3638,-0.3638,-0.3761,-0.3878,-0.3878,-0.4011,-0.4137,-0.4253,-0.4253,-0.4377,-0.4546,-0.4562,-0.4326,-0.3857,-0.3872,-0.354,-0.3084,-0.2818,-0.1886,-0.0678,-0.0271,-0.0136,-0.0068,0.0,0.0,0.0,0.0,0.0,-1.4252,-1.4086,-1.4459,-1.4449,-1.36,-1.39,-1.4066,-1.3765,-1.3978,-1.3922,-1.3378,-1.325,0.0,0.0,0.0,0.0,-1.1325,-1.1325,-1.1023,-1.0474,-1.0415,-1.0167,-0.9614,-0.9614,-0.9585,-0.9541,0.0,0.0,0.0,0.0,0.0,-0.9665,-0.9699,0.0,-0.9385,-0.92,-0.8756,-0.8122,-0.7853,-0.7509,-0.709,-0.7019,-0.6658,-0.61,-0.525,-0.5063,-0.5065,-0.4661,-0.4519,-0.4519,-0.4519,-0.4519,-0.4519,-0.4519,-0.4519,-0.4519,-0.4519,-0.4519,-0.4519,-0.4519,-0.4519,-0.4519,-0.4519,-0.4463,-0.4501,-0.4626,0.0,0.0,0.0,0.0,0.0,0.0,0.0,0.0,0.0,0.0,-0.3744,-0.3638,-0.3585,-0.3585,-0.3585,0.0,0.0,0.0,0.0,-0.3585,0.0,-0.3691,-0.3744,0.0,0.0,-0.4134,-0.4134,-0.4299,-0.4486,-0.4632,-0.4632,-0.4709,-0.4864,-0.4977,-0.4659,-0.4049,-0.4148,-0.3602,-0.2618,-0.2551,-0.1771,-0.0626,-0.0904,-0.0776,-0.0574,0.0,0.0,0.0,0.0,0.0,0.0,0.0,-1.5007,-1.4749,-1.4066,-1.4169,-1.4314,-1.4335,-1.4531,-1.449,-1.4131,-1.373,-1.3212,-1.2541,-1.2108,-1.1972,-1.2163,-1.2121,-1.1809,-1.1329,-1.1284,-1.0769,-0.9863,-1.0038,-1.0031,-0.987,-1.0038,0.0,0.0,0.0,-1.0048,0.0,0.0,0.0,-0.9771,-0.9681,-0.9255,-0.8728,-0.868,-0.8469,-0.8184,-0.8171,-0.801,-0.7652,-0.6269,-0.5693,-0.551,-0.5393,-0.4956,-0.4574,-0.4846,-0.4736,-0.4519,-0.4519,-0.4519,-0.4519,-0.4519,-0.4519,-0.4539,-0.4562,-0.4579,-0.4602,-0.4684,-0.4701,-0.4721,-0.4796,-0.4807,0.0,0.0,0.0,0.0,0.0,0.0,-0.3965,0.0,0.0,0.0,0.0,0.0,0.0,0.0,0.0,0.0,0.0,0.0,-0.3691,0.0,0.0,0.0,-0.4011,0.0,-0.4449,-0.4452,-0.4636,-0.4768,-0.4902,-0.4902,-0.5008,-0.5152,-0.522,-0.4659,-0.3612,-0.2932,-0.2281,-0.1749,-0.1775,-0.1384,-0.0912,-0.1139,-0.1091,-0.0889,0.0,-1.4148,0.0,0.0,-1.4872,0.0,-1.537,-1.5163,-1.4863,-1.45,-1.4283,-1.4335,-1.48,-1.4759,-1.4675,-1.4617,-1.4024,-1.3467,-1.3006,-1.2739,-1.2799,-1.3162,-1.3067,-1.2848,-1.2457,-1.2291,-1.1715,-1.0693,-1.0801,-1.0681,-1.0427,-1.0453,0.0,0.0,0.0,0.0,0.0,0.0,-1.0045,-0.982,-0.9756,-0.9479,-0.9185,-0.9364,-0.9342,-0.925,-0.9235,-0.9229,-0.9011,-0.77,-0.6724,-0.6165,-0.6339,-0.5775,-0.5053,-0.5454,-0.5333,-0.5054,-0.4797,-0.4842,-0.4905,-0.4664,-0.4647,-0.472,-0.4762,-0.4741,-0.4772,-0.4894,-0.4945,-0.4965,-0.4965,-0.4992,0.0,0.0,0.0,0.0,0.0,0.0,0.0,0.0,0.0,0.0,-0.4024,0.0,0.0,0.0,0.0,0.0,-0.3694,0.0,0.0,0.0,0.0,-0.4299,-0.4327,0.0,-0.4774,-0.4774,-0.4934,-0.507,-0.5179,-0.5179,-0.5247,-0.5428,-0.5428,-0.4637,-0.3381,-0.1896,-0.1361,-0.1371,-0.1191,-0.1134,-0.1143,-0.124,-0.127,-0.1142,0.0,0.0,0.0,0.0,0.0,0.0,-1.4552,-1.4749,-1.4987,-1.4945,-1.42,-1.3859,-1.4314,-1.4003,-1.3882,-1.4296,-1.4255,-1.4204,-1.4143,-1.4502,-1.4727,-1.4768,-1.4768,-1.4453,-1.3834,-1.3673,-1.3276,-1.2549,-1.1872,-1.1487,-1.1447,-1.0549,-1.0148,0.0,0.0,0.0,0.0,-1.053,-1.0451,-1.0229,-1.0,-0.9762,-0.9638,-0.9446,-0.9398,-0.939,-0.9606,-0.9661,-0.9596,-0.9343,-0.83,-0.714,-0.7063,-0.6879,-0.6609,-0.6361,-0.6643,-0.6792,-0.5801,-0.5918,-0.6129,-0.5135,-0.5181,-0.5405,-0.498,-0.4897,-0.4901,-0.4914,-0.502,-0.5111,-0.5111,-0.5226,-0.5274,0.0,0.0,0.0,0.0,0.0,-0.4505,-0.4209,0.0,0.0,-0.4024,-0.4024,0.0,0.0,-0.3968,0.0,0.0,0.0,0.0,-0.4146,-0.4391,-0.4516,-0.4648,-0.4912,-0.5048,-0.5048,-0.5254,-0.5328,-0.5342,-0.5342,-0.5415,-0.5428,-0.5428,-0.5029,-0.4245,-0.2715,-0.2191,-0.224,-0.1451,-0.1179,-0.1204,-0.1206,-0.1227,-0.1253,0.0,0.0,0.0,0.0,0.0,0.0,0.0,-1.4821,-1.4583,-1.4583,-1.4262,-1.421,-1.4676,-1.4304,-1.3993,-1.39,-1.389,-1.389,-1.389,-1.4324,-1.4831,-1.539,-1.5411,-1.5198,-1.4714,-1.4657,-1.4195,0.0,-1.2421,-1.2028,-1.2028,-1.1088,-1.0682,0.0,0.0,-1.077,-1.0572,-1.0375,-1.0239,-1.0169,-1.0046,-0.994,-0.9881,-1.0136,-1.0168,-1.0041,-1.0282,-1.0329,-1.0207,-1.0153,-0.924,-0.8111,-0.8369,-0.7871,-0.7322,-0.7526,-0.7518,-0.7349,-0.6846,-0.6784,-0.6735,-0.6424,-0.6267,-0.62,-0.6271,-0.6278,-0.6187,-0.5855,-0.5546,-0.527,-0.527,-0.5321,-0.5342,-0.5281,0.0,0.0,0.0,0.0,0.0,-0.4428,0.0,-0.4353,-0.4298,-0.4298,0.0,0.0,0.0,0.0,0.0,0.0,0.0,-0.4397,0.0,-0.4859,-0.4918,-0.5192,-0.527,-0.527,-0.5332,-0.5428,-0.5432,-0.5457,-0.5545,-0.5623,-0.5202,-0.481,-0.4572,-0.3505,-0.281,-0.2405,-0.2073,-0.165,-0.129,-0.177,-0.2024,-0.2041,-1.6082,0.0,-1.6033,0.0,-1.577,-1.5524,-1.5352,-1.4862,-1.4469,-1.4324,-1.4304,-1.4438,-1.4759,-1.4386,-1.4024,-1.3838,-1.3817,-1.3879,-1.4014,-1.4459,-1.507,-1.5856,-1.5887,0.0,-1.5584,-1.5478,-1.5023,-1.4201,-1.3383,-1.2974,-1.2924,-1.1975,-1.1286,0.0,-1.0931,-1.0748,-1.0419,-1.0097,-0.9958,-0.9965,-1.006,-1.005,-1.0012,-1.0587,-1.065,-1.0518,-1.076,-1.0744,-1.0618,-1.0624,-0.9965,-0.9251,-0.9472,-0.8907,-0.8295,-0.8646,-0.8545,-0.8215,-0.7843,-0.7699,-0.7571,-0.739,-0.7156,-0.7087,-0.7212,-0.7229,-0.714,-0.6763,-0.6145,-0.5686,-0.5686,-0.5557,-0.5428,-0.5428,0.0,0.0,0.0,-0.4887,0.0,-0.4616,-0.4596,-0.4579,-0.4591,-0.4568,0.0,0.0,0.0,0.0,0.0,0.0,0.0,0.0,0.0,0.0,-0.5199,-0.5308,-0.5428,-0.5428,-0.5406,-0.543,-0.5433,-0.5583,-0.5705,-0.58,-0.5219,-0.5023,-0.5058,-0.4332,-0.3691,-0.3127,-0.2958,-0.252,-0.2067,-0.2647,-0.2899,-0.2899,-1.7593,-1.7591,-1.7315,-1.6678,-1.6507,-1.6033,-1.4624,-1.4758,-1.4831,-1.4366,-1.4304,-1.4304,-1.4314,-1.39,-1.3807,-1.4252,-1.4304,-1.449,-1.4956,-1.5411,-1.5887,0.0,0.0,-1.6374,-1.6384,-1.6087,-1.5856,-1.5846,0.0,-1.446,-1.446,-1.3114,-1.1788,-1.0594,-1.0594,-1.0411,-1.0082,-0.976,-0.9621,-0.9643,-0.9972,-1.0104,-1.017,-1.0646,-1.083,-1.0813,-1.0816,-1.0807,-1.0807,-1.0624,-1.0618,-1.0501,-1.0207,-0.9992,-0.9825,-0.9545,-0.9858,-0.9977,-0.8759,-0.8868,-0.9051,-0.7713,-0.7731,-0.7944,-0.7529,-0.7381,-0.7386,-0.7386,-0.6859,-0.6396,-0.6396,-0.5815,-0.5428,-0.5428,0.0,0.0,0.0,-0.5128,0.0,-0.4928,-0.4914,-0.4853,-0.4704,-0.4823,0.0,0.0,0.0,0.0,0.0,0.0,0.0,-0.5051,-0.5128,0.0,-0.5425,-0.5425,-0.5428,-0.5428,-0.5515,-0.5586,-0.5593,-0.5735,-0.58,-0.58,-0.58,-0.5888,-0.5952,-0.5121,-0.489,-0.4921,-0.4064,-0.3752,-0.375,-0.3752,-0.3752,-0.3752,-1.7192,-1.7199,-1.6965,-1.6255,-1.5903,-1.5418,-1.4499,-1.4435,-1.448,-1.4324,-1.4583,-1.478,-1.478,-1.4366,-1.4148,0.0,-1.4593,-1.4842,0.0,-1.5432,-1.5898,-1.6363,-1.6384,-1.6384,-1.6384,-1.6316,-1.6269,-1.6269,0.0,0.0,-1.3625,-1.3314,-1.2821,-1.2241,-1.1787,-1.1368,-1.1106,-1.0546,-1.028,-1.0309,-1.0631,-1.0763,-1.0806,-1.1177,-1.1276,-1.1167,-1.1142,-1.0989,-1.08,-1.0744,-1.0681,-1.0611,-1.0448,-1.0421,-1.0338,-1.0246,-1.0352,-1.0408,-0.9869,-0.9649,-0.9519,-0.9145,-0.8885,-0.8765,-0.8832,-0.8495,-0.8166,-0.8166,-0.7577,-0.6924,-0.6461,-0.6203,-0.5947,-0.5495,-0.5428,0.0,-0.5152,0.0,-0.5077,-0.4938,-0.4918,-0.4901,-0.485,-0.4891,0.0,0.0,0.0,0.0,0.0,0.0,0.0,0.0,-0.5335,0.0,-0.5515,-0.5613,-0.5661,-0.5661,-0.5711,-0.5789,-0.5891,-0.5935,-0.6013,-0.6115,-0.6115,-0.6142,-0.6186,-0.5953,-0.5514,-0.5002,-0.4691,-0.43,-0.383,-0.4377,-0.4613,-0.4613,-1.7355,-1.7661,-1.776,-1.7034,-1.6548,-1.5963,-1.5099,-1.4889,-1.4702,-1.4335,-1.4863,-1.5256,-1.5256,-1.4997,0.0,-1.4583,-1.4831,-1.507,-1.5245,-1.5525,-1.5898,-1.6363,-1.6384,-1.6384,-1.6384,-1.6316,0.0,-1.6306,-1.5499,-1.4706,-1.3825,-1.3927,-1.3652,-1.3035,-1.2305,-1.1829,-1.1559,-1.0872,-1.0587,-1.0616,-1.0946,-1.1077,-1.1114,-1.1497,-1.1498,-1.1373,-1.1303,-1.1115,-1.087,-1.0807,-1.0681,-1.0624,-1.0624,-1.0624,-1.0624,-1.0624,-1.0624,-1.0561,-1.0364,-1.0114,-0.9906,-0.9824,-0.9605,-0.9393,-0.9506,-0.9151,-0.8882,-0.8882,-0.8296,-0.7707,-0.7246,-0.6985,-0.6531,-0.5881,-0.5752,-0.565,-0.5356,-0.5216,-0.5246,-0.5283,-0.5206,-0.5185,-0.5188,-0.5237,-0.5248,0.0,0.0,0.0,0.0,0.0,-0.5243,-0.5301,-0.5542,-0.5671,-0.5671,-0.5755,-0.58,-0.58,-0.5861,-0.5966,-0.6115,-0.6115,-0.6169,-0.6338,-0.6338,-0.6338,-0.6338,-0.6338,-0.5944,-0.5473,-0.5473,-0.516,-0.4768,-0.5318,-0.5473,-0.5473,-1.7878,-1.8701,-1.9223,-1.8575,-1.7994,-1.7254,-1.6185,-1.5829,-1.5354,-1.4497,-1.5184,-1.5701,-1.5732,-1.5742,-1.5566,-1.5132,0.0,0.0,-1.5711,-1.5742,-1.5929,-1.6363,-1.6384,-1.6384,-1.6384,-1.6239,-1.6114,-1.6114,-1.5961,-1.5594,-1.4972,-1.4815,-1.4258,-1.3292,-1.2505,-1.1935,-1.1631,-1.094,-1.0653,-1.0682,-1.0982,-1.1106,-1.1143,-1.1505,-1.1622,-1.156,-1.1373,-1.1247,-1.1059,-1.087,-1.0744,-1.0624,-1.0624,-1.0624,-1.0624,-1.0624,-1.0624,-1.0561,-1.0364,-1.0301,-1.0238,-0.9843,-0.9773,-0.9709,-0.9518,-0.9536,-0.9484,-0.9548,-0.9017,-0.8554,-0.8554,-0.7967,-0.7316,-0.6593,-0.6527,-0.6334,-0.5745,-0.5554,-0.5631,-0.5907,0.0,0.0,-0.577,-0.5832,-0.5858,0.0,0.0,0.0,0.0,0.0,-0.5535,-0.5599,-0.5742,-0.5817,-0.5817,-0.5827,-0.5833,-0.5833,-0.5976,-0.6122,-0.6338,-0.6338,-0.6338,-0.6338,-0.6338,-0.6338,-0.6338,-0.6338,-0.6338,-0.6338,-0.6338,-0.6338,-0.6338,-0.6338,-0.6338,-0.6338,0.0,0.0,-1.7588,-1.6955,-1.6754,-1.6394,-1.5599,-1.5398,-1.5323,-1.5343,-1.5531,-1.5825,-1.6177,-1.6218,-1.6177,-1.6063,-1.6053,-1.6094,-1.6208,-1.6218,-1.626,-1.6374,-1.6384,-1.6384,-1.6384,-1.6374,-1.6316,-1.6316,-1.6029,-1.5846,-1.5816,-1.5594,-1.5138,-1.4431,-1.3646,-1.3007,-1.2462,-1.1684,-1.1333,-1.1402,-1.1475,-1.1512,-1.152,-1.1593,-1.1622,-1.156,-1.156,-1.1435,-1.124,-1.1059,-1.0933,-1.0744,-1.0618,-1.0624,-1.0624,-1.0624,-1.0624,-1.0561,-1.0364,-1.0301,-1.0186,-0.9724,-0.9556,-0.9494,-0.955,-0.9529,-0.9548,-0.9676,-0.9606,-0.9338,-0.8742,-0.8608,-0.8409,-0.7697,-0.7632,-0.7377,-0.6662,-0.6531,-0.6461,0.0,-0.6082,-0.6112,-0.6194,-0.6239,-0.6246,0.0,0.0,-0.6321,-0.6321,-0.6334,-0.6198,-0.5976,-0.5974,-0.5976,-0.5976,-0.6091,-0.6152,-0.6152,-0.619,-0.6227,-0.6338,-0.6338,-0.6338,-0.6338,-0.6338,-0.6338,-0.6338,-0.6338,-0.6338,-0.6338,-0.6338,-0.6338,-0.6338,-0.6338,-0.6338,-0.6338,-1.8336,-1.8388,-1.8299,-1.7958,-1.7448,-1.6773,-1.5968,-1.5647,-1.5441,-1.5193,-1.5479,-1.5784,-1.6032,-1.6249,-1.6384,-1.6384,-1.6384,-1.6384,-1.6384,-1.6384,-1.6384,-1.6384,-1.6384,-1.6384,-1.6384,-1.6384,-1.6384,-1.6384,-1.6202,-1.6144,-1.6249,-1.6009,-1.572,-1.541,-1.4619,-1.4076,-1.3717,-1.2581,-1.2166,-1.2104,-1.1747,-1.1622,-1.1622,-1.1622,-1.1622,-1.1622,-1.1622,-1.1498,-1.131,-1.1247,-1.1059,-1.0933,-1.0744,-1.0681,-1.0681,-1.0624,-1.0461,-1.0361,-1.0236,-1.023,-1.0168,-0.9955,-0.9735,-0.9549,-0.9737,-0.9662,-0.9586,-0.9837,-0.9862,-0.9792,-0.939,-0.939,-0.9256,-0.8544,-0.8474,-0.8221,-0.7577,-0.7202,-0.697,-0.6881,-0.6626,-0.6499,-0.6655,-0.6662,-0.6662,-0.6662,-0.6736,0.0,-0.6783,-0.6798,-0.6738,-0.6353,-0.635,-0.6356,-0.6284,-0.6294,-0.6338,-0.6338,-0.6338,-0.6338,-0.6338,-0.6338,-0.6338,-0.6338,-0.6338,-0.6338,-0.6338,-0.6338,-0.6338,-0.6338,-0.6338,-0.6338,-0.6338,-0.6338,-0.6338,-0.6412,-1.9316,-1.9407,-1.9407,-1.9407,-1.8494,-1.7523,-1.6703,-1.6126,-1.555,-1.4789,-1.5206,-1.5608,-1.568,-1.6105,-1.6384,-1.6384,-1.6384,-1.6384,-1.6384,-1.6384,-1.6384,-1.6384,-1.6384,-1.6384,-1.6384,-1.6384,-1.6384,-1.6384,-1.6374,-1.6374,-1.6384,-1.6181,-1.6056,-1.5941,-1.5216,-1.4855,-1.4669,-1.3425,-1.2826,-1.2704,-1.1981,-1.1677,-1.1622,-1.1622,-1.1622,-1.1622,-1.1622,-1.1498,-1.1373,-1.1303,-1.1178,-1.1059,-1.087,-1.0807,-1.0744,-1.0618,-1.0347,-1.0127,-1.0174,-1.0147,-1.0119,-1.024,-0.9936,-0.971,-1.0046,-0.9869,-0.9718,-1.0053,-1.0079,-1.0047,-1.0047,-1.0047,-0.9913,-0.9314,-0.925,-0.9058,-0.849,0.0,-0.7641,-0.7747,-0.7306,-0.7005,-0.7101,-0.7105,-0.7105,-0.7105,-0.7175,-0.7265,-0.7265,-0.7255,-0.7114,-0.6742,-0.687,-0.6788,-0.6641,-0.6412,-0.6338,-0.6338,-0.6338,-0.6338,-0.6338,-0.6338,-0.6338,-0.6338,-0.6338,-0.6338,-0.6338,-0.6338,-0.6338,-0.6342,-0.6285,-0.6373,-0.6376,-0.6397,-0.6542,-0.6677,-1.7591,-1.7604,-1.7604,-1.7604,-1.746,-1.7203,-1.6875,-1.6054,-1.5521,-1.5584,-1.5311,-1.5256,-1.5649,-1.6105,-1.6384,-1.6384,-1.6384,-1.6384,-1.6384,-1.6384,-1.6384,-1.6384,-1.6384,-1.6384,-1.6384,-1.6384,-1.6384,-1.6384,-1.6249,-1.6249,-1.6384,-1.6181,-1.5884,-1.5468,-1.5089,-1.4619,-1.4085,-1.3623,-1.307,-1.2512,-1.2389,-1.2035,-1.1622,-1.1622,-1.1622,-1.1622,-1.1622,-1.156,-1.156,-1.1365,-1.1178,-1.1059,-1.087,-1.0744,-1.0624,-1.0624,-1.0347,-1.0174,-1.0421,-1.0307,-1.0127,-1.0113,-0.9971,-0.9956,-1.0431,-1.0205,-1.0066,-1.047,-1.0406,-1.0244,-1.0244,-1.0371,-1.0498,-1.0364,-1.0358,-1.0104,-0.939,0.0,-0.9186,-0.8074,-0.8064,-0.7964,-0.7462,-0.7399,-0.7399,-0.7399,-0.7427,-0.7443,-0.7443,-0.7468,-0.7395,-0.7367,-0.7084,-0.6788,-0.6641,-0.6563,-0.6486,-0.6338,-0.6338,-0.6338,-0.6338,-0.6338,-0.6338,-0.6338,-0.6338,-0.6338,-0.6338,-0.6338,-0.6338,-0.6274,-0.6393,-0.66,-0.678,-0.6909,-0.7031,-0.6998,-1.8114,-1.7878,-1.7682,-1.7682,-1.7421,-1.7073,-1.6735,-1.6182,-1.5727,-1.5613,-1.524,-1.5105,-1.5318,-1.574,-1.6011,-1.6011,-1.6239,-1.6384,-1.6384,-1.6384,-1.6384,-1.6384,-1.6384,-1.6384,-1.6384,-1.6384,-1.6384,-1.6384,-1.6306,-1.6306,-1.6384,-1.6306,-1.6134,-1.5951,-1.5768,-1.5526,-1.5235,-1.4569,-1.4085,-1.3768,-1.3243,-1.2642,-1.2097,-1.2097,-1.1856,-1.1622,-1.1622,-1.1622,-1.156,-1.1498,-1.1435,-1.131,-1.1059,-1.0933,-1.0814,-1.0624,-1.0347,-1.0147,-1.0281,-1.0221,-1.0154,-1.0314,-1.0172,-1.0139,-1.0494,-1.0309,-1.0158,-1.0566,-1.052,-1.0434,-1.0434,-1.0561,-1.0672,-1.0768,-1.0661,-1.0604,-1.0507,-1.0257,-0.9955,-0.9504,-0.9301,-0.896,-0.8237,-0.8169,-0.794,-0.7561,-0.7484,-0.7484,-0.7484,-0.7484,-0.7484,-0.7484,-0.7176,-0.7022,-0.6949,-0.6718,-0.6641,-0.6637,-0.6412,-0.6338,-0.649,-0.6335,-0.6338,-0.6338,-0.6338,-0.6338,-0.6338,-0.6338,-0.6386,-0.6544,-0.661,-0.6852,-0.71,-0.7252,-0.7312,-0.7411,-1.8506,-1.8179,-1.7891,-1.7891,-1.7512,-1.7073,-1.6693,-1.6355,-1.6027,-1.5599,-1.537,-1.5266,-1.5218,-1.5539,-1.5731,-1.5687,-1.6005,-1.6218,-1.6218,-1.6322,-1.6384,-1.6384,-1.6384,-1.6384,-1.6384,-1.6384,-1.6384,-1.6384,-1.6384,-1.6384,-1.6384,-1.6384,-1.6384,-1.6384,-1.6374,-1.6316,-1.6249,-1.5459,-1.504,-1.4796,-1.4103,-1.3373,-1.2696,-1.2573,-1.2212,-1.1802,-1.1622,-1.1622,-1.1622,-1.1622,-1.156,-1.1498,-1.1247,-1.1059,-1.0996,-1.0751,-1.0456,-1.0221,-1.0221,-1.0221,-1.0274,-1.0571,-1.0388,-1.0314,-1.0681,-1.0481,-1.0321,-1.0688,-1.0719,-1.0645,-1.0712,-1.0661,-1.0755,-1.1049,0.0,-1.0915,-1.1363,-1.0931,-1.063,-1.0695,-1.0427,-0.99,-0.9074,-0.9003,-0.8623,-0.7863,-0.7787,-0.771,-0.7484,-0.7484,-0.7484,-0.7484,-0.7334,-0.7257,-0.7184,-0.6872,-0.6791,-0.6865,-0.6563,-0.6486,-0.6563,-0.649,-0.6412,-0.6338,-0.6412,-0.6412,-0.6342,-0.6454,-0.6616,-0.6809,-0.6961,-0.723,-0.7514,-0.7548,-0.7704,-0.7836,-1.7329,-1.729,-1.7264,-1.7264,-1.7225,-1.7157,-1.7002,-1.6582,-1.6213,-1.6071,-1.6017,-1.5973,-1.5867,-1.5858,-1.5836,-1.5704,-1.5732,-1.5742,-1.5742,-1.6146,-1.6384,-1.6384,-1.6384,-1.6384,-1.6384,-1.6384,-1.6384,-1.6384,-1.6384,-1.6384,-1.6384,-1.6384,-1.6384,-1.6374,-1.6181,-1.6114,-1.6114,-1.5904,-1.543,-1.4706,-1.4647,-1.4172,-1.3381,-1.2757,-1.2451,-1.2328,-1.1802,-1.1622,-1.1622,-1.1622,-1.1498,-1.1303,-1.1303,-1.1052,-1.0807,-1.08,-1.0667,-1.0591,-1.0591,-1.0591,-1.0598,-1.0618,-1.0611,-1.0675,-1.1236,-1.0929,-1.0688,-1.1243,-1.0935,-1.0705,-1.0909,-1.0962,-1.1056,-1.1349,0.0,0.0,-1.1416,-1.1593,-1.1488,-1.0791,-1.0875,-1.0732,-0.9895,-0.982,-0.9448,-0.8699,-0.8623,-0.8322,-0.7561,-0.7484,-0.7484,-0.7484,-0.7484,-0.7411,-0.7184,-0.718,-0.7099,-0.6865,-0.6865,-0.6788,-0.6641,-0.6788,-0.6637,-0.6338,-0.6714,-0.6641,-0.6349,-0.6799,-0.6947,-0.683,-0.7366,-0.7746,-0.7955,-0.8107,-0.8151,-0.8272,-1.7342,-1.7199,-1.7199,-1.7199,-1.7199,-1.7199,-1.7115,-1.6892,-1.6723,-1.6667,-1.6355,-1.6077,-1.5966,-1.5761,-1.5483,-1.5295,-1.5351,-1.5498,-1.567,-1.5856,-1.6084,-1.6363,-1.6384,-1.6384,-1.6384,-1.6384,-1.6384,-1.6384,-1.6384,-1.6384,-1.6384,-1.6384,-1.6384,-1.6384,-1.6316,-1.6306,-1.6249,-1.6077,-1.5826,-1.5526,-1.5371,-1.4893,-1.4172,-1.3442,-1.2887,-1.2451,-1.1802,-1.1622,-1.1622,-1.1622,-1.156,-1.1435,-1.1373,-1.124,-1.1052,-1.087,-1.0744,-1.0681,-1.0624,-1.0624,-1.0624,-1.0624,-1.0624,-1.0678,-1.0835,-1.0855,-1.0895,-1.1109,-1.1129,-1.1129,-1.1243,-1.1263,-1.1356,-1.165,0.0,-1.155,-1.1917,-1.1911,-1.1866,-1.1674,-1.179,-1.1558,-1.0726,-1.0651,-1.0276,-0.9523,-0.9448,-0.9296,-0.8988,-0.8542,-0.8016,-0.7484,-0.7484,-0.7484,-0.7411,-0.7257,-0.7257,-0.7249,-0.7019,-0.6942,-0.6949,-0.6942,-0.6788,-0.6714,-0.6865,-0.6847,-0.6792,-0.7009,-0.7237,-0.7522,-0.7731,-0.8103,-0.8384,-0.8448,-0.8432,-0.8463,-1.7356,-1.7199,-1.7199,-1.7199,-1.7199,-1.7199,-1.7199,-1.7115,-1.7086,-1.7086,-1.671,-1.6398,-1.6337,-1.5932,-1.5579,-1.5344,-1.5241,-1.5318,-1.5532,-1.5623,-1.5898,-1.6363,-1.6384,-1.6384,-1.6384,-1.6384,-1.6384,-1.6384,-1.6384,-1.6384,-1.6384,-1.6384,-1.6384,-1.6384,-1.6384,-1.6384,-1.6374,-1.6249,-1.6181,-1.6056,-1.5846,-1.5439,-1.4951,-1.4112,-1.3373,-1.2704,-1.2097,-1.174,-1.1622,-1.1622,-1.1622,-1.156,-1.1428,-1.1365,-1.124,-1.0996,-1.087,-1.0807,-1.0688,-1.0618,-1.0624,-1.0624,-1.0624,-1.0651,-1.0739,-1.0782,-1.0882,-1.0975,-1.1149,-1.1316,-1.141,-1.1503,-1.1663,-1.1957,-1.183,-1.1844,-1.2245,-1.2131,-1.2078,-1.2278,-1.2305,-1.2077,-1.1558,-1.1484,-1.1105,-1.0351,-1.0276,-1.0196,-0.9895,-0.9372,-0.8699,-0.7863,-0.7863,-0.7787,-0.7484,-0.7334,-0.7334,-0.7484,-0.7249,-0.7099,-0.7184,-0.7099,-0.7019,-0.6942,-0.7019,-0.7118,-0.7118,-0.7327,-0.7604,-0.8048,-0.8103,-0.8372,-0.8568,-0.8568,-0.8568,-0.8568,-1.7199,-1.7199,-1.7199,-1.7199,-1.7199,-1.7199,-1.7199,-1.7199,-1.7199,-1.7199,-1.7199,-1.7157,-1.7002,-1.6582,-1.6269,-1.6114,-1.5545,-1.5185,-1.5196,-1.551,-1.5887,-1.6353,-1.6374,-1.6384,-1.6384,-1.6384,-1.6384,-1.6384,-1.6384,-1.6384,-1.6384,-1.6384,-1.6384,-1.6384,-1.6384,-1.6384,-1.6384,-1.6384,-1.6306,-1.6114,-1.5961,-1.5798,-1.5614,-1.4834,-1.4112,-1.3442,-1.2757,-1.2097,-1.1622,-1.1622,-1.1622,-1.1622,-1.1622,-1.1435,-1.1303,-1.1122,-1.0933,-1.0807,-1.0807,-1.0681,-1.0624,-1.0624,-1.0624,-1.0698,-1.0922,-1.0768,-1.0712,-1.0935,-1.0995,-1.1089,-1.1369,-1.167,-1.1964,-1.2251,-1.2305,-1.2305,-1.2305,-1.2305,-1.2305,-1.2305,-1.2305,-1.2305,-1.2305,-1.2305,-1.2003,-1.1186,-1.1111,-1.0732,-0.997,-0.9895,-0.9523,-0.8703,-0.8703,-0.8322,-0.7484,-0.7484,-0.7484,-0.7484,-0.7484,-0.7411,-0.7184,-0.7411,-0.7253,-0.6942,-0.733,-0.7356,-0.7129,-0.778,-0.8042,-0.806,-0.8412,-0.8568,-0.8568,-0.8568,-0.8568,-0.8568,-1.7277,-1.7199,-1.7199,-1.7199,-1.7199,-1.7199,-1.7199,-1.7199,-1.7199,-1.7199,-1.7199,-1.7157,-1.7002,-1.6693,-1.6367,-1.6114,-1.5718,-1.5429,-1.5367,-1.5327,-1.5436,-1.5572,-1.6088,-1.6384,-1.6384,-1.6384,-1.6384,-1.6384,-1.6384,-1.6384,-1.6384,-1.6384,-1.6384,-1.6384,-1.6384,-1.6384,-1.6384,-1.6384,-1.6374,-1.6306,-1.6124,-1.5961,-1.573,-1.4951,-1.4469,-1.4043,-1.294,-1.2389,-1.2158,-1.174,-1.1622,-1.1622,-1.1622,-1.156,-1.1435,-1.1185,-1.1059,-1.0933,-1.0744,-1.0618,-1.0624,-1.0624,-1.0624,-1.0645,-1.0668,-1.0782,-1.0889,-1.0975,-1.1323,-1.157,-1.145,-1.1837,-1.2138,-1.2017,-1.2171,-1.2305,-1.2305,-1.2305,-1.2305,-1.2305,-1.2305,-1.2305,-1.2305,-1.2305,-1.2224,-1.1929,-1.1929,-1.1558,-1.0807,-1.0732,-1.0351,-0.9593,-0.9523,-0.9219,-0.8599,-0.785,-0.7484,-0.7484,-0.7484,-0.7553,-0.76,-0.7679,-0.7675,-0.7525,-0.7725,-0.7805,-0.7788,-0.805,-0.8316,-0.8408,-0.8548,-0.8568,-0.8568,-0.8568,-0.8568,-0.8584,-1.7264,-1.7199,-1.7199,-1.7199,-1.7199,-1.7199,-1.7199,-1.7199,-1.7199,-1.7199,-1.7199,-1.7157,-1.7073,-1.6905,-1.6723,-1.657,-1.6126,-1.5723,-1.5415,-1.5246,-1.5212,-1.5206,-1.5589,-1.5918,-1.6105,-1.6291,-1.6384,-1.6384,-1.6384,-1.6384,-1.6384,-1.6384,-1.6384,-1.6384,-1.6384,-1.6384,-1.6384,-1.6384,-1.6384,-1.6374,-1.6181,-1.6009,-1.5856,-1.5313,-1.4834,-1.441,-1.3606,-1.294,-1.2451,-1.2097,-1.1802,-1.1622,-1.1622,-1.1622,-1.156,-1.1247,-1.1122,-1.1059,-1.0744,-1.0624,-1.0624,-1.0624,-1.0624,-1.0624,-1.0624,-1.0759,-1.0855,-1.0969,-1.1369,-1.167,-1.1617,-1.1984,-1.2245,-1.2064,-1.2184,-1.2305,-1.2305,-1.2305,-1.2305,-1.2305,-1.2305,-1.2305,-1.2305,-1.2305,-1.2305,-1.2305,-1.2305,-1.2077,-1.1632,-1.1558,-1.118,-1.0426,-1.0351,-1.0041,-0.9339,-0.8831,-0.8276,-0.7594,-0.7663,-0.7715,-0.7764,-0.7829,-0.7858,-0.7866,-0.7967,-0.8057,-0.8134,-0.8243,-0.8398,-0.8568,-0.8568,-0.8568,-0.8568,-0.8568,-0.8568,-0.8593,-1.7212,-1.7277,-1.7342,-1.729,-1.7316,-1.7356,-1.7356,-1.7303,-1.7277,-1.7277,-1.7238,-1.7199,-1.7199,-1.7199,-1.7199,-1.7199,-1.6667,-1.6082,-1.5538,-1.5274,-1.5154,-1.5173,-1.506,-1.5173,-1.5556,-1.6063,-1.6322,-1.6322,-1.6363,-1.6384,-1.6384,-1.6384,-1.6384,-1.6384,-1.6384,-1.6384,-1.6384,-1.6384,-1.6384,-1.6374,-1.6181,-1.6009,-1.5914,-1.574,-1.5254,-1.4588,-1.4529,-1.3674,-1.2573,-1.2451,-1.2035,-1.163,-1.1659,-1.1645,-1.1567,-1.1401,-1.1269,-1.1059,-1.087,-1.0681,-1.0624,-1.0624,-1.0624,-1.0624,-1.0624,-1.0624,-1.0705,-1.0929,-1.1223,-1.151,-1.1784,-1.2091,-1.2291,-1.2265,-1.2285,-1.2305,-1.2305,-1.2305,-1.2305,-1.2305,-1.2305,-1.2305,-1.2305,-1.2305,-1.2305,-1.2305,-1.2305,-1.2305,-1.2305,-1.2305,-1.1929,-1.126,-1.1186,-1.0818,-1.0078,-1.0313,-0.9645,-0.7995,-0.8171,-0.8183,-0.8129,-0.8208,-0.8279,-0.8284,-0.83,-0.8397,-0.8543,-0.8475,-0.8587,-0.874,-0.8656,-0.8568,-0.8568,-0.8568,-0.8568,-0.8677,-1.729,-1.7917,-1.8401,-1.7983,-1.8244,-1.8532,-1.8532,-1.8179,-1.7904,-1.7904,-1.7486,-1.7199,-1.7199,-1.7199,-1.7199,-1.7199,-1.6723,-1.6386,-1.6279,-1.5462,-1.4922,-1.4799,-1.5009,-1.4987,-1.4614,-1.5421,-1.5835,-1.5835,-1.6208,-1.6384,-1.6384,-1.6384,-1.6384,-1.6384,-1.6384,-1.6384,-1.6384,-1.6384,-1.6384,-1.6384,-1.6374,-1.6144,-1.5914,-1.5856,-1.5604,-1.5118,-1.4647,-1.3983,-1.3139,-1.2104,-1.1677,-1.1667,-1.1853,-1.1765,-1.1611,-1.1668,-1.1503,-1.1185,-1.087,-1.0807,-1.0744,-1.0624,-1.0624,-1.0624,-1.0624,-1.0624,-1.0705,-1.0929,-1.1223,-1.1443,-1.151,-1.1951,-1.2225,-1.1997,-1.2151,-1.2305,-1.2305,-1.2305,-1.2305,-1.2305,-1.2305,-1.2305,-1.2305,-1.2305,-1.2305,-1.2305,-1.2305,-1.2305,-1.2305,-1.2305,-1.2231,-1.2077,-1.2003,-1.1727,-1.1094,-1.1365,-1.092,-0.9781,-1.0088,-1.0264,-1.0316,-1.0362,-1.0383,-1.0393,-1.0493,-1.0498,-1.0386,-0.9809,-0.9561,-0.9515,-0.8828,-0.8568,-0.8568,-0.8568,-0.874,-0.8832,-1.8022,-1.8493,-1.8819,-1.8532,-1.8715,-1.8911,-1.8911,-1.8662,-1.8479,-1.8479,-1.7983,-1.763,-1.763,-1.7369,-1.7199,-1.7199,-1.6989,-1.6735,-1.6522,-1.6163,-1.5752,-1.5161,-1.546,-1.5337,-1.4726,-1.5371,-1.5691,-1.5691,-1.6156,-1.6384,-1.6384,-1.6384,-1.6384,-1.6384,-1.6384,-1.6384,-1.6384,-1.6384,-1.6384,-1.6384,-1.6384,-1.6259,-1.6019,-1.5914,-1.573,-1.5488,-1.5059,-1.4282,-1.3329,-1.2343,-1.1864,-1.1681,-1.1933,-1.1816,-1.1626,-1.1754,-1.1553,-1.124,-1.0996,-1.1037,-1.1049,-1.0778,-1.0789,-1.0857,-1.0658,-1.0624,-1.0681,-1.1109,-1.1323,-1.151,-1.179,-1.2211,-1.2465,-1.2385,-1.2418,-1.2512,-1.2512,-1.2392,-1.2305,-1.2305,-1.2305,-1.2305,-1.2305,-1.2565,-1.2672,-1.2525,-1.2512,-1.2512,-1.2512,-1.2378,-1.2305,-1.2305,-1.2305,-1.2214,-1.2037,-1.2334,-1.2307,-1.1884,-1.1325,-1.1033,-1.0961,-1.1079,-1.1133,-1.1139,-1.1268,-1.1252,-1.1144,-1.0758,-1.0549,-1.0549,-1.0033,-0.9946,-1.0024,-0.9602,-0.9574,-0.9814,-1.8819,-1.9068,-1.9172,-1.9081,-1.9146,-1.9198,-1.9198,-1.912,-1.9054,-1.9054,-1.8584,-1.8192,-1.8114,-1.7565,-1.7199,-1.7199,-1.7199,-1.7031,-1.665,-1.7011,-1.6754,-1.5747,-1.6058,-1.5972,-1.5226,-1.5623,-1.5818,-1.5691,-1.6156,-1.6384,-1.6384,-1.6384,-1.6384,-1.6384,-1.6384,-1.6384,-1.6384,-1.6384,-1.6384,-1.6384,-1.6384,-1.6306,-1.6114,-1.5961,-1.5798,-1.5672,-1.5478,-1.4638,-1.3563,-1.2757,-1.2151,-1.1799,-1.1933,-1.1816,-1.1626,-1.1819,-1.1617,-1.131,-1.1185,-1.1347,-1.1451,-1.1008,-1.1139,-1.1269,-1.0884,-1.0739,-1.0782,-1.1316,-1.147,-1.1663,-1.2204,-1.2505,-1.2761,-1.2815,-1.2775,-1.2761,-1.2815,-1.2492,-1.2318,-1.2371,-1.2425,-1.2438,-1.2385,-1.2886,-1.3106,-1.2923,-1.2903,-1.2903,-1.2903,-1.2538,-1.2405,-1.2452,-1.2405,-1.2525,-1.2896,-1.3133,-1.3407,-1.3566,-1.2318,-1.173,-1.1533,-1.1657,-1.1757,-1.1757,-1.1757,-1.1757,-1.1757,-1.1666,-1.158,-1.158,-1.1494,-1.1569,-1.1649,-1.0885,-1.0829,-1.1045,-1.8885,-1.9721,-2.0306,-1.9773,-2.0087,-2.0463,-2.0463,-1.9995,-1.9682,-1.9682,-1.9159,-1.8623,-1.8153,-1.7565,-1.7199,-1.7199,-1.7199,-1.7157,-1.7115,-1.7288,-1.7041,-1.6244,-1.6738,-1.6469,-1.5237,-1.6035,-1.6242,-1.5691,-1.6156,-1.6384,-1.6384,-1.6384,-1.6384,-1.6384,-1.6384,-1.6384,-1.6384,-1.6384,-1.6384,-1.6384,-1.6384,-1.6306,-1.6114,-1.5961,-1.5798,-1.5672,-1.5478,-1.4932,-1.4163,-1.294,-1.2451,-1.2328,-1.2055,-1.1816,-1.1626,-1.1876,-1.1809,-1.1498,-1.131,-1.1539,-1.1703,-1.1465,-1.1421,-1.1504,-1.1532,-1.1249,-1.1029,-1.1356,-1.163,-1.1911,-1.2238,-1.2338,-1.2445,-1.2782,-1.2532,-1.2452,-1.2788,-1.2492,-1.2398,-1.2728,-1.2926,-1.2986,-1.2788,-1.3006,-1.3193,-1.3153,-1.3146,-1.3146,-1.3146,-1.2852,-1.2806,-1.308,-1.2826,-1.2832,-1.3146,-1.344,-1.3519,-1.3566,-1.369,-1.3724,-1.3685,-1.3724,-1.3743,-1.3743,-1.3743,-1.3743,-1.3652,-1.3027,-1.276,-1.2674,-1.2157,-1.1901,-1.1986,-1.1986,-1.2095,-1.2118,-1.9935,-2.0407,-2.0633,-2.0371,-2.0529,-2.0699,-2.0699,-2.0489,-2.0283,-2.0283,-1.9473,-1.8819,-1.8571,-1.7735,-1.7199,-1.7199,-1.7199,-1.7199,-1.7199,-1.7847,-1.7823,-1.6836,-1.758,-1.7486,-1.6223,-1.6472,-1.6476,-1.6221,-1.6327,-1.6384,-1.6384,-1.6384,-1.6384,-1.6384,-1.6384,-1.6384,-1.6384,-1.6384,-1.6384,-1.6384,-1.6384,-1.6374,-1.6249,-1.6066,-1.5904,-1.5798,-1.5478,-1.5001,-1.441,-1.3795,-1.3122,-1.2514,-1.2552,-1.2127,-1.1626,-1.1941,-1.1809,-1.156,-1.1498,-1.1797,-1.213,-1.176,-1.1981,-1.2161,-1.1915,-1.1867,-1.1799,-1.172,-1.1777,-1.1957,-1.2245,-1.2438,-1.2652,-1.2959,-1.2899,-1.2913,-1.3206,-1.2993,-1.2792,-1.2829,-1.3166,-1.3267,-1.2869,-1.3327,-1.3627,-1.3467,-1.3454,-1.3454,-1.3454,-1.3166,-1.3066,-1.3206,-1.308,-1.3153,-1.3447,-1.3581,-1.3728,-1.3895,-1.4021,-1.4088,-1.4088,-1.4088,-1.4088,-1.4088,-1.4243,-1.4243,-1.4237,-1.4048,-1.3957,-1.3957,-1.362,-1.3275,-1.3014,-1.319,-1.3275,-1.3275]},{"header":{"parameterUnit":"m.s-1","parameterCategory":1,"la1":30.6,"la2":28.766,"lo1":-90.7593,"lo2":-88.6598,"dy":0.0162,"dx":0.0183,"nx":116,"ny":114,"refTime":"2023-06-22T06:00:00:Z","depth":0,"parameterNumber":3,"parameterNumberName":"V-component_of_WINDS"},"data":[0.0,0.0,0.0,0.0,0.0,0.0,0.0,0.0,0.0,0.0,0.0,0.0,0.0,0.0,0.0,0.0,0.0,0.0,0.0,0.0,0.0,0.0,0.0,0.0,0.0,0.0,0.0,0.0,0.0,0.0,0.0,0.0,0.0,0.0,0.0,0.0,0.0,0.0,0.0,0.0,0.0,0.0,0.0,0.0,0.0,0.0,0.0,0.0,0.0,0.0,0.0,0.0,0.0,0.0,0.0,0.0,0.0,0.0,0.0,0.0,0.0,0.0,0.0,0.0,0.0,0.0,0.0,0.0,0.0,0.0,0.0,0.0,0.0,0.0,0.0,0.0,0.0,0.0,0.0,0.0,0.0,0.0,0.0,0.0,0.0,0.0,0.0,0.0,0.0,0.0,0.0,0.0,0.0,0.0,0.0,0.0,0.0,0.0,0.0,0.0,0.0,0.0,0.0,0.0,0.0,0.0,0.0,0.0,0.0,0.0,0.0,0.0,0.0,0.0,0.0,0.0,0.0,0.0,0.0,0.0,0.0,0.0,0.0,0.0,0.0,0.0,0.0,0.0,0.0,0.0,0.0,0.0,0.0,0.0,0.0,0.0,0.0,0.0,0.0,0.0,0.0,0.0,0.0,0.0,0.0,0.0,0.0,0.0,0.0,0.0,0.0,0.0,0.0,0.0,0.0,0.0,0.0,0.0,0.0,0.0,0.0,0.0,0.0,0.0,0.0,0.0,0.0,0.0,0.0,0.0,0.0,0.0,0.0,0.0,0.0,0.0,0.0,0.0,0.0,0.0,0.0,0.0,0.0,0.0,0.0,0.0,0.0,0.0,0.0,0.0,0.0,0.0,0.0,0.0,0.0,0.0,0.0,0.0,0.0,0.0,0.0,0.0,0.0,0.0,0.0,0.0,0.0,0.0,0.0,0.0,0.0,0.0,0.0,0.0,0.0,0.0,0.0,0.0,0.0,0.0,0.0,0.0,0.0,0.0,0.0,0.0,0.0,0.0,0.0,0.0,0.0,0.0,0.0,0.0,0.0,0.0,0.0,0.0,0.0,0.0,0.0,0.0,0.0,0.0,0.0,0.0,0.0,0.0,0.0,0.0,0.0,0.0,0.0,0.0,0.0,0.0,0.0,0.0,0.0,0.0,0.0,0.0,0.0,0.0,0.0,0.0,0.0,0.0,0.0,0.0,0.0,0.0,0.0,0.0,0.0,0.0,0.0,0.0,0.0,0.0,0.0,0.0,0.0,0.0,0.0,0.0,0.0,0.0,0.0,0.0,0.0,0.0,0.0,0.0,0.0,0.0,0.0,0.0,0.0,0.0,0.0,0.0,0.0,0.0,0.0,0.0,0.0,0.0,0.0,0.0,0.0,0.0,0.0,0.0,0.0,0.0,0.0,0.0,0.0,0.0,0.0,0.0,0.0,0.0,0.0,0.0,0.0,0.0,0.0,0.0,0.0,0.0,0.0,0.0,0.0,0.0,0.0,0.0,0.0,0.0,0.0,0.0,0.0,0.0,0.0,0.0,0.0,0.0,0.0,0.0,0.0,0.0,0.0,0.0,0.0,0.0,0.0,0.0,0.0,0.0,0.0,0.0,0.0,0.0,0.0,0.0,0.0,0.0,0.0,0.0,0.0,0.0,0.0,0.0,0.0,0.0,0.0,0.0,0.0,0.0,0.0,0.0,0.0,0.0,0.0,0.0,0.0,0.0,0.0,0.0,0.0,0.0,0.0,0.0,0.0,0.0,0.0,0.0,0.0,0.0,0.0,0.0,0.0,0.0,0.0,0.0,0.0,0.0,0.0,0.0,0.0,0.0,0.0,0.0,0.0,0.0,0.0,0.0,0.0,0.0,0.0,0.0,0.0,0.0,0.0,0.0,0.0,0.0,0.0,0.0,0.0,0.0,0.0,0.0,0.0,0.0,0.0,0.0,0.0,0.0,0.0,0.0,0.0,0.0,0.0,0.0,0.0,0.0,0.0,0.0,0.0,0.0,0.0,0.0,0.0,0.0,0.0,0.0,0.0,0.0,0.0,0.0,0.0,0.0,0.0,0.0,0.0,0.0,0.0,0.0,0.0,0.0,0.0,0.0,0.0,0.0,0.0,0.0,0.0,0.0,0.0,0.0,0.0,0.0,0.0,0.0,0.0,0.0,0.0,0.0,0.0,0.0,0.0,0.0,0.0,0.0,0.0,0.0,0.0,0.0,0.0,0.0,0.0,0.0,0.0,0.0,0.0,0.0,0.0,0.0,0.0,0.0,0.0,0.0,0.0,0.0,0.0,0.0,0.0,0.0,0.0,0.0,0.0,0.0,0.0,0.0,0.0,0.0,0.0,0.0,0.0,0.0,0.0,0.0,0.0,0.0,0.0,0.0,0.0,0.0,0.0,0.0,0.0,0.0,0.0,0.0,0.0,0.0,0.0,0.0,0.0,0.0,0.0,0.0,0.0,0.0,0.0,0.0,0.0,0.0,0.0,0.0,0.0,0.0,0.0,0.0,0.0,0.0,0.0,0.0,0.0,0.0,0.0,0.0,0.0,0.0,0.0,0.0,0.0,0.0,0.0,0.0,0.0,0.0,0.0,0.0,0.0,0.0,0.0,0.0,0.0,0.0,0.0,0.0,0.0,0.0,0.0,0.0,0.0,0.0,0.0,0.0,0.0,0.0,0.0,0.0,0.0,0.0,0.0,0.0,0.0,0.0,0.0,0.0,0.0,0.0,0.0,0.0,0.0,0.0,0.0,0.0,0.0,0.0,0.0,0.0,0.0,0.0,0.0,0.0,0.0,0.0,0.0,0.0,0.0,0.0,0.0,0.0,0.0,0.0,0.0,0.0,0.0,0.0,0.0,0.0,0.0,0.0,0.0,0.0,0.0,0.0,0.0,0.0,0.0,0.0,0.0,0.0,0.0,0.0,0.0,0.0,0.0,0.0,0.0,0.0,0.0,0.0,0.0,0.0,0.0,0.0,0.0,0.0,0.0,0.0,0.0,0.0,0.0,0.0,0.0,0.0,0.0,0.0,0.0,0.0,0.0,0.0,0.0,0.0,0.0,0.0,0.0,0.0,0.0,0.0,0.0,0.0,0.0,0.0,0.0,0.0,0.0,0.0,0.0,0.0,0.0,0.0,0.0,0.0,0.0,0.0,0.0,0.0,0.0,0.0,0.0,0.0,0.0,0.0,0.0,0.0,0.0,0.0,0.0,0.0,0.0,0.0,0.0,0.0,0.0,0.0,0.0,0.0,0.0,0.0,0.0,0.0,0.0,0.0,0.0,0.0,0.0,0.0,0.0,0.0,0.0,0.0,0.0,0.0,0.0,0.0,0.0,0.0,0.0,0.0,0.0,0.0,0.0,0.0,0.0,0.0,0.0,0.0,0.0,0.0,0.0,0.0,0.0,0.0,0.0,0.0,0.0,0.0,0.0,0.0,0.0,0.0,0.0,0.0,0.0,0.0,0.0,0.0,0.0,0.0,0.0,0.0,0.0,0.0,0.0,0.0,0.0,0.0,0.0,0.0,0.0,0.0,0.0,0.0,0.0,0.0,0.0,0.0,0.0,0.0,0.0,0.0,0.0,0.0,0.0,0.0,0.0,0.0,0.0,0.0,0.0,0.0,0.0,0.0,0.0,0.0,0.0,0.0,0.0,0.0,0.0,0.0,0.0,0.0,0.0,0.0,0.0,0.0,0.0,0.0,0.0,0.0,0.0,0.0,0.0,0.0,0.0,0.0,0.0,0.0,0.0,0.0,0.0,0.0,0.0,0.0,0.0,0.0,0.0,0.0,0.0,0.0,0.0,0.0,0.0,0.0,0.0,0.0,0.0,0.0,0.0,0.0,0.0,0.0,0.0,0.0,0.0,0.0,0.0,0.0,0.0,0.0,0.0,0.0,0.0,0.0,0.0,0.0,0.0,0.0,0.0,0.0,0.0,0.0,0.0,0.0,0.0,0.0,0.0,0.0,0.0,0.0,0.0,0.0,0.0,0.0,0.0,0.0,0.0,0.0,0.0,0.0,0.0,0.0,0.0,0.0,0.0,0.0,0.0,0.0,0.0,0.0,0.0,0.0,0.0,0.0,0.0,0.0,0.0,0.0,0.0,0.0,0.0,0.0,0.0,0.0,0.0,0.0,0.0,0.0,0.0,0.0,0.0,0.0,0.0,0.0,0.0,0.0,0.0,0.0,0.0,0.0,0.0,0.0,0.0,0.0,0.0,0.0,0.0,0.0,0.0,0.0,0.0,0.0,0.0,0.0,0.0,0.0,0.0,0.0,0.0,0.0,0.0,0.0,0.0,0.0,0.0,0.0,0.0,0.0,0.0,0.0,0.0,0.0,0.0,0.0,0.0,0.0,0.0,0.0,0.0,0.0,0.0,0.0,0.0,0.0,0.0,0.0,0.0,0.0,0.0,0.0,0.0,0.0,0.0,0.0,0.0,0.0,0.0,0.0,0.0,0.0,0.0,0.0,0.0,0.0,0.0,0.0,0.0,0.0,0.0,0.0,0.0,0.0,0.0,0.0,0.0,0.0,0.0,0.0,0.0,0.0,0.0,0.0,0.0,0.0,0.0,0.0,0.0,0.0,0.0,0.0,0.0,0.0,0.0,0.0,0.0,0.0,0.0,0.0,0.0,0.0,0.0,0.0,0.0,0.0,0.0,0.0,0.0,0.0,0.0,0.0,0.0,0.0,0.0,0.0,0.0,0.0,0.0,0.0,0.0,0.0,0.0,0.0,0.0,0.0,0.0,0.0,0.0,0.0,0.0,0.0,0.0,0.0,0.0,0.0,0.0,0.0,0.0,0.0,0.0,0.0,0.0,0.0,0.0,0.0,0.0,0.0,0.0,0.0,0.0,0.0,0.0,0.0,0.0,0.0,0.0,0.0,0.0,0.0,0.0,0.0,0.0,0.0,0.0,0.0,0.0,0.0,0.0,0.0,0.0,0.0,0.0,0.0,0.0,0.0,0.0,0.0,0.0,0.0,0.0,0.0,0.0,0.0,0.0,0.0,0.0,0.0,0.0,0.0,0.0,0.0,0.0,0.0,0.0,0.0,0.0,0.0,0.0,0.0,0.0,0.0,0.0,0.0,0.0,0.0,0.0,0.0,0.0,0.0,0.0,0.0,0.0,0.0,0.0,0.0,0.0,0.0,0.0,0.0,0.0,0.0,0.0,0.0,0.0,0.0,0.0,0.0,0.0,0.0,0.0,0.0,0.0,0.0,0.0,0.0,0.0,0.0,0.0,0.0,0.0,0.0,0.0,0.0,0.0,0.0,0.0,0.0,0.0,0.0,0.0,0.0,0.0,0.0,0.0,0.0,0.0,0.0,0.0,0.0,0.0,0.0,0.0,0.0,0.0,0.0,0.0,0.0,0.0,0.0,0.0,0.0,0.0,0.0,0.0,0.0,0.0,0.0,0.0,0.0,0.0,0.0,0.0,0.0,0.0,0.0,0.0,0.0,0.0,0.0,0.0,0.0,0.0,0.0,0.0,0.0,0.0,0.0,0.0,0.0,0.0,0.0,0.0,0.0,0.0,0.0,0.0,0.0,0.0,0.0,0.0,0.0,0.0,0.0,0.0,0.0,0.0,0.0,0.0,0.0,0.0,0.0,0.0,0.0,0.0,0.0,0.0,0.0,0.0,0.0,0.0,0.0,0.0,0.0,0.0,0.0,0.0,0.0,0.0,0.0,0.0,0.0,0.0,0.0,0.0,0.0,0.0,0.0,0.0,0.0,0.0,0.0,0.0,0.0,0.0,0.0,0.0,0.0,0.0,0.0,0.0,0.0,0.0,0.0,0.0,0.0,0.0,0.0,0.0,0.0,0.0,0.0,0.0,0.0,0.0,0.0,0.0,0.0,0.0,0.0,0.0,0.0,0.0,0.0,0.0,0.0,0.0,0.0,0.0,0.0,0.0,0.0,0.0,0.0,0.0,0.0,0.0,0.0,0.0,0.0,0.0,0.0,0.0,0.0,0.0,0.0,0.0,0.0,0.0,0.0,0.0,0.0,0.0,0.0,0.0,0.0,0.0,0.0,0.0,0.0,0.0,0.0,0.0,0.0,0.0,0.0,0.0,0.0,0.0,0.0,0.0,0.0,0.0,0.0,-0.9859,-1.0298,0.0,0.0,0.0,0.0,0.0,0.0,0.0,0.0,0.0,0.0,0.0,0.0,0.0,0.0,0.0,0.0,0.0,0.0,0.0,0.0,0.0,0.0,0.0,0.0,0.0,0.0,0.0,0.0,0.0,0.0,0.0,0.0,0.0,0.0,0.0,0.0,0.0,0.0,0.0,0.0,0.0,0.0,0.0,0.0,0.0,0.0,0.0,0.0,0.0,0.0,0.0,0.0,0.0,0.0,0.0,0.0,0.0,0.0,0.0,0.0,0.0,0.0,0.0,0.0,0.0,0.0,0.0,0.0,0.0,0.0,0.0,0.0,0.0,0.0,0.0,0.0,0.0,0.0,0.0,0.0,0.0,0.0,0.0,0.0,0.0,0.0,0.0,0.0,0.0,0.0,0.0,0.0,0.0,0.0,0.0,0.0,0.0,0.0,0.0,0.0,0.0,0.0,0.0,0.0,0.0,0.0,0.0,0.0,0.0,0.0,0.0,0.0,0.0,0.0,-1.1911,-1.1635,0.0,0.0,0.0,0.0,0.0,0.0,0.0,0.0,0.0,0.0,0.0,0.0,0.0,0.0,0.0,0.0,0.0,0.0,0.0,0.0,0.0,0.0,0.0,0.0,0.0,0.0,0.0,0.0,0.0,0.0,0.0,0.0,0.0,0.0,0.0,0.0,0.0,0.0,0.0,0.0,0.0,0.0,0.0,0.0,0.0,0.0,0.0,0.0,0.0,0.0,0.0,0.0,0.0,0.0,0.0,0.0,0.0,0.0,0.0,0.0,0.0,0.0,0.0,0.0,0.0,0.0,0.0,0.0,0.0,0.0,0.0,0.0,0.0,0.0,0.0,0.0,0.0,0.0,0.0,0.0,0.0,0.0,0.0,0.0,0.0,0.0,0.0,0.0,0.0,0.0,0.0,0.0,0.0,0.0,0.0,0.0,0.0,0.0,0.0,0.0,0.0,0.0,0.0,0.0,0.0,0.0,0.0,0.0,-1.6524,-1.6543,-1.6991,-1.7043,-1.7131,-1.702,-1.4487,-1.3625,-1.3978,-1.3671,0.0,0.0,0.0,0.0,0.0,0.0,0.0,0.0,0.0,0.0,0.0,0.0,0.0,0.0,0.0,0.0,0.0,0.0,0.0,0.0,0.0,0.0,0.0,0.0,0.0,0.0,0.0,0.0,0.0,0.0,0.0,0.0,0.0,0.0,0.0,0.0,0.0,0.0,-2.0172,-2.1054,-2.1882,-2.2585,-2.1075,0.0,0.0,0.0,0.0,0.0,0.0,0.0,0.0,0.0,0.0,0.0,0.0,0.0,0.0,0.0,0.0,0.0,0.0,0.0,0.0,0.0,0.0,0.0,0.0,0.0,0.0,0.0,0.0,0.0,0.0,0.0,0.0,0.0,0.0,0.0,0.0,0.0,0.0,0.0,0.0,0.0,0.0,0.0,-1.9538,-1.9275,0.0,0.0,0.0,0.0,0.0,0.0,0.0,0.0,0.0,0.0,0.0,0.0,0.0,-1.6658,-1.6945,-1.7609,-1.8168,-1.8699,-1.8963,-1.8733,-1.8095,-1.8233,-1.7963,-1.7417,-1.7014,0.0,-1.5612,-1.5681,0.0,0.0,0.0,0.0,0.0,0.0,0.0,0.0,0.0,0.0,0.0,0.0,0.0,0.0,0.0,0.0,0.0,0.0,0.0,0.0,0.0,0.0,0.0,0.0,0.0,0.0,0.0,0.0,0.0,0.0,0.0,0.0,0.0,0.0,0.0,0.0,-1.8531,-2.0035,-2.1255,-2.2081,-2.2656,-2.2968,-2.2169,-2.1642,-2.1374,-2.0957,0.0,0.0,0.0,0.0,0.0,0.0,0.0,0.0,0.0,0.0,0.0,0.0,0.0,0.0,0.0,0.0,0.0,0.0,0.0,0.0,0.0,0.0,0.0,0.0,0.0,0.0,0.0,0.0,0.0,0.0,0.0,0.0,0.0,0.0,0.0,0.0,0.0,0.0,0.0,-1.9839,-1.9958,-1.9737,-1.9847,-1.9873,0.0,0.0,0.0,0.0,0.0,0.0,0.0,0.0,0.0,-1.7707,-1.7792,-1.8035,-1.8463,-1.8741,-1.9056,-1.9339,-1.952,-1.9623,-1.9635,-1.9717,-1.9793,-1.9876,-1.9488,-1.9081,-1.8616,-1.7256,-1.6629,-1.6475,0.0,0.0,0.0,0.0,-1.6935,-1.715,0.0,0.0,0.0,0.0,0.0,0.0,0.0,0.0,0.0,0.0,0.0,0.0,0.0,0.0,0.0,-1.4905,0.0,0.0,0.0,0.0,0.0,0.0,0.0,0.0,0.0,0.0,0.0,0.0,-2.019,-2.1599,-2.2458,-2.3274,-2.3668,-2.365,-2.354,-2.2867,-2.1748,-2.1455,-2.0866,0.0,0.0,0.0,0.0,0.0,0.0,0.0,0.0,0.0,0.0,0.0,0.0,0.0,0.0,0.0,0.0,0.0,0.0,0.0,0.0,0.0,0.0,0.0,0.0,0.0,0.0,0.0,0.0,0.0,0.0,0.0,0.0,0.0,0.0,0.0,0.0,0.0,0.0,-2.0,-2.0058,-2.0023,-2.0097,-2.0143,0.0,0.0,0.0,0.0,0.0,0.0,-1.9174,-1.8996,-1.8956,-1.9127,-1.9029,-1.9212,-1.9712,-1.9739,-1.9921,-2.0267,-2.0311,-2.0621,-2.1094,-2.1066,-2.1366,-2.1836,-2.1259,-2.0983,-2.0749,-1.8691,-1.7881,-1.7881,-1.7629,-1.7629,-1.7689,-1.7504,-1.7698,-1.8028,0.0,0.0,0.0,0.0,0.0,0.0,0.0,0.0,0.0,0.0,0.0,0.0,0.0,0.0,-1.5405,-1.5729,-1.5878,-1.5915,0.0,0.0,0.0,0.0,0.0,0.0,0.0,0.0,0.0,-1.913,-2.1713,-2.3379,-2.4188,-2.5052,-2.5442,-2.5376,-2.5239,-2.4272,-2.2667,-2.1771,-2.1289,-2.1062,0.0,0.0,0.0,0.0,0.0,0.0,0.0,0.0,0.0,0.0,0.0,0.0,0.0,0.0,0.0,0.0,0.0,0.0,0.0,0.0,0.0,0.0,0.0,0.0,0.0,0.0,0.0,0.0,0.0,0.0,0.0,0.0,0.0,0.0,0.0,0.0,0.0,0.0,0.0,-1.9894,-2.0137,0.0,0.0,0.0,0.0,-2.055,-2.021,-2.0118,-2.0393,-1.9626,-1.9361,-1.9753,-1.9574,-1.9986,-2.1102,-2.0843,-2.1178,-2.209,-2.2252,-2.2269,-2.2113,-2.2057,-2.2062,-2.2068,-2.1907,-2.1478,-2.0833,-1.9997,-1.961,-1.9505,-1.9617,-1.9538,-1.9415,-1.9653,-1.9824,-1.9992,0.0,0.0,0.0,0.0,0.0,0.0,0.0,0.0,0.0,0.0,0.0,0.0,0.0,-1.5916,-1.6534,-1.6809,-1.785,-1.7799,-1.627,0.0,0.0,0.0,0.0,0.0,0.0,0.0,-1.9687,-2.1656,-2.3171,-2.4367,-2.5214,-2.5522,-2.5632,-2.555,-2.5472,-2.4814,-2.3728,-2.3228,-2.2352,-2.1299,-2.0994,-2.0717,0.0,0.0,0.0,0.0,0.0,0.0,0.0,0.0,0.0,0.0,0.0,0.0,0.0,0.0,0.0,0.0,0.0,0.0,0.0,0.0,0.0,0.0,0.0,0.0,0.0,0.0,0.0,0.0,0.0,0.0,0.0,0.0,0.0,0.0,0.0,0.0,0.0,-2.0217,-2.0471,0.0,-2.03,-2.0734,-2.0847,-2.0398,-2.0427,-2.0513,-2.0626,-2.0334,-2.0461,-2.1071,-2.1128,-2.1373,-2.1765,-2.1854,-2.2044,-2.2398,-2.247,-2.247,-2.2398,-2.2371,-2.2371,-2.2343,-2.2315,-2.2163,-2.1946,-2.1566,-2.081,-1.9857,-1.9899,-2.001,-2.015,-2.0312,-2.0524,-2.0749,0.0,0.0,0.0,0.0,0.0,0.0,0.0,0.0,0.0,0.0,0.0,-1.486,-1.6036,-1.6941,-1.7671,-1.8178,-1.8741,-1.8412,-1.6785,0.0,0.0,0.0,0.0,0.0,0.0,-1.9521,-2.1298,-2.2994,-2.4209,-2.5117,-2.57,-2.5703,-2.5659,-2.5601,-2.5557,-2.5246,-2.4733,-2.455,-2.3448,-2.1809,-2.1531,-2.1225,-2.0929,0.0,0.0,0.0,0.0,0.0,0.0,0.0,0.0,0.0,0.0,0.0,0.0,0.0,0.0,0.0,0.0,0.0,0.0,0.0,0.0,0.0,0.0,0.0,0.0,0.0,0.0,0.0,0.0,0.0,0.0,0.0,0.0,0.0,0.0,0.0,-2.0679,-2.0545,-2.0877,-2.1071,-2.099,-2.1277,-2.1252,-2.0776,-2.0949,-2.1104,-2.12,-2.1228,-2.1519,-2.2141,-2.2254,-2.2364,-2.2429,-2.2535,-2.2632,-2.2712,-2.2712,-2.2712,-2.2712,-2.2632,-2.2605,-2.2605,-2.2552,-2.2569,-2.2579,-2.2497,-2.1846,-2.0918,-2.0875,-2.1061,-2.1353,-2.1447,-2.1653,-2.1872,0.0,0.0,0.0,0.0,0.0,0.0,0.0,0.0,0.0,0.0,-1.4347,-1.5796,-1.6966,-1.7882,-1.8783,-1.9684,-1.8402,-1.7499,-1.7378,-1.5891,0.0,0.0,0.0,0.0,-1.7818,-2.1178,-2.2991,-2.3111,-2.4846,-2.5715,-2.5775,-2.5781,-2.5759,-2.5683,-2.5679,-2.5682,-2.5681,-2.5674,-2.4592,-2.2784,-2.1854,-2.199,-2.2537,0.0,0.0,0.0,0.0,0.0,0.0,0.0,0.0,0.0,0.0,0.0,0.0,0.0,0.0,0.0,0.0,0.0,0.0,0.0,0.0,0.0,0.0,0.0,0.0,0.0,0.0,0.0,0.0,0.0,0.0,0.0,0.0,0.0,-2.0909,-2.1119,-2.1183,-2.086,-2.1417,-2.1661,-2.134,-2.1617,-2.1827,-2.1844,-2.1827,-2.1957,-2.2226,-2.2309,-2.2527,-2.2893,-2.2825,-2.2894,-2.313,-2.2971,-2.2989,-2.319,-2.319,-2.319,-2.3165,-2.2963,-2.2868,-2.2851,-2.272,-2.264,-2.2605,-2.2685,-2.2712,-2.2712,-2.2624,-2.2773,-2.3003,-2.3168,-2.3295,-2.3417,0.0,0.0,0.0,0.0,0.0,0.0,0.0,0.0,0.0,0.0,-1.3792,-1.509,-1.6898,-1.7907,-1.8617,-1.8966,-1.861,-1.7871,-1.6679,0.0,0.0,0.0,0.0,0.0,-2.0489,-2.2713,-2.4476,-2.5757,-2.6926,-2.7496,-2.7514,-2.7558,-2.7576,-2.7563,-2.7514,-2.7483,-2.7473,-2.7418,-2.7103,-2.6431,-2.4302,-2.3211,-2.2722,0.0,0.0,0.0,0.0,0.0,0.0,0.0,0.0,0.0,0.0,0.0,0.0,0.0,0.0,0.0,0.0,0.0,0.0,0.0,0.0,0.0,0.0,0.0,0.0,0.0,0.0,0.0,0.0,0.0,0.0,0.0,0.0,-2.1751,-2.154,-2.1601,-2.1648,-2.154,-2.1691,-2.1751,-2.1678,-2.194,-2.2332,-2.2916,-2.2632,-2.272,-2.3333,-2.3478,-2.3317,-2.2834,-2.3954,-2.4348,-2.3911,-2.4427,-2.4716,-2.4769,-2.4769,-2.4769,-2.4769,-2.4716,-2.4392,-2.3885,-2.3859,-2.3501,-2.2952,-2.2842,-2.2868,-2.297,-2.2764,-2.285,-2.3168,-2.3295,-2.3553,-2.3834,0.0,0.0,0.0,0.0,0.0,0.0,0.0,0.0,0.0,0.0,-1.3899,-1.5216,-1.6947,-1.7625,-1.817,-1.8665,-1.806,-1.7236,-1.6278,0.0,0.0,0.0,0.0,-2.093,-2.2612,-2.4355,-2.5917,-2.7303,-2.7845,-2.8143,-2.8201,-2.8239,-2.8274,-2.8309,-2.8639,-2.8782,-2.8801,-2.9141,-2.9041,-2.8543,-2.6992,-2.5648,-2.4392,-2.3185,-2.2721,-2.2617,-2.1664,-2.1621,-2.2045,-2.2106,0.0,0.0,0.0,0.0,0.0,0.0,0.0,0.0,0.0,0.0,0.0,0.0,0.0,0.0,0.0,0.0,0.0,0.0,0.0,0.0,0.0,0.0,0.0,0.0,-2.2389,-2.2434,-2.3047,-2.2459,-2.2174,-2.267,-2.2681,-2.2719,-2.2932,-2.3185,-2.3465,-2.3715,-2.4126,-2.4363,-2.4431,-2.5185,-2.5285,-2.4444,-2.5401,-2.5623,-2.5009,-2.5384,-2.5544,-2.5517,-2.5428,-2.5401,-2.5401,-2.5401,-2.4998,-2.4304,-2.4304,-2.3839,-2.3095,-2.2952,-2.2977,-2.3095,0.0,0.0,0.0,0.0,-2.3728,-2.3976,0.0,0.0,0.0,0.0,0.0,0.0,0.0,0.0,0.0,0.0,0.0,-1.5651,-1.6925,-1.6892,-1.7229,-1.8295,-1.6866,-1.592,0.0,0.0,0.0,-1.8808,-2.0831,-2.2643,-2.4226,-2.5972,-2.729,-2.8167,-2.8268,-2.8372,-2.8476,-2.8491,-2.8578,-2.8752,-2.955,-2.9938,-3.0077,-3.0858,-3.0703,-2.9922,-2.9874,-2.8621,-2.6643,-2.5146,-2.4452,-2.4199,-2.3353,-2.305,-2.2927,-2.2149,0.0,0.0,0.0,0.0,0.0,0.0,0.0,0.0,0.0,0.0,0.0,0.0,0.0,0.0,0.0,0.0,0.0,0.0,0.0,0.0,0.0,0.0,0.0,0.0,-2.336,-2.3623,-2.5138,-2.3784,-2.3005,-2.4039,-2.4086,-2.4195,-2.4616,-2.5011,-2.506,-2.4541,-2.5932,-2.6408,-2.5542,0.0,0.0,0.0,0.0,-2.6834,-2.6225,-2.6115,-2.605,-2.6017,-2.5694,-2.5551,-2.5605,-2.5508,-2.5077,-2.4452,-2.4365,-2.3917,-2.3242,-2.3179,-2.3179,-2.3217,-2.308,-2.3151,-2.3365,-2.3624,-2.3816,-2.3958,0.0,0.0,0.0,0.0,0.0,0.0,0.0,0.0,0.0,-1.2879,-1.382,-1.4852,-1.6008,-1.5038,-1.4906,-1.6383,-1.5046,-1.4369,0.0,0.0,-1.919,-1.8833,-2.1956,-2.4173,-2.5212,-2.6934,-2.8262,-2.913,-2.9889,-3.0244,-3.0216,-3.0279,-3.0682,-3.1363,-3.1532,-3.2001,-3.2689,-3.2836,-3.2807,-3.2645,-3.2625,-3.0287,-2.6753,-2.6371,-2.5434,-2.4261,-2.4025,-2.3941,-2.3928,-2.3754,-2.3755,-2.3846,-2.3898,0.0,0.0,0.0,0.0,0.0,0.0,0.0,0.0,0.0,0.0,0.0,0.0,0.0,0.0,0.0,0.0,0.0,0.0,0.0,0.0,-2.4182,-2.4603,-2.5526,-2.7343,-2.6206,-2.5173,-2.5132,-2.535,-2.5539,-2.5612,-2.6268,-2.6614,-2.6462,-2.7415,-2.7594,-2.6712,-2.8282,-2.8264,-2.6197,-2.8048,-2.838,-2.6993,-2.7326,-2.7647,-2.7947,0.0,0.0,-2.6907,-2.6045,-2.5569,-2.5409,-2.4786,-2.4357,-2.4023,-2.3608,-2.3667,-2.3997,-2.334,-2.3301,-2.3646,-2.3671,-2.3919,-2.4229,0.0,0.0,0.0,0.0,0.0,0.0,0.0,0.0,0.0,0.0,-1.2472,-1.3075,-1.341,-1.2394,-1.2352,-1.3962,-1.3754,0.0,0.0,-1.7956,-1.9838,-2.08,-2.2975,-2.4987,-2.6754,-2.7647,-2.8748,-3.0056,-3.0515,-3.0755,-3.0751,-3.1237,-3.167,-3.2148,-3.3006,-3.3631,-3.4081,-3.4527,-3.4448,-3.4057,-3.4053,-3.219,-2.94,-2.8938,-2.7437,-2.5581,-2.5525,-2.524,-2.4839,-2.4361,-2.4184,-2.4154,-2.4188,-2.3887,-2.3396,0.0,0.0,0.0,0.0,0.0,0.0,0.0,0.0,0.0,0.0,0.0,0.0,0.0,0.0,-2.3894,0.0,0.0,-2.5084,-2.5603,-2.5993,-2.6837,-2.8522,-2.7895,-2.7284,-2.7343,-2.6462,-2.6154,-2.6941,-2.737,-2.7655,-2.7785,-2.9332,-2.9873,-2.9008,-3.0494,-3.0694,-2.9106,-2.9854,-2.9789,-2.8718,-2.8482,-2.843,-2.8594,-2.7476,-2.7074,-2.7227,-2.6706,-2.6218,-2.5832,-2.5512,-2.507,-2.4545,-2.3921,-2.3809,-2.3998,-2.3606,-2.3809,-2.4284,-2.4284,-2.4561,-2.4912,0.0,0.0,0.0,0.0,0.0,0.0,0.0,0.0,0.0,0.0,-1.1205,-1.1358,-1.0971,-0.995,-0.9865,0.0,0.0,0.0,0.0,-1.8061,-2.0317,-2.2269,-2.3636,-2.5526,-2.8055,-2.8107,-2.8955,-3.0717,-3.071,-3.0828,-3.1071,-3.176,-3.229,-3.2675,-3.4062,-3.4785,-3.5,-3.5684,-3.5586,-3.4922,-3.492,-3.3983,-3.2499,-3.1617,-2.957,-2.716,-2.7094,-2.634,-2.5284,-2.4665,-2.4354,-2.4244,-2.4411,-2.3976,-2.3338,-2.2929,-2.2315,0.0,0.0,0.0,0.0,0.0,0.0,0.0,0.0,0.0,-2.436,-2.5208,-2.5087,-2.5117,-2.5965,-2.6108,-2.6348,-2.6982,-2.7402,-2.8048,-2.9268,-2.9148,-2.9054,-2.9404,-2.7653,-2.69,-2.8138,-2.8407,-2.8549,-2.8669,-3.0765,-3.1665,-3.0821,-3.2291,-3.2736,-3.1774,-3.1292,-3.0732,-2.9971,-2.9168,-2.8767,-2.8767,-2.7723,-2.718,-2.7109,-2.6898,-2.6531,-2.6069,-2.6255,-2.5922,-2.5172,-2.4541,-2.4287,-2.4266,-2.4266,-2.4574,-2.4986,-2.4986,-2.5246,-2.5579,0.0,0.0,0.0,0.0,0.0,0.0,0.0,0.0,0.0,0.0,0.0,0.0,0.0,0.0,0.0,0.0,0.0,0.0,-1.3967,-1.9078,-2.1637,-2.0467,-2.3512,-2.6141,-2.8054,-2.81,-2.8977,-3.0793,-3.0782,-3.1184,-3.1968,-3.2046,-3.2921,-3.4425,-3.4549,-3.5077,-3.5855,-3.5898,-3.5859,-3.5762,-3.5762,-3.5193,-3.4222,-3.3356,-3.0994,-2.8124,-2.8071,-2.6525,-2.4635,-2.5236,-2.4927,-2.4427,-2.5207,-2.533,-2.4904,-2.3357,0.0,-2.2538,-2.1661,-2.1936,-2.2498,-2.2642,-2.3689,-2.4896,0.0,0.0,-2.6493,-2.7301,-2.654,-2.6,-2.6831,-2.6931,-2.6982,-2.7302,-2.8576,-2.9624,-2.9965,-3.0021,-3.0009,-3.0008,-2.9192,-2.8704,-2.8887,-2.9545,-2.9679,-2.9007,-3.0528,-3.1132,-3.0326,-3.181,-3.1994,-3.0455,-3.1047,-3.0644,-2.914,-2.8779,-2.8767,-2.9044,-2.7918,-2.7154,-2.6725,-2.5761,-2.5669,-2.6304,-2.6904,-2.6853,-2.6286,-2.6045,-2.5919,-2.5932,-2.5932,-2.5648,-2.5252,-2.5329,-2.5523,-2.5871,0.0,0.0,0.0,0.0,0.0,0.0,0.0,0.0,0.0,0.0,0.0,0.0,0.0,0.0,0.0,0.0,0.0,0.0,-1.3647,-1.8298,-2.1043,-2.0915,-2.3274,-2.5434,-2.7256,-2.7775,-2.8663,-2.9926,-3.0477,-3.1198,-3.2055,-3.2596,-3.3509,-3.473,-3.5203,-3.5906,-3.6726,-3.6183,-3.6241,-3.6673,-3.6163,-3.5445,-3.451,-3.3125,-3.08,-2.8221,-2.7653,-2.6122,0.0,0.0,-2.391,-2.3657,-2.398,-2.4427,-2.4471,-2.2699,-2.2882,0.0,-2.3209,-2.3623,-2.4293,0.0,-2.639,-2.7911,-2.829,-2.9133,-2.9962,-3.0298,-2.9951,-2.9654,-2.9965,-2.9606,-2.927,0.0,-3.0268,-3.0854,-3.0392,-3.0789,-3.0752,-2.9747,-2.8956,-2.8618,-2.898,-2.931,-2.9567,-2.9696,-3.1201,-3.1751,-3.0944,-3.199,-3.2302,-3.1623,-3.1017,-3.0595,-3.0393,-2.9362,-2.8905,-2.9021,-2.8082,-2.7515,-2.7316,-2.6878,-2.6874,-2.7226,-2.7043,-2.6851,-2.6645,-2.6107,-2.5902,-2.5866,-2.5386,-2.5354,-2.5523,-2.539,-2.5857,-2.6616,0.0,0.0,0.0,0.0,0.0,0.0,0.0,0.0,0.0,0.0,0.0,0.0,0.0,0.0,0.0,0.0,0.0,0.0,0.0,-1.7576,-2.0183,-2.0724,-2.2613,-2.4378,-2.5952,-2.7083,-2.8183,-2.9288,-3.0022,-3.1047,-3.2372,-3.3067,-3.3866,-3.4744,-3.5603,-3.6228,-3.656,-3.6169,-3.6364,-3.6872,-3.5991,-3.5115,-3.4122,-3.2163,-2.994,-2.7803,-2.6894,-2.533,0.0,0.0,-2.2937,-2.2816,-2.3244,-2.3828,-2.4086,-2.282,-2.3286,-2.4238,-2.4251,0.0,0.0,-2.7122,-2.909,-3.0867,-3.1077,-3.2079,-3.294,-3.294,-3.2693,-3.2389,-3.2086,-3.137,-3.0711,-3.0368,-3.1001,-3.1179,-3.0275,-3.0702,-3.0575,-2.9103,-2.8251,-2.8024,-2.8684,-2.8758,-2.9089,-2.9927,-3.1088,-3.161,-3.127,-3.1782,-3.2066,-3.2035,-3.0894,-3.0428,-3.0742,-2.9586,-2.8994,-2.8975,-2.8411,-2.8007,-2.7787,-2.7787,-2.7827,-2.7853,-2.7511,-2.7387,-2.7409,-2.6914,-2.6544,-2.6265,-2.5708,-2.5744,-2.6096,-2.5913,-2.6488,-2.7419,0.0,0.0,0.0,0.0,0.0,0.0,0.0,0.0,0.0,0.0,0.0,0.0,0.0,0.0,0.0,0.0,0.0,0.0,0.0,-1.7497,-1.9528,-1.8915,-2.1369,-2.3189,-2.4152,-2.5854,-2.7574,-2.9303,-2.9454,-3.0813,-3.3268,-3.3363,-3.3866,-3.4744,-3.5603,-3.5545,-3.4822,-3.5642,-3.601,-3.5952,-3.5093,-3.4222,-3.3158,-3.0643,-2.8544,-2.6841,-2.6037,0.0,0.0,0.0,-2.2539,-2.2128,-2.3835,-2.4376,0.0,-2.4321,-2.4303,-2.4316,0.0,0.0,-2.8133,-2.8989,-3.1021,-3.3025,-3.3794,-3.441,-3.4832,-3.4813,-3.3936,-3.2919,-3.2054,-3.1203,-3.0336,-2.9481,-3.0018,-3.0234,-2.9357,-2.9326,-2.9029,-2.8153,-2.7397,-2.7249,0.0,-2.812,-2.8515,-2.9454,-2.9566,-2.9942,-3.077,-3.0845,-3.0764,-3.0572,-3.0513,-3.0035,-2.909,-2.9012,-2.8994,-2.8994,-2.8975,-2.8558,-2.7787,-2.7787,-2.7787,-2.7864,-2.8662,-2.9016,-2.9038,-2.9148,-2.869,-2.7931,-2.7973,-2.7643,-2.7146,-2.7146,-2.7549,-2.8199,0.0,0.0,0.0,0.0,0.0,0.0,0.0,0.0,0.0,0.0,0.0,0.0,0.0,0.0,0.0,0.0,0.0,0.0,0.0,-1.6947,-1.8684,-1.7974,-1.939,-2.0877,-2.2331,-2.4042,-2.5475,-2.6659,-2.7888,-2.9239,-3.0644,-3.0709,-3.1208,-3.2065,-3.2357,-3.264,-3.2888,-3.2606,-3.3173,-3.4098,-3.2075,-3.145,-3.1404,-2.8227,-2.6281,-2.5046,0.0,0.0,0.0,-2.1402,-2.1528,-2.1893,-2.2499,-2.3476,-2.4492,-2.5037,-2.559,-2.6152,-2.6759,0.0,-3.0798,-3.1601,-3.3661,-3.5708,-3.6569,-3.73,-3.7498,-3.6332,-3.4439,-3.2569,-3.1104,-2.9703,-2.8791,-2.8879,-2.96,-2.983,-2.8821,-2.9643,-2.9438,-2.697,-2.6932,0.0,0.0,0.0,0.0,-2.9299,-2.9938,-3.0203,-2.9962,-3.1033,-3.1633,-3.1551,-3.1424,-3.1203,-3.0857,-3.0157,-2.9549,-2.9017,-2.9138,-2.9058,-2.878,-2.8387,-2.8343,-2.8576,-2.854,-2.8725,-2.9075,-2.8773,-2.8384,-2.795,-2.7587,-2.7678,-2.7992,-2.7992,-2.8553,-2.9264,0.0,0.0,0.0,0.0,0.0,0.0,0.0,0.0,0.0,0.0,0.0,0.0,0.0,0.0,0.0,0.0,0.0,0.0,0.0,0.0,-1.7598,-1.661,-1.7726,-1.8627,-1.9175,-2.1426,-2.3036,-2.3909,-2.5112,-2.6316,-2.7486,-2.7861,-2.8343,-2.8907,-2.953,-3.013,-3.0614,-3.0044,-3.0472,-3.1363,-2.9374,-2.8555,-2.8265,-2.5717,-2.4197,0.0,0.0,0.0,0.0,-2.0934,-2.1262,-2.1885,-2.253,-2.3716,-2.509,-2.6229,-2.6953,-2.7785,-2.9565,-3.1404,-3.3179,-3.4623,-3.614,-3.7475,-3.8376,-3.8458,-3.7882,-3.6155,-3.3999,-3.1872,-3.0157,-2.8663,-2.7835,-2.8251,-2.8774,-2.8996,-2.8609,-2.9219,-2.9047,-2.7244,-2.7225,-2.7263,0.0,0.0,0.0,-2.9007,-3.015,-3.047,-2.9664,-3.128,-3.2052,-3.1673,-3.1873,-3.1939,-3.1874,-3.0943,-3.0021,-2.9225,-2.9334,-2.9415,-2.9397,-2.9008,-2.897,-2.9188,-2.8855,-2.8929,-2.9254,-2.8932,-2.8727,-2.8556,-2.822,-2.8438,-2.8957,-2.8992,-2.9447,-2.9965,0.0,0.0,0.0,0.0,0.0,0.0,0.0,0.0,0.0,0.0,0.0,0.0,0.0,0.0,0.0,0.0,0.0,0.0,0.0,0.0,0.0,-1.5018,-1.6442,-1.6574,-1.5095,-1.8285,-2.0384,-2.1264,-2.1434,-2.2378,-2.4006,-2.4918,-2.5357,-2.5464,-2.7118,-2.7897,-2.7936,-2.7921,-2.796,-2.7917,-2.6997,-2.5701,-2.4193,-2.3235,0.0,0.0,0.0,0.0,0.0,0.0,0.0,0.0,0.0,-2.5135,-2.6168,-2.786,-2.8463,-2.9272,-3.2565,-3.408,-3.5318,-3.7831,-3.8294,-3.8344,-3.9174,-3.7918,-3.6108,-3.4436,-3.2582,-3.0764,0.0,0.0,-2.7376,-2.7523,-2.7593,-2.7899,-2.8681,-2.8185,-2.8026,0.0,0.0,0.0,0.0,0.0,0.0,-2.8761,0.0,-3.071,-3.0018,-3.1555,-3.2052,-3.1073,-3.194,-3.2278,-3.2021,-3.1202,-3.0415,-2.9608,-2.9608,-2.9626,-2.9626,-2.9626,-2.9626,-2.9608,-2.9608,-2.9608,-2.9608,-2.9681,-2.9717,-2.9717,-2.9771,-2.9888,-3.0007,-3.0075,-3.0174,-3.026,0.0,0.0,0.0,0.0,0.0,0.0,0.0,0.0,0.0,0.0,0.0,0.0,0.0,0.0,0.0,0.0,0.0,0.0,0.0,0.0,0.0,0.0,0.0,0.0,0.0,0.0,0.0,0.0,0.0,-2.071,-2.1141,-2.1485,-2.201,-2.2648,-2.3081,-2.3682,-2.4316,-2.4277,-2.4652,-2.5162,0.0,-2.3537,-2.4067,0.0,0.0,0.0,0.0,0.0,0.0,0.0,0.0,0.0,0.0,-2.6932,-2.7851,-2.8945,-3.0603,-3.2439,-3.3965,-3.5896,-3.7806,-3.9111,-3.8926,-3.8468,-3.8681,-3.6839,-3.4582,-3.2908,-3.0085,-2.7605,0.0,0.0,0.0,-2.6587,-2.7324,0.0,-2.8759,-2.9211,0.0,-2.8945,0.0,-2.9614,-2.9857,-3.0412,0.0,0.0,-3.1107,-3.1249,-3.0953,-3.2578,-3.3344,-3.2996,-3.3654,-3.3383,-3.2105,-3.06,-2.9814,-2.9754,-2.9805,-2.9822,-2.9839,-2.9969,-2.9869,-2.9608,-2.9751,-2.9734,-2.9608,-2.9787,-2.9787,-2.9717,-2.9891,-2.9969,-2.9992,-3.0026,-3.0147,-3.0286,0.0,0.0,0.0,0.0,0.0,0.0,0.0,0.0,0.0,0.0,0.0,0.0,0.0,0.0,0.0,0.0,0.0,0.0,0.0,0.0,0.0,0.0,0.0,0.0,0.0,0.0,0.0,0.0,0.0,0.0,0.0,-1.8367,-1.9071,-1.9947,-2.0332,-2.1222,-2.2402,-2.1977,0.0,0.0,0.0,0.0,0.0,0.0,0.0,0.0,0.0,0.0,0.0,0.0,0.0,-2.696,-2.8251,-2.9285,-3.0332,-3.1934,0.0,-3.4902,-3.6542,-3.8005,-3.9198,-3.9677,-3.8843,-3.7692,-3.6925,-3.4722,-3.2357,-3.0645,-2.8113,0.0,-2.5627,0.0,0.0,0.0,0.0,0.0,-2.839,-2.9552,-3.0283,0.0,-3.0929,0.0,-3.148,-3.1872,-3.2141,0.0,-3.2396,-3.2354,-3.1939,-3.347,-3.4125,-3.3675,-3.4336,-3.3898,-3.226,-3.1261,-3.047,-2.9841,-2.994,-2.9991,-2.9988,-3.0128,-3.0079,-2.9872,-2.9969,-2.9953,-2.9869,-2.9988,-2.9988,-2.9921,-3.0034,-3.0079,-3.009,-3.0085,-3.0161,-3.0324,0.0,0.0,0.0,0.0,0.0,0.0,0.0,0.0,0.0,0.0,0.0,0.0,0.0,0.0,0.0,0.0,0.0,0.0,0.0,0.0,0.0,0.0,0.0,0.0,0.0,0.0,0.0,0.0,0.0,0.0,0.0,0.0,0.0,0.0,0.0,0.0,0.0,0.0,0.0,0.0,0.0,0.0,0.0,0.0,0.0,0.0,0.0,0.0,0.0,0.0,-2.7531,-2.8846,-3.0593,-3.187,-3.3164,-3.5488,-3.625,-3.6875,-3.9258,-3.9941,-3.9961,-3.9844,-3.8456,-3.6635,-3.4773,-3.2377,-3.0053,-2.8295,0.0,-2.5596,-2.5599,-2.4987,-2.4735,-2.5538,0.0,-2.7058,-2.8025,-2.9476,-3.0772,-3.17,-3.2464,-3.2966,-3.3082,-3.3198,-3.3256,-3.3256,-3.3801,-3.3776,-3.2938,-3.4213,-3.4603,-3.3808,-3.4339,-3.3923,-3.239,-3.2257,-3.1442,-2.9891,-3.0022,-3.0072,-3.0087,-3.0128,-3.0157,-3.0157,-3.0157,-3.0157,-3.0157,-3.019,-3.019,-3.019,-3.0204,-3.0204,-3.0185,-3.0194,-3.0265,-3.0494,0.0,0.0,0.0,0.0,0.0,0.0,0.0,0.0,0.0,0.0,-0.7378,-0.697,0.0,0.0,0.0,0.0,0.0,0.0,0.0,0.0,0.0,0.0,0.0,0.0,0.0,0.0,0.0,0.0,0.0,0.0,0.0,0.0,0.0,0.0,0.0,0.0,0.0,0.0,0.0,0.0,0.0,0.0,0.0,0.0,0.0,0.0,0.0,0.0,0.0,0.0,-2.7848,-3.0651,-3.2397,-3.4041,-3.5566,-3.6738,-3.7578,-3.8418,-3.957,-4.043,-4.0781,-4.0059,-3.8554,-3.6618,-3.4156,-3.1578,0.0,0.0,-2.6305,-2.5595,-2.5595,-2.5483,-2.5629,-2.644,0.0,0.0,0.0,0.0,-3.0095,0.0,0.0,0.0,0.0,0.0,0.0,0.0,-3.4936,-3.4943,-3.3909,-3.4779,-3.5124,-3.4699,-3.4112,-3.3261,-3.2164,-3.1544,-3.075,-2.9825,-2.9891,-2.994,-2.994,-2.9956,-2.9937,-2.9937,-2.9937,0.0,-2.9972,-3.0068,-3.0117,-3.0117,-3.019,-3.0204,-3.0204,-3.0199,-3.0658,-3.1307,0.0,0.0,0.0,0.0,0.0,0.0,0.0,0.0,-1.0182,-0.9106,-0.8343,-0.8241,-0.9152,-1.0006,0.0,0.0,0.0,0.0,0.0,0.0,0.0,0.0,0.0,0.0,0.0,0.0,0.0,0.0,0.0,0.0,0.0,0.0,0.0,0.0,0.0,0.0,0.0,0.0,0.0,0.0,0.0,0.0,0.0,0.0,0.0,0.0,0.0,0.0,0.0,0.0,-2.796,-3.0586,-3.324,-3.4961,-3.6348,-3.8125,-3.8945,-3.9473,-4.0332,-4.0879,-4.0762,-3.8984,-3.7246,-3.5156,-3.2109,0.0,0.0,0.0,-2.5933,-2.565,-2.565,0.0,0.0,0.0,0.0,0.0,0.0,0.0,0.0,0.0,0.0,0.0,0.0,0.0,0.0,-3.5065,-3.5422,-3.5427,-3.4955,-3.522,-3.5273,-3.5015,-3.4527,-3.362,-3.2279,-3.1808,-3.096,-2.9756,-2.9825,-2.9841,-2.9857,-2.9872,-2.9888,-2.9888,-2.9888,-2.9888,-2.9905,-2.9972,-3.0007,-3.0007,-3.0034,-3.0083,-3.0204,-3.0624,-3.1092,-3.1618,0.0,0.0,0.0,0.0,0.0,0.0,0.0,-0.8756,-1.0301,-0.8912,-0.9052,-0.9585,-1.0419,-1.0583,-1.1404,0.0,0.0,0.0,0.0,0.0,0.0,0.0,0.0,0.0,0.0,0.0,0.0,0.0,0.0,0.0,0.0,0.0,0.0,0.0,0.0,0.0,0.0,0.0,0.0,0.0,0.0,0.0,0.0,0.0,0.0,0.0,0.0,0.0,0.0,0.0,-2.7444,-2.9464,-3.2594,-3.4569,-3.6152,-3.8418,-3.9336,-3.9805,-4.0684,-4.1055,-4.0566,-3.7949,-3.5996,-3.3809,-3.0371,-2.8242,0.0,0.0,-2.5703,-2.5703,-2.5703,0.0,0.0,0.0,0.0,0.0,0.0,0.0,0.0,0.0,0.0,0.0,0.0,0.0,0.0,-3.5392,-3.5535,-3.5631,-3.5704,-3.5553,-3.5378,-3.5178,-3.5049,-3.4258,-3.274,-3.2561,-3.177,-3.0336,-3.0217,-3.0139,-3.0139,-2.9983,-2.9921,-2.9953,-2.9905,-3.0002,-3.0154,-3.0205,-3.0205,-3.0205,-3.0222,-3.03,-3.0519,-3.1149,-3.1675,-3.2269,0.0,0.0,0.0,0.0,0.0,0.0,0.0,-1.0937,-1.1773,-0.8366,-0.9243,-1.0271,-1.0486,-1.0514,-1.1459,0.0,0.0,0.0,0.0,0.0,0.0,0.0,0.0,0.0,0.0,0.0,0.0,0.0,0.0,0.0,0.0,0.0,0.0,0.0,0.0,0.0,0.0,0.0,0.0,0.0,0.0,0.0,0.0,0.0,0.0,0.0,0.0,0.0,0.0,0.0,0.0,-2.7388,-2.9366,-3.2214,-3.5019,-3.6055,0.0,0.0,-3.9785,-4.0605,-4.0566,-3.7949,-3.5996,-3.3809,-3.0371,0.0,0.0,-2.5879,-2.5699,-2.5709,-2.5709,-2.5697,-2.5696,0.0,0.0,-2.632,0.0,0.0,0.0,0.0,0.0,0.0,0.0,0.0,0.0,-3.4434,-3.516,-3.5628,-3.5704,-3.5673,-3.5577,-3.5378,-3.5364,-3.4832,-3.3777,-3.3742,-3.3303,-3.2405,-3.1622,-3.1259,-3.1206,-3.0311,-2.9965,-3.008,-2.995,-3.0305,0.0,-3.1108,-3.1159,-3.1175,-3.1238,-3.1369,-3.1552,-3.1648,-3.2628,-3.3974,0.0,0.0,0.0,0.0,0.0,0.0,0.0,-1.0412,-1.1347,-0.8961,-0.8347,-0.856,-0.9655,-0.9812,-1.0869,0.0,0.0,0.0,0.0,0.0,0.0,0.0,0.0,0.0,0.0,0.0,0.0,0.0,0.0,0.0,0.0,0.0,0.0,0.0,0.0,0.0,0.0,0.0,0.0,0.0,0.0,0.0,0.0,0.0,0.0,0.0,0.0,0.0,0.0,0.0,0.0,0.0,-2.6702,-2.8421,0.0,0.0,-3.5644,-3.7285,-3.873,-4.0137,-4.0449,-3.7305,-3.5215,-3.3027,-2.9606,0.0,0.0,-2.578,-2.5699,-2.5694,-2.5709,-2.5691,-2.5709,-2.5696,0.0,0.0,0.0,0.0,0.0,0.0,0.0,0.0,0.0,0.0,0.0,-3.5014,-3.5367,-3.5604,-3.5628,-3.5639,-3.5596,-3.5515,-3.543,-3.4957,-3.4021,-3.3938,-3.3486,-3.2634,-3.234,-3.19,-3.1384,-3.0986,-3.0547,-3.0109,-3.0037,-3.0198,0.0,-3.1119,-3.1058,-3.0696,-3.1756,-3.1938,-3.1706,-3.2762,-3.3596,-3.4257,0.0,0.0,0.0,0.0,0.0,-0.879,-0.751,-0.9312,-1.0103,-0.8075,-0.7423,-0.7526,-0.8514,-0.9125,-1.043,-1.2798,0.0,0.0,0.0,0.0,0.0,0.0,0.0,0.0,0.0,0.0,0.0,0.0,0.0,0.0,0.0,0.0,-1.9412,-2.0294,0.0,0.0,0.0,0.0,0.0,0.0,0.0,0.0,0.0,0.0,0.0,0.0,0.0,0.0,0.0,0.0,0.0,0.0,0.0,0.0,0.0,0.0,-3.324,-3.5175,-3.6953,-3.8711,-3.9277,-3.6034,-3.4101,-3.2128,0.0,0.0,0.0,-2.5696,-2.5697,-2.5696,-2.5709,-2.5707,-2.5707,-2.5707,0.0,-2.5929,0.0,0.0,0.0,0.0,0.0,0.0,0.0,0.0,-3.5488,-3.5509,-3.5534,-3.5566,-3.5566,-3.5566,-3.5579,-3.5591,-3.5509,-3.5166,-3.4557,-3.4194,-3.3825,-3.3485,-3.3015,-3.2593,-3.2248,-3.1957,-3.1364,-3.0567,-3.0527,-3.0499,0.0,-3.1183,-3.1216,-3.1024,-3.2264,-3.2601,-3.2506,-3.3737,-3.4379,-3.4725,0.0,0.0,0.0,0.0,0.0,0.0,0.0,-0.8012,-0.8093,-0.4961,-0.6671,-0.7889,-0.7101,-0.8566,-1.0334,-1.2153,0.0,0.0,0.0,0.0,0.0,0.0,0.0,0.0,0.0,0.0,0.0,0.0,0.0,0.0,0.0,0.0,0.0,0.0,0.0,0.0,0.0,0.0,0.0,0.0,0.0,0.0,0.0,0.0,0.0,0.0,0.0,0.0,0.0,0.0,0.0,0.0,0.0,0.0,0.0,0.0,-3.0094,-3.2517,-3.4277,-3.6014,-3.6713,-3.4072,-3.2767,-3.1228,0.0,0.0,-2.5707,-2.5707,-2.5707,-2.5707,-2.5707,-2.5707,-2.5707,-2.5707,-2.5707,0.0,0.0,0.0,0.0,0.0,0.0,0.0,0.0,0.0,-3.5507,-3.5507,-3.5507,0.0,-3.5507,-3.5507,-3.5534,-3.5591,-3.5591,-3.5591,-3.5572,-3.4723,-3.4723,-3.5553,-3.3817,-3.345,-3.4248,-3.3237,-3.2385,-3.1672,-3.1533,-3.15,0.0,-3.1494,-3.1987,-3.2781,-3.2865,-3.3504,-3.4369,-3.4389,-3.493,-3.5684,0.0,0.0,0.0,0.0,0.0,0.0,0.0,-0.7448,-0.7214,-0.6271,-0.6429,-0.6544,-0.6337,-0.8321,-1.0179,-1.1438,0.0,0.0,0.0,0.0,0.0,0.0,0.0,0.0,0.0,0.0,0.0,0.0,0.0,0.0,0.0,0.0,0.0,0.0,0.0,0.0,0.0,0.0,0.0,0.0,0.0,0.0,0.0,0.0,0.0,0.0,0.0,0.0,0.0,0.0,0.0,0.0,0.0,0.0,0.0,0.0,0.0,0.0,-3.1559,-3.2869,-3.3396,-3.1973,-3.0976,-2.9746,-2.7519,0.0,-2.57,-2.5709,-2.5707,-2.5707,-2.5707,-2.5707,-2.5707,-2.5707,-2.5707,0.0,0.0,0.0,0.0,0.0,0.0,0.0,0.0,0.0,-3.5609,-3.557,-3.557,-3.554,-3.5507,-3.5493,-3.5507,-3.5534,-3.5534,-3.5534,-3.5534,-3.5297,-3.5302,-3.5528,-3.5032,-3.4608,-3.4287,-3.3961,-3.3056,-3.1703,-3.1669,-3.1318,-3.0868,-3.1457,-3.1842,-3.2158,-3.3376,-3.4056,-3.44,-3.501,-3.5388,-3.5631,0.0,0.0,0.0,0.0,0.0,0.0,0.0,-0.655,-0.6104,-0.6481,-0.6448,-0.6424,-0.6481,-0.844,-1.0005,-1.0646,0.0,0.0,0.0,0.0,0.0,0.0,0.0,0.0,0.0,0.0,0.0,0.0,0.0,0.0,0.0,0.0,0.0,0.0,0.0,0.0,0.0,0.0,0.0,0.0,0.0,0.0,-2.0399,0.0,0.0,0.0,0.0,0.0,0.0,0.0,0.0,0.0,0.0,0.0,0.0,0.0,-2.6155,0.0,0.0,-3.0458,-3.0911,-3.0073,-2.945,0.0,0.0,0.0,-2.5702,-2.5691,-2.5707,-2.5707,-2.5707,-2.5707,-2.5707,-2.5707,-2.5707,0.0,0.0,0.0,0.0,0.0,0.0,0.0,0.0,-3.5349,-3.5676,-3.5631,-3.565,-3.562,-3.5581,-3.5581,-3.5558,-3.5547,-3.5522,-3.5515,-3.5507,-3.522,-3.5226,-3.5509,-3.5207,-3.4956,-3.4751,-3.4751,-3.3981,-3.2613,-3.2305,-3.17,0.0,-3.1538,-3.1923,-3.2328,-3.3747,-3.4511,-3.4858,-3.5399,-3.5777,-3.6002,0.0,0.0,0.0,0.0,0.0,0.0,0.0,0.0,0.0,-0.5859,-0.6747,-0.7353,-0.756,-0.896,-0.9963,-1.0092,0.0,0.0,0.0,0.0,0.0,0.0,0.0,0.0,0.0,0.0,0.0,-1.7613,-1.6877,-1.6897,-1.7639,0.0,0.0,0.0,0.0,0.0,0.0,0.0,0.0,0.0,0.0,0.0,0.0,0.0,0.0,0.0,0.0,0.0,0.0,0.0,0.0,0.0,0.0,0.0,0.0,0.0,0.0,0.0,0.0,0.0,0.0,0.0,0.0,0.0,0.0,0.0,0.0,-2.5691,-2.5707,-2.5707,-2.5707,-2.5707,-2.5707,-2.5707,0.0,0.0,0.0,0.0,0.0,0.0,0.0,0.0,0.0,-3.4763,-3.571,-3.571,-3.571,-3.5702,-3.5693,-3.5693,-3.5678,-3.5599,-3.554,-3.5501,-3.5507,-3.4699,-3.4699,-3.5474,-3.468,-3.4718,-3.5493,-3.5493,-3.5026,0.0,-3.3333,-3.2526,-3.1795,-3.1792,-3.2305,-3.3171,-3.3986,-3.4827,-3.5591,-3.5591,-3.6061,-3.6601,0.0,0.0,0.0,0.0,0.0,0.0,0.0,0.0,0.0,0.0,-0.758,-0.8699,-1.0051,-1.0646,-1.1225,0.0,0.0,0.0,0.0,0.0,0.0,0.0,0.0,0.0,0.0,0.0,0.0,-1.6861,-1.6676,-1.6661,-1.6889,-1.8378,0.0,0.0,0.0,0.0,0.0,0.0,0.0,0.0,0.0,0.0,0.0,0.0,0.0,0.0,-2.0399,-2.0534,0.0,0.0,0.0,0.0,0.0,0.0,0.0,0.0,-2.451,-2.4603,-2.5933,0.0,-2.5704,-2.6185,-2.6302,0.0,0.0,0.0,0.0,0.0,0.0,0.0,0.0,0.0,0.0,0.0,0.0,0.0,0.0,0.0,0.0,0.0,0.0,0.0,0.0,-3.4917,-3.5914,-3.5852,-3.5846,-3.5801,-3.5702,-3.5693,-3.5685,-3.5687,-3.566,-3.5607,-3.5507,-3.5295,-3.5295,-3.5507,-3.5295,-3.5315,-3.5493,-3.5493,-3.5026,-3.418,-3.3968,-3.341,-3.2622,-3.2615,-3.3134,-3.3943,-3.4148,-3.4764,-3.5534,-3.5534,-3.5643,-3.5785,0.0,0.0,0.0,0.0,0.0,0.0,0.0,0.0,0.0,0.0,0.0,0.0,0.0,0.0,0.0,0.0,0.0,0.0,0.0,0.0,0.0,0.0,0.0,0.0,0.0,0.0,0.0,0.0,0.0,-1.684,0.0,0.0,0.0,0.0,0.0,0.0,0.0,0.0,0.0,0.0,-2.0399,0.0,0.0,0.0,0.0,0.0,-2.0399,-2.0399,0.0,-2.0399,-2.0714,-2.1172,0.0,0.0,0.0,0.0,-2.4627,-2.5059,-2.5559,-2.5368,-2.5114,-2.5582,-2.5699,-2.5694,0.0,0.0,0.0,0.0,0.0,0.0,0.0,0.0,0.0,0.0,0.0,0.0,0.0,0.0,0.0,0.0,0.0,0.0,0.0,-3.5818,-3.6391,-3.5948,-3.5909,-3.5869,-3.5801,-3.5794,-3.5779,-3.576,-3.5752,-3.5708,-3.5585,-3.5585,-3.5585,-3.5585,-3.5585,-3.5585,-3.5585,-3.5565,-3.529,-3.4808,-3.4392,-3.393,-3.3506,-3.3506,-3.3776,-3.4237,-3.4641,-3.5084,-3.5493,-3.5493,-3.6001,-3.6593,0.0,0.0,0.0,0.0,0.0,0.0,0.0,0.0,0.0,0.0,0.0,0.0,0.0,0.0,0.0,0.0,0.0,0.0,0.0,0.0,0.0,0.0,0.0,0.0,0.0,0.0,0.0,0.0,0.0,0.0,0.0,0.0,-1.9064,0.0,0.0,0.0,0.0,0.0,0.0,0.0,-2.0417,0.0,0.0,0.0,0.0,0.0,0.0,0.0,0.0,-2.0553,-2.0521,-2.0572,-2.1435,0.0,0.0,0.0,0.0,0.0,-2.566,-2.5703,-2.5707,-2.5707,-2.5707,-2.5701,0.0,0.0,0.0,0.0,0.0,0.0,0.0,0.0,0.0,0.0,0.0,0.0,0.0,0.0,0.0,0.0,0.0,0.0,-3.5584,-3.6638,-3.6925,-3.599,-3.5912,-3.5903,-3.5899,-3.5894,-3.5872,-3.583,-3.5823,-3.5784,-3.5725,-3.5702,-3.5704,-3.5704,-3.5693,-3.5693,-3.5693,-3.5631,-3.5609,-3.557,-3.4774,0.0,-3.4436,-3.4436,-3.4424,-3.4488,-3.5226,-3.5501,-3.5493,-3.5493,-3.6378,-3.7512,0.0,0.0,0.0,0.0,0.0,0.0,0.0,0.0,0.0,0.0,0.0,0.0,0.0,0.0,0.0,0.0,0.0,0.0,0.0,0.0,0.0,0.0,0.0,0.0,0.0,0.0,0.0,0.0,0.0,0.0,-1.6895,-1.7774,-1.8966,-2.0371,0.0,0.0,-2.0568,-2.0523,-2.0486,-2.048,-2.0483,0.0,0.0,0.0,0.0,0.0,0.0,0.0,0.0,-2.1256,-2.1049,-2.0637,-2.1449,0.0,0.0,0.0,0.0,0.0,-2.5504,-2.5697,-2.5693,-2.5693,-2.5693,-2.5705,0.0,0.0,0.0,0.0,0.0,0.0,0.0,0.0,0.0,0.0,0.0,0.0,0.0,0.0,0.0,0.0,0.0,-3.6891,-3.4081,-3.5916,-3.6931,-3.6046,-3.5988,-3.5962,-3.5903,-3.5903,-3.5899,-3.587,-3.587,-3.587,-3.587,-3.5757,-3.5698,-3.5698,-3.5696,-3.5693,-3.5693,-3.5685,-3.5676,-3.5676,0.0,-3.5465,-3.5465,-3.5465,-3.5437,-3.5411,-3.5527,-3.5509,-3.5412,-3.5493,-3.5633,-3.5888,0.0,0.0,0.0,0.0,0.0,0.0,0.0,0.0,0.0,0.0,0.0,0.0,0.0,0.0,0.0,0.0,0.0,0.0,0.0,0.0,0.0,0.0,0.0,0.0,0.0,0.0,0.0,0.0,0.0,-1.6318,-1.6728,-1.8075,-1.9383,-2.0593,0.0,-2.0598,-2.0603,-2.0566,-2.0527,-2.0508,0.0,0.0,0.0,0.0,0.0,0.0,0.0,0.0,0.0,0.0,-2.1778,-2.1928,-2.2328,0.0,0.0,0.0,0.0,0.0,-2.5582,-2.5701,-2.5701,-2.5691,-2.5693,-2.5697,0.0,0.0,0.0,0.0,0.0,0.0,0.0,0.0,0.0,0.0,0.0,0.0,0.0,0.0,0.0,0.0,0.0,-3.6052,-3.492,-3.6325,-3.6925,-3.6005,-3.5955,-3.5919,-3.584,-3.5878,-3.5878,-3.5859,-3.5859,-3.5859,-3.5859,-3.5811,-3.5815,-3.5818,-3.5813,-3.5801,-3.5801,-3.5776,-3.5752,-3.5752,0.0,-3.5641,-3.5641,-3.5641,-3.563,-3.5607,-3.5607,-3.5562,-3.5579,-3.6074,-3.6537,-3.6967,0.0,0.0,0.0,0.0,0.0,0.0,0.0,0.0,0.0,0.0,0.0,0.0,0.0,0.0,0.0,0.0,0.0,0.0,0.0,0.0,0.0,0.0,0.0,0.0,0.0,0.0,-1.5344,-1.5402,-1.6064,-1.6591,-1.704,-1.8584,-1.9775,0.0,0.0,-2.0603,-2.0605,-2.0605,-2.0566,-2.0527,0.0,0.0,0.0,0.0,0.0,0.0,0.0,0.0,0.0,0.0,0.0,0.0,0.0,0.0,0.0,-2.4374,-2.5021,-2.5707,-2.5699,-2.5701,-2.5703,-2.5698,0.0,-2.5703,-2.5702,0.0,0.0,0.0,0.0,0.0,0.0,0.0,0.0,0.0,0.0,0.0,0.0,-3.2617,-3.2734,-3.3866,-3.4959,-3.572,-3.5974,-3.6794,-3.6918,-3.5963,-3.5899,-3.5875,-3.5834,-3.5864,-3.5884,-3.5834,-3.5815,-3.5815,-3.5815,-3.5864,-3.5892,-3.5897,-3.5908,-3.5908,-3.5908,-3.5852,-3.5823,-3.5823,-3.5717,-3.567,-3.567,-3.567,-3.565,-3.5649,-3.5649,-3.5629,-3.5684,-3.635,-3.7143,-3.7909,0.0,0.0,0.0,0.0,0.0,0.0,0.0,0.0,0.0,0.0,0.0,0.0,0.0,0.0,0.0,0.0,0.0,0.0,0.0,0.0,0.0,0.0,0.0,0.0,0.0,-1.5391,-1.5395,-1.5402,-1.546,-1.6319,-1.794,-1.8863,-1.976,-2.0594,0.0,0.0,-2.0605,-2.0605,-2.0605,-2.0586,-2.0586,0.0,0.0,0.0,0.0,0.0,0.0,0.0,0.0,0.0,0.0,0.0,0.0,0.0,-2.4386,-2.4401,-2.5018,-2.5693,-2.5707,-2.5701,-2.5703,-2.5698,0.0,0.0,-2.5693,0.0,0.0,0.0,0.0,0.0,0.0,0.0,0.0,0.0,0.0,0.0,-3.5369,0.0,-3.6579,-3.5896,-3.7301,-3.7711,-3.615,-3.6794,-3.6905,-3.5966,-3.5908,-3.5904,-3.5878,-3.5898,-3.5898,-3.5898,-3.5898,-3.5898,-3.5898,-3.5898,-3.5905,-3.5905,-3.5897,-3.5908,-3.5908,-3.5903,-3.5883,-3.5883,-3.5878,-3.5878,-3.5878,-3.5878,-3.584,-3.5782,-3.5782,-3.5718,-3.5607,-3.567,-3.6242,-3.7,0.0,0.0,0.0,0.0,0.0,0.0,0.0,0.0,0.0,0.0,0.0,0.0,0.0,0.0,0.0,0.0,0.0,0.0,0.0,0.0,0.0,0.0,0.0,-1.5409,-1.5405,-1.5392,-1.4869,-1.3777,-1.4328,-1.5754,-1.8018,-1.888,0.0,0.0,0.0,0.0,-2.0605,-2.0605,-2.0605,-2.0605,-2.0605,-2.0586,0.0,0.0,0.0,0.0,0.0,0.0,0.0,0.0,-2.4079,-2.4686,0.0,-2.4744,-2.5207,-2.5216,-2.5434,-2.5697,-2.5704,-2.5703,-2.5697,-2.5703,0.0,0.0,0.0,0.0,0.0,0.0,0.0,0.0,0.0,0.0,0.0,0.0,0.0,0.0,-3.4178,-3.5135,-3.5564,-3.5232,-3.6247,-3.6716,-3.6049,-3.6306,-3.6332,-3.5929,-3.5899,-3.588,-3.585,-3.5359,-3.5327,-3.5823,-3.5317,-3.5033,-3.5033,-3.5033,-3.5033,-3.5053,-3.5585,-3.5845,-3.5845,-3.5845,-3.5845,-3.5845,-3.5845,-3.5845,-3.5845,-3.5845,-3.5823,-3.5799,-3.5799,-3.5773,-3.5727,-3.5718,-3.6279,-3.6947,0.0,0.0,0.0,0.0,0.0,0.0,0.0,0.0,0.0,0.0,0.0,0.0,0.0,0.0,0.0,0.0,0.0,0.0,0.0,0.0,0.0,0.0,0.0,-1.5398,-1.5394,-1.4852,-1.4266,-1.3618,-1.4776,-1.64,-1.843,0.0,0.0,0.0,0.0,0.0,0.0,0.0,-2.0605,-2.0605,-2.0605,-2.0605,0.0,0.0,0.0,0.0,0.0,0.0,0.0,0.0,-2.4712,0.0,0.0,0.0,0.0,-2.5703,-2.5694,-2.5707,-2.5698,-2.5691,-2.5702,0.0,0.0,0.0,0.0,0.0,0.0,0.0,0.0,0.0,0.0,0.0,0.0,0.0,-3.1934,-3.291,-3.4061,-3.4725,-3.5115,-3.5115,-3.5642,-3.5896,-3.5623,-3.5597,-3.5447,-3.5095,-3.5081,-3.5054,-3.5002,-3.4489,-3.445,-3.4983,-3.4439,-3.4109,-3.4109,-3.4109,-3.4245,-3.4517,-3.51,-3.5527,-3.5799,-3.5799,-3.5799,-3.5799,-3.5799,-3.5799,-3.5799,-3.5799,-3.5799,-3.5799,-3.5799,-3.5799,-3.5799,-3.5799,-3.6184,-3.6616,0.0,0.0,0.0,0.0,0.0,0.0,0.0,0.0,0.0,0.0,0.0,0.0,0.0,0.0,0.0,0.0,0.0,0.0,0.0,0.0,0.0,0.0,0.0,-1.5407,-1.5407,-1.3729,-1.3669,-1.5374,-1.7117,-1.8412,-1.9314,-2.0192,0.0,0.0,0.0,0.0,0.0,0.0,-2.0605,-2.0605,-2.0605,-2.0605,-2.0586,0.0,0.0,0.0,0.0,0.0,0.0,0.0,-2.5693,-2.5691,0.0,0.0,0.0,-2.5707,-2.5698,-2.5698,-2.5705,-2.5693,0.0,0.0,0.0,0.0,0.0,0.0,0.0,0.0,0.0,0.0,0.0,0.0,0.0,-3.168,-3.2812,-3.3983,-3.5718,-3.5971,-3.5971,-3.5971,-3.5971,-3.5642,-3.4783,-3.4693,-3.4304,-3.338,-3.329,-3.3297,-3.3293,-3.3293,-3.3293,-3.3293,-3.3293,-3.3293,-3.3293,-3.3293,-3.3682,-3.4478,-3.4478,-3.4944,-3.5799,-3.5799,-3.5799,-3.5799,-3.5799,-3.5799,-3.5799,-3.5799,-3.5799,-3.5799,-3.5799,-3.5799,-3.5799,-3.5799,-3.5799,-3.5799,0.0,0.0,0.0,0.0,0.0,0.0,0.0,0.0,0.0,0.0,0.0,0.0,0.0,0.0,0.0,0.0,0.0,0.0,0.0,0.0,0.0,0.0,0.0,0.0,0.0,0.0,-1.4891,-1.3568,-1.4132,-1.5773,0.0,0.0,0.0,-2.0605,0.0,0.0,0.0,0.0,-2.0605,-2.0605,-2.0605,-2.0605,-2.0664,0.0,0.0,0.0,0.0,0.0,0.0,0.0,0.0,0.0,0.0,0.0,0.0,-2.5703,-2.5691,-2.569,-2.5693,-2.5698,0.0,0.0,0.0,0.0,0.0,0.0,0.0,0.0,0.0,0.0,0.0,0.0,0.0,-3.1153,-3.1914,-3.2675,-3.3183,-3.3788,-3.4178,-3.4178,-3.4705,-3.4976,-3.4732,-3.414,-3.3652,-3.3309,-3.3297,-3.3297,-3.3293,-3.273,-3.2672,-3.3274,-3.271,-3.24,-3.24,-3.24,-3.2516,-3.2749,-3.2749,-3.3818,-3.5779,-3.5177,-3.5216,-3.5779,-3.5158,-3.5236,-3.5799,-3.5799,-3.5799,-3.5799,-3.5799,-3.5799,-3.5799,-3.5799,-3.5834,-3.5864,0.0,0.0,0.0,0.0,0.0,0.0,0.0,0.0,0.0,0.0,0.0,0.0,0.0,0.0,0.0,0.0,0.0,0.0,0.0,0.0,0.0,0.0,0.0,0.0,0.0,-1.5218,-1.4891,0.0,0.0,0.0,0.0,0.0,0.0,-2.0605,0.0,-2.0605,0.0,0.0,-2.0605,-2.0625,-2.0977,-2.1113,-2.1191,0.0,0.0,0.0,0.0,0.0,0.0,0.0,0.0,0.0,0.0,0.0,0.0,-2.5694,-2.5704,-2.5701,-2.5701,0.0,0.0,0.0,0.0,0.0,0.0,0.0,0.0,0.0,0.0,0.0,0.0,-3.0977,0.0,-3.1289,-3.1758,-3.2226,-3.2578,-3.3066,-3.3395,-3.3409,-3.3858,-3.4053,-3.3698,-3.3184,-3.2588,-3.1854,-3.2119,-3.2162,-3.1816,-3.1621,-3.1757,-3.2283,-3.1796,-3.1524,-3.1524,-3.1524,-3.1699,-3.2049,-3.2049,-3.3003,-3.4789,-3.4256,-3.4478,-3.5236,-3.4381,-3.4323,-3.4808,-3.4808,-3.4808,-3.4847,-3.5158,-3.5274,-3.5333,-3.5682,-3.5834,-3.5857,0.0,0.0,0.0,0.0,0.0,0.0,0.0,0.0,0.0,0.0,0.0,0.0,0.0,0.0,0.0,0.0,0.0,0.0,0.0,0.0,0.0,0.0,0.0,0.0,0.0,0.0,0.0,0.0,0.0,0.0,0.0,0.0,-2.0604,-2.0605,0.0,-2.0605,0.0,0.0,-2.0605,-2.0664,-2.1465,-2.1777,-2.1855,-2.2598,0.0,0.0,0.0,0.0,0.0,0.0,0.0,0.0,0.0,0.0,-2.5703,-2.569,-2.5709,-2.57,0.0,0.0,0.0,0.0,0.0,0.0,0.0,0.0,0.0,0.0,0.0,0.0,0.0,-3.0392,-3.0411,-3.1875,-3.209,-3.2383,-3.3161,-3.3278,-3.3272,-3.3278,-3.3275,-3.2931,-3.2068,-3.192,-3.1178,-2.9503,-3.0123,-3.0214,-2.9413,-3.0135,-3.0604,-3.0684,-3.0684,-3.0723,-3.0801,-3.0801,-3.115,-3.1853,-3.1931,-3.236,-3.3077,-3.3153,-3.358,-3.4241,-3.3584,-3.3293,-3.3293,-3.3293,-3.3293,-3.3371,-3.4187,-3.4497,-3.4614,-3.5488,-3.5799,-3.5799,0.0,0.0,0.0,0.0,0.0,0.0,0.0,0.0,0.0,0.0,0.0,0.0,0.0,0.0,0.0,0.0,0.0,0.0,0.0,0.0,0.0,0.0,0.0,0.0,0.0,0.0,0.0,0.0,0.0,0.0,0.0,0.0,0.0,-2.0605,0.0,-2.0605,0.0,0.0,-2.0605,-2.0625,-2.0801,-2.0879,-2.0898,-2.1074,-2.168,0.0,0.0,0.0,0.0,0.0,0.0,0.0,-2.5629,-2.5668,-2.5699,-2.5707,-2.571,-2.5709,0.0,0.0,0.0,0.0,0.0,0.0,0.0,0.0,0.0,0.0,0.0,0.0,0.0,-3.2246,-3.248,-3.2148,-3.209,-3.2165,-3.2345,-3.2381,-3.2377,-3.2376,-3.2372,-3.203,-3.1168,-3.0462,-2.9627,-2.8552,-2.865,-2.8686,-2.8491,-2.8667,-2.9079,-2.9765,-2.9784,-3.0116,-3.0782,-3.0801,-3.0545,-3.0077,-3.074,-3.117,-3.136,-3.2053,-3.242,-3.2569,-3.3082,-3.3293,-3.3293,-3.3293,-3.3293,-3.3371,-3.4187,-3.4497,-3.4614,-3.5488,-3.5799,-3.5799,0.0,0.0,0.0,0.0,0.0,0.0,0.0,0.0,0.0,0.0,0.0,0.0,0.0,0.0,0.0,0.0,0.0,0.0,0.0,0.0,0.0,0.0,0.0,0.0,0.0,0.0,0.0,0.0,0.0,0.0,0.0,0.0,0.0,-2.0604,0.0,-2.0605,0.0,0.0,-2.0605,-2.0644,-2.1055,-2.1445,-2.1836,-2.2266,-2.2969,-2.3769,-2.4199,0.0,0.0,0.0,0.0,0.0,0.0,0.0,-2.5703,-2.5697,-2.571,-2.5705,0.0,0.0,0.0,0.0,0.0,0.0,0.0,0.0,0.0,0.0,0.0,0.0,-3.0274,-3.0621,-3.0755,-3.0306,-3.0222,-3.0235,-3.0235,-3.0232,-3.0228,-3.0236,-3.0236,-3.0053,-2.9608,-2.9142,-2.8525,-2.7695,-2.8008,-2.8066,-2.7656,-2.8027,-2.8652,-2.9512,-2.914,-2.9336,-3.0215,-2.9805,-2.9375,-2.8926,-2.9394,-2.9609,-2.9648,-3.0903,-3.1441,-3.1383,-3.1448,-3.1456,-3.1467,-3.1875,-3.1817,-3.1564,-3.2807,-3.3565,-3.4031,-3.4866,-3.5449,-3.5799,0.0,0.0,0.0,0.0,0.0,0.0,0.0,0.0,0.0,0.0,0.0,0.0,0.0,0.0,0.0,0.0,0.0,0.0,0.0,0.0,0.0,0.0,0.0,0.0,0.0,0.0,0.0,0.0,0.0,0.0,0.0,0.0,0.0,-2.0598,0.0,0.0,0.0,0.0,0.0,-2.0684,-2.1543,-2.2305,-2.2988,-2.3848,-2.4727,-2.5488,-2.5488,-2.5566,-2.5703,-2.5703,0.0,0.0,0.0,0.0,-2.5679,-2.5707,-2.5696,-2.5705,0.0,0.0,0.0,0.0,0.0,0.0,0.0,0.0,0.0,0.0,0.0,0.0,-2.8281,-2.8235,-2.8207,-2.8203,-2.8193,-2.8209,-2.8207,-2.819,-2.819,-2.821,-2.821,-2.8145,-2.7987,-2.7988,-2.7636,-2.6844,-2.7446,-2.7546,-2.681,-2.7454,-2.8259,-2.9123,-2.8459,-2.8498,-2.9377,-2.8654,-2.8225,-2.8088,-2.8088,-2.8147,-2.8342,-2.9589,-3.0189,-3.0236,-2.9565,-2.925,-2.9265,-3.0127,-3.0069,-2.959,-3.132,-3.2441,-3.3199,-3.3996,-3.4843,-3.5582,0.0,0.0,0.0,0.0,0.0,0.0,0.0,0.0,0.0,0.0,0.0,0.0,0.0,0.0,0.0,0.0,0.0,0.0,-1.5287,0.0,0.0,-1.539,-1.539,-1.5394,0.0,0.0,0.0,0.0,0.0,0.0,0.0,0.0,0.0,-2.0594,0.0,0.0,0.0,0.0,0.0,0.0,0.0,0.0,-2.2148,-2.2969,-2.3809,-2.457,-2.457,-2.5059,-2.5703,-2.5703,-2.567,0.0,0.0,0.0,-2.5619,-2.5679,-2.5704,-2.5701,0.0,0.0,0.0,0.0,0.0,0.0,0.0,0.0,0.0,0.0,0.0,-2.8274,-2.8215,-2.821,-2.8203,-2.8205,-2.8197,-2.8207,-2.819,-2.8201,-2.8207,-2.8192,-2.8192,-2.7905,-2.7148,-2.7069,-2.6733,-2.5927,-2.5983,-2.6005,-2.5874,-2.5971,-2.6444,-2.7329,-2.7231,-2.7581,-2.8479,-2.8362,-2.7913,-2.7173,-2.7173,-2.7579,-2.8276,-2.7756,-2.7887,-2.8533,-2.8428,-2.8376,-2.8421,-2.9296,-2.9601,-2.9648,-3.1336,-3.2104,-3.2366,-3.3165,-3.4002,-3.4756,0.0,0.0,0.0,0.0,0.0,0.0,0.0,0.0,0.0,0.0,0.0,0.0,0.0,0.0,0.0,-1.522,-1.5306,-1.5327,-1.5342,-1.5382,-1.539,-1.539,-1.539,-1.5628,-1.6124,0.0,0.0,0.0,0.0,0.0,0.0,-2.0593,-2.0593,0.0,0.0,0.0,0.0,0.0,0.0,0.0,0.0,0.0,0.0,0.0,-2.4375,-2.5137,-2.5137,-2.5371,-2.5703,-2.5703,-2.5652,-2.5609,-2.5609,0.0,0.0,0.0,-2.566,0.0,0.0,0.0,0.0,0.0,0.0,0.0,0.0,0.0,0.0,0.0,-2.6303,-2.6836,-2.6804,-2.6771,-2.6744,-2.6737,-2.6737,-2.6766,-2.6789,-2.6793,-2.6795,-2.6796,-2.6797,-2.664,-2.6263,-2.6221,-2.6076,-2.5736,-2.5694,-2.5701,-2.5693,-2.5693,-2.6108,-2.6978,-2.6527,-2.6683,-2.7561,-2.7093,-2.6644,-2.6273,-2.6271,-2.6464,-2.683,-2.6451,-2.6976,-2.8163,-2.7676,-2.7477,-2.7546,-2.8408,-2.8485,-2.8201,-2.9929,-3.0915,-3.1465,-3.2323,-3.3156,-3.3877,0.0,0.0,0.0,0.0,0.0,0.0,0.0,0.0,0.0,0.0,0.0,0.0,0.0,0.0,0.0,0.0,-1.5429,-1.5862,-1.5721,-1.5518,-1.5504,-1.5721,-1.5721,-1.6135,-1.7017,0.0,0.0,0.0,0.0,0.0,-2.0593,-2.0593,-2.071,0.0,-2.0925,0.0,0.0,0.0,0.0,0.0,0.0,0.0,0.0,0.0,-2.5137,-2.5703,-2.5703,-2.5703,-2.5703,-2.5703,-2.5652,-2.5604,-2.5601,-2.5596,0.0,0.0,0.0,0.0,0.0,0.0,0.0,0.0,0.0,0.0,0.0,0.0,0.0,0.0,-2.5703,-2.5694,-2.5702,-2.5652,-2.5622,-2.5605,-2.562,-2.5648,-2.5664,-2.5683,-2.5701,-2.5697,-2.5694,-2.5709,-2.5698,-2.5693,-2.5704,-2.5699,-2.5699,-2.5707,-2.5704,-2.5707,-2.6008,-2.6644,-2.6039,-2.6019,-2.6665,-2.6019,-2.5707,-2.5705,-2.5701,-2.5698,-2.5693,-2.5701,-2.6376,-2.7528,-2.6885,-2.6598,-2.666,-2.7519,-2.75,-2.7108,-2.8823,-2.991,-3.0584,-3.1451,-3.2299,-3.2994,0.0,0.0,0.0,0.0,0.0,0.0,0.0,0.0,0.0,0.0,0.0,0.0,-1.5195,-1.651,-1.6194,-1.3012,-1.5769,-1.7354,-1.6587,-1.5821,-1.5769,-1.6597,-1.6636,0.0,-1.7903,0.0,0.0,0.0,0.0,0.0,-2.0593,-2.0593,-2.1042,-2.1821,-2.1821,-2.1821,-2.1879,0.0,0.0,0.0,0.0,0.0,0.0,0.0,0.0,0.0,0.0,-2.5703,-2.5703,-2.5703,-2.5652,-2.5604,-2.5601,-2.5561,-2.5512,0.0,0.0,0.0,0.0,0.0,0.0,0.0,0.0,0.0,0.0,0.0,0.0,0.0,-2.5704,-2.5701,-2.5702,-2.5703,-2.5679,-2.5616,-2.5641,-2.5664,-2.5619,-2.5668,-2.5693,-2.5707,-2.5703,-2.5703,-2.5703,-2.5703,-2.5699,-2.5699,-2.5699,-2.5703,-2.5694,-2.5704,-2.5712,-2.5779,-2.5724,-2.5726,-2.5765,-2.5726,-2.5705,-2.5701,-2.5698,-2.569,-2.5694,-2.5694,-2.5749,-2.582,-2.5781,-2.5756,-2.583,-2.663,-2.6975,-2.7155,-2.8847,-2.9519,-2.9666,-3.0545,-3.1426,-3.2164,0.0,0.0,0.0,0.0,0.0,0.0,0.0,0.0,0.0,0.0,0.0,0.0,0.0,-1.7119,-1.7044,-1.5965,-1.7095,-1.7743,-1.7446,-1.7167,-1.7142,-1.7459,-1.7507,-1.7922,-1.8743,0.0,0.0,0.0,0.0,-1.9747,-2.0609,-2.0593,-2.0769,-2.1061,-2.1061,-2.1666,-2.2662,-2.2428,0.0,0.0,0.0,0.0,0.0,0.0,0.0,0.0,0.0,0.0,0.0,-2.5699,-2.5658,-2.5585,-2.5563,-2.5522,-2.5512,-2.5576,-2.5615,0.0,0.0,0.0,0.0,0.0,0.0,0.0,0.0,0.0,0.0,-2.5701,-2.5707,-2.5696,-2.5693,-2.5702,-2.5684,-2.5664,-2.5643,-2.5637,-2.5671,-2.5678,-2.5694,-2.5707,-2.5707,-2.5707,-2.5707,-2.5707,-2.5707,-2.5699,-2.5699,-2.5703,-2.5691,-2.5704,-2.5693,-2.5698,-2.5705,-2.5705,-2.5703,-2.5703,-2.5698,-2.5693,-2.5707,-2.5701,-2.5691,-2.5707,-2.5703,-2.5699,-2.5699,-2.5703,-2.573,-2.6015,-2.6135,-2.6328,-2.8017,-2.8669,-2.8834,-3.0268,-3.0993,-3.1269,0.0,0.0,0.0,0.0,0.0,0.0,0.0,0.0,0.0,0.0,0.0,0.0,0.0,0.0,-1.8346,-1.849,-1.7555,-1.7327,-1.8189,-1.7975,-1.797,-1.829,-1.8341,-1.8767,-1.9623,0.0,0.0,0.0,0.0,0.0,0.0,-2.0609,-2.0767,-2.1022,-2.073,-2.153,0.0,0.0,0.0,-2.4837,0.0,0.0,-2.5703,0.0,0.0,0.0,0.0,0.0,0.0,0.0,-2.5615,-2.556,-2.5503,-2.5503,-2.5506,-2.5549,-2.5576,0.0,-2.5648,0.0,0.0,0.0,0.0,0.0,0.0,0.0,0.0,-2.5701,-2.5704,-2.5707,-2.5701,-2.5709,-2.5694,-2.5694,-2.5668,-2.5657,-2.5687,-2.5703,-2.5707,-2.5697,-2.5697,-2.5697,-2.5694,-2.5694,-2.571,-2.5699,-2.5699,0.0,-2.5707,-2.5701,-2.5693,-2.5698,-2.5703,-2.5703,-2.5696,-2.5696,-2.5693,-2.5704,-2.5697,-2.5691,-2.5707,-2.5703,-2.5699,-2.5699,-2.5699,-2.5699,-2.5699,-2.5699,-2.5699,-2.5878,-2.7553,-2.8203,-2.8402,-3.0152,-3.0806,-3.0792,0.0,0.0,0.0,0.0,0.0,0.0,0.0,0.0,0.0,-1.5671,0.0,0.0,0.0,0.0,0.0,-2.0079,-1.714,-1.6292,-1.8774,-1.8206,-1.8172,-1.9085,-1.9129,-1.9569,-2.0474,0.0,0.0,0.0,0.0,0.0,0.0,0.0,-2.1054,0.0,-2.1001,-2.1548,-2.3169,0.0,-2.4885,-2.5707,0.0,-2.5697,-2.5703,0.0,0.0,0.0,-2.5692,-2.5704,0.0,-2.5625,0.0,0.0,0.0,0.0,-2.5492,-2.5492,-2.5543,0.0,0.0,0.0,0.0,0.0,0.0,0.0,0.0,0.0,0.0,-2.5691,-2.5694,-2.5697,-2.5707,-2.5701,-2.5697,-2.5707,-2.5701,-2.5691,-2.5691,-2.5691,-2.5697,-2.5707,-2.571,-2.5704,-2.5694,-2.5691,-2.571,-2.5699,-2.5699,-2.5699,-2.5699,-2.5697,-2.5693,-2.5698,-2.5698,-2.5696,-2.571,-2.571,-2.5704,-2.5691,-2.5691,-2.5707,-2.5699,-2.5699,-2.5699,-2.5699,-2.5699,-2.5699,-2.5699,-2.5699,-2.5699,-2.5874,-2.755,-2.8193,-2.8407,-3.0156,-3.0806,-3.0791,0.0,0.0,0.0,0.0,0.0,0.0,-1.5158,-1.5936,-1.6666,0.0,0.0,0.0,-1.8949,-1.9617,-2.0078,-2.0108,-1.9303,-1.9088,-1.9794,-1.9627,-1.9615,-1.9883,-1.9948,-2.0094,-2.0355,0.0,0.0,0.0,0.0,0.0,0.0,0.0,0.0,0.0,-2.1223,-2.2025,-2.313,-2.3359,0.0,0.0,-2.5707,-2.5694,0.0,0.0,0.0,0.0,0.0,-2.5666,-2.5615,0.0,-2.5529,-2.5511,0.0,0.0,0.0,0.0,0.0,0.0,-2.5587,0.0,0.0,0.0,0.0,0.0,0.0,0.0,0.0,-2.5691,-2.5694,-2.5697,-2.5707,-2.5701,-2.5694,-2.5697,-2.571,-2.5703,-2.5703,-2.5703,-2.5703,-2.5707,-2.5694,-2.5694,-2.5703,-2.5707,-2.571,0.0,-2.5699,-2.5699,-2.5699,-2.5691,-2.5701,-2.5693,-2.5693,-2.5707,-2.5697,-2.5697,-2.5694,-2.5703,-2.5703,-2.5703,-2.5699,-2.5699,-2.5699,-2.5699,-2.5699,-2.5699,-2.5699,-2.5699,-2.5699,-2.5874,-2.755,-2.8193,-2.8407,-3.0156,-3.0808,-3.0802,0.0,0.0,0.0,0.0,0.0,-1.494,-1.5803,-1.6613,-1.7315,0.0,0.0,0.0,-1.9609,-1.9823,-1.9977,-2.0048,-2.0098,-2.0117,-2.0117,-2.0126,-2.0133,-2.0161,-2.0192,-2.041,-2.0824,0.0,0.0,0.0,0.0,0.0,0.0,0.0,0.0,0.0,0.0,0.0,0.0,0.0,0.0,0.0,-2.5707,0.0,0.0,-2.5707,-2.5678,0.0,0.0,0.0,-2.555,-2.5511,-2.5511,0.0,0.0,0.0,0.0,0.0,0.0,0.0,0.0,0.0,0.0,0.0,0.0,0.0,-2.5667,-2.5675,-2.5699,0.0,-2.5707,-2.571,-2.5697,-2.5691,-2.5707,-2.5707,-2.5703,-2.5699,-2.5703,-2.5703,-2.5707,-2.5691,-2.5697,-2.5697,-2.5707,-2.571,-2.571,-2.5699,-2.5699,-2.5699,-2.5703,-2.571,-2.5694,-2.5704,-2.5704,-2.5697,-2.5707,-2.5707,-2.5703,-2.5699,-2.5699,-2.5699,-2.5699,-2.5699,-2.5699,-2.5699,-2.5699,-2.5699,-2.5699,-2.5699,-2.5699,-2.5874,-2.755,-2.8193,-2.8407,-3.0156,-3.0799,-3.0804,0.0,0.0,0.0,-1.5184,-1.5363,-1.5666,-1.6415,-1.7146,-1.7646,0.0,-1.8583,-1.9277,-1.9748,-1.9832,-1.9951,-2.0214,-2.0267,-2.0278,-2.0278,-2.0278,-2.0304,-2.0354,-2.0363,-2.0749,-2.1543,-2.0817,0.0,0.0,0.0,0.0,0.0,0.0,0.0,0.0,0.0,0.0,0.0,0.0,0.0,-2.5679,-2.5681,-2.5693,0.0,0.0,-2.5654,-2.5576,-2.5524,-2.5511,-2.5484,-2.5484,-2.5484,0.0,0.0,0.0,0.0,0.0,-2.5495,0.0,0.0,0.0,0.0,0.0,0.0,0.0,-2.5605,-2.5658,-2.5691,0.0,-2.5695,-2.5695,-2.5699,-2.5699,-2.5695,-2.5699,-2.5699,-2.5703,-2.571,-2.5691,-2.5694,-2.5704,-2.5707,-2.5704,-2.5691,-2.5691,-2.5707,-2.5699,-2.5699,-2.5703,-2.5691,-2.5691,-2.5691,-2.5691,-2.5691,-2.5707,-2.5699,-2.5699,-2.5699,-2.5699,-2.5699,-2.5699,-2.5699,-2.5699,-2.5699,-2.5699,-2.5699,-2.5699,-2.5699,-2.5699,-2.5699,-2.5874,-2.755,-2.8193,-2.8407,-3.0156,-3.0799,-3.0799,0.0,0.0,-1.5113,-1.5273,-1.5791,-1.6451,-1.7253,-1.7503,-1.7842,-1.8503,-1.8928,-1.9486,-2.027,-2.0579,-2.0996,-2.1644,-2.1897,-2.2002,-2.2002,-2.2002,-2.2007,-2.2026,-2.2078,-2.1882,-2.1369,-2.1235,-2.1272,0.0,0.0,0.0,0.0,0.0,0.0,0.0,0.0,0.0,0.0,0.0,0.0,-2.5537,-2.5604,0.0,-2.5691,-2.5635,-2.5584,-2.551,-2.5499,-2.5476,-2.5421,-2.5423,-2.5459,-2.5484,0.0,0.0,0.0,-2.5511,0.0,0.0,0.0,0.0,0.0,0.0,0.0,0.0,-2.5593,-2.5613,-2.5624,0.0,-2.5615,-2.5634,-2.5691,-2.5667,-2.5639,-2.5695,-2.5699,-2.5699,-2.5703,-2.5703,-2.5703,-2.5707,-2.5707,-2.5703,-2.5703,-2.5703,-2.5699,-2.5699,-2.5699,-2.5699,-2.5703,-2.5703,-2.5703,-2.5703,-2.5703,-2.5699,-2.5699,-2.5699,-2.5699,-2.5699,-2.5699,-2.5699,-2.5699,-2.5699,-2.5699,-2.5699,-2.5699,-2.5699,-2.5699,-2.5699,-2.5699,-2.5874,-2.755,-2.8193,-2.8407,-3.0156,-3.0799,-3.0799,0.0,0.0,-1.5292,-1.5682,-1.6438,-1.7272,-1.8075,-1.8199,-1.8485,-1.9288,-1.9525,-1.9794,-2.033,-2.0212,-2.0317,-2.0867,-2.1029,-2.1154,-2.1263,-2.1623,-2.1862,-2.1897,-2.2308,-2.257,-2.2604,-2.2187,-2.2208,-2.2639,0.0,0.0,0.0,0.0,0.0,0.0,0.0,0.0,0.0,0.0,-2.5467,-2.5498,-2.5542,0.0,-2.5593,-2.5557,-2.5509,-2.544,-2.544,-2.5432,-2.5404,-2.5395,-2.5423,0.0,0.0,-2.5412,-2.544,0.0,-2.5456,-2.5456,0.0,0.0,0.0,-2.5503,0.0,0.0,0.0,-2.557,-2.5607,-2.5604,-2.5593,-2.5607,-2.5639,-2.5625,-2.5615,-2.5643,-2.5671,-2.5699,-2.5699,-2.5699,-2.5699,-2.5699,-2.5699,-2.5699,-2.5699,-2.5699,-2.5699,-2.5699,-2.5699,-2.5699,-2.5699,-2.5699,-2.5699,-2.5699,-2.5699,-2.5699,-2.5699,-2.5699,-2.5699,-2.5699,-2.5699,-2.5699,-2.5699,-2.5699,-2.5699,-2.5699,-2.5667,-2.5643,-2.5643,-2.5649,-2.5644,-2.578,-2.7054,-2.7814,-2.8369,-2.9674,-3.0428,-3.0792,-1.3921,0.0,0.0,-1.6221,-1.7082,-1.7932,-1.8626,-1.8732,-1.8982,-1.968,-1.977,-1.99,-2.0209,0.0,0.0,-2.0052,-2.0268,-2.0446,-2.0613,-2.1368,-2.1865,-2.1964,-2.2571,-2.3227,-2.3869,-2.3195,-2.3179,-2.3908,0.0,0.0,0.0,0.0,0.0,0.0,0.0,0.0,0.0,0.0,0.0,-2.5466,0.0,-2.548,-2.5507,-2.5492,-2.5446,-2.5406,-2.5406,-2.5406,-2.5406,-2.5397,-2.5378,-2.5406,-2.5406,-2.5406,0.0,0.0,0.0,0.0,0.0,0.0,0.0,0.0,0.0,-2.5478,0.0,0.0,0.0,-2.557,-2.5589,0.0,0.0,0.0,0.0,0.0,0.0,0.0,0.0,-2.5675,0.0,-2.5699,-2.5699,-2.5699,-2.5699,-2.5699,-2.5699,-2.5699,-2.5699,-2.5699,-2.5699,-2.5699,-2.5699,-2.5699,-2.5699,-2.5699,-2.5699,-2.5699,-2.5695,-2.5675,-2.5675,-2.5671,-2.5687,-2.5687,-2.5687,-2.5687,-2.563,-2.56,-2.56,-2.5593,-2.5601,-2.5685,-2.6544,-2.7405,-2.8299,-2.9154,-3.0049,-3.0801,-1.5249,-1.6094,0.0,0.0,-1.7492,-1.8148,-1.8487,-1.8524,-1.8617,-1.8894,-1.8986,0.0,0.0,0.0,0.0,0.0,0.0,0.0,-2.2834,-2.3582,-2.4132,-2.4309,-2.4411,-2.4252,-2.3828,-2.37,-2.3736,-2.3893,-2.3026,0.0,0.0,0.0,0.0,0.0,-2.5028,0.0,0.0,0.0,-2.5322,0.0,-2.5331,-2.5385,0.0,-2.5434,-2.5407,-2.5406,-2.5407,-2.5397,-2.5387,0.0,-2.5351,-2.5406,0.0,-2.5397,-2.5387,-2.5395,0.0,0.0,0.0,0.0,0.0,0.0,-2.541,0.0,0.0,0.0,-2.5515,-2.5511,0.0,0.0,0.0,0.0,0.0,0.0,0.0,0.0,-2.561,-2.5615,-2.5639,-2.5695,-2.5699,-2.5699,-2.5699,-2.5699,-2.5699,-2.5699,-2.5699,-2.5699,-2.5699,-2.5699,-2.5699,-2.5699,-2.5699,-2.5699,-2.5699,-2.5699,-2.5671,-2.5615,-2.5615,-2.562,-2.5613,-2.5613,-2.5613,-2.5613,-2.5607,-2.5607,-2.5607,-2.5601,-2.5601,-2.5679,-2.6481,-2.7336,-2.8223,-2.9091,-2.9992,-3.0801,-1.5541,-1.615,0.0,0.0,-1.7508,-1.8287,-1.8818,-1.9398,-1.9802,-1.9885,-1.9674,0.0,0.0,0.0,0.0,0.0,0.0,-2.1124,0.0,0.0,-2.3252,-2.3801,-2.4281,-2.447,-2.4327,-2.4322,-2.4409,-2.4612,-2.4231,-2.4186,0.0,0.0,0.0,0.0,-2.4968,0.0,-2.5192,0.0,-2.5302,0.0,0.0,0.0,0.0,-2.5341,-2.5332,-2.5418,-2.5909,-2.5775,-2.5418,0.0,-2.5746,0.0,0.0,0.0,0.0,0.0,0.0,0.0,0.0,0.0,0.0,0.0,0.0,0.0,-2.5448,0.0,-2.5445,0.0,0.0,0.0,0.0,0.0,0.0,0.0,-2.557,0.0,0.0,0.0,-2.5619,0.0,0.0,0.0,-2.5699,-2.5699,-2.5699,-2.5699,-2.5699,-2.5699,-2.5699,-2.5699,-2.5699,-2.5699,-2.5699,-2.5699,-2.5699,-2.5667,-2.5639,-2.561,-2.559,-2.5593,-2.5601,-2.5601,-2.5601,-2.5601,-2.5564,-2.5538,-2.5531,-2.555,-2.5536,-2.5582,-2.5912,-2.6585,-2.7452,-2.8327,-2.9218,-3.0064,0.0,0.0,0.0,0.0,0.0,-1.8437,-1.9115,0.0,0.0,0.0,0.0,0.0,-1.9702,-1.9416,0.0,0.0,-1.9693,-2.0142,0.0,0.0,-2.2456,-2.3098,-2.3893,0.0,-2.462,-2.462,-2.4716,-2.4931,-2.4972,-2.4708,0.0,0.0,0.0,0.0,0.0,-2.5198,-2.5201,0.0,0.0,-2.5292,-2.5293,-2.5303,-2.5303,-2.5303,-2.5437,-2.5726,-2.637,-2.6197,-2.5793,-2.6659,-2.6217,0.0,-2.5572,0.0,-2.5428,0.0,0.0,0.0,-2.7152,0.0,0.0,0.0,0.0,0.0,0.0,0.0,0.0,0.0,0.0,0.0,0.0,0.0,0.0,-2.5498,0.0,-2.5577,0.0,-2.5574,0.0,0.0,0.0,0.0,0.0,-2.5699,-2.5699,-2.5699,-2.5699,-2.5699,-2.5699,-2.5699,-2.5699,-2.5699,-2.5699,-2.5695,-2.5671,-2.5615,-2.5581,-2.5565,-2.5562,-2.5564,-2.557,-2.557,-2.557,-2.557,-2.5531,-2.5498,-2.5498,-2.5499,-2.5511,-2.5511,-2.5511,-2.6037,-2.6939,-2.7787,-2.8814,-2.9872,-1.8542,-1.7888,0.0,0.0,0.0,0.0,0.0,0.0,0.0,0.0,0.0,0.0,0.0,0.0,0.0,0.0,0.0,-2.1441,-2.1478,0.0,-2.2735,0.0,0.0,-2.4192,0.0,-2.4407,-2.4459,-2.4528,-2.4654,-2.4741,0.0,0.0,0.0,0.0,0.0,-2.5203,-2.5198,-2.5271,-2.5311,-2.5292,-2.5293,-2.5303,-2.5303,0.0,-2.5832,-2.6563,-2.6582,0.0,0.0,-2.7563,-2.6717,0.0,0.0,0.0,0.0,0.0,0.0,0.0,0.0,0.0,0.0,-2.64,0.0,0.0,0.0,0.0,-2.5429,0.0,0.0,0.0,0.0,0.0,-2.5492,-2.5492,-2.5492,0.0,0.0,0.0,0.0,0.0,0.0,0.0,0.0,-2.5699,-2.5699,-2.5699,-2.5699,-2.5699,-2.5699,-2.5699,-2.5699,-2.5699,-2.5699,-2.5671,-2.5591,-2.561,-2.556,-2.5499,-2.5499,-2.5498,-2.5492,-2.5492,-2.5492,-2.5492,-2.5492,-2.5492,-2.5492,-2.5511,-2.5511,-2.5511,-2.5511,-2.606,-2.6986,-2.7799,-2.9242,-3.0752,0.0,0.0,0.0,0.0,0.0,0.0,0.0,-1.9236,0.0,0.0,0.0,0.0,0.0,-2.0477,-2.0775,0.0,0.0,-2.1576,-2.2197,-2.2486,0.0,0.0,0.0,-2.3999,0.0,-2.4192,-2.4265,-2.4442,-2.4474,0.0,0.0,0.0,0.0,0.0,0.0,-2.5168,0.0,0.0,0.0,0.0,0.0,-2.5302,-2.536,0.0,-2.6351,-2.6755,-2.7852,-2.7909,0.0,-2.8409,-2.7563,-2.6217,-2.6505,-2.6005,-2.5399,-2.5986,-2.5745,-2.561,0.0,0.0,-2.5505,-2.6381,0.0,0.0,0.0,0.0,0.0,0.0,0.0,0.0,0.0,0.0,-2.5511,-2.5511,-2.5511,-2.5492,0.0,0.0,0.0,0.0,0.0,0.0,0.0,0.0,-2.5639,-2.5639,-2.5625,-2.5639,-2.5639,-2.5639,-2.5639,-2.5639,-2.5639,-2.5625,-2.5599,-2.5562,-2.5518,-2.5492,-2.551,-2.5507,-2.5511,-2.5511,-2.5511,-2.5511,-2.5511,-2.5511,-2.555,-2.6064,-2.5975,-2.5608,-2.6776,-2.7433,-2.7799,-2.8058,-2.8919,-3.0036,-1.9154,0.0,0.0,0.0,0.0,0.0,0.0,0.0,0.0,0.0,-2.0223,0.0,-2.0523,0.0,-2.1434,0.0,-2.1634,-2.197,-2.2574,-2.2648,0.0,-2.3397,-2.365,0.0,0.0,0.0,0.0,0.0,0.0,-2.4171,0.0,0.0,0.0,0.0,0.0,-2.4947,-2.5069,0.0,-2.5134,0.0,0.0,-2.5252,0.0,0.0,-2.6581,-2.6774,0.0,-2.8332,-2.8025,-2.8832,-2.7986,-2.6601,-2.6601,-2.6005,-2.5399,-2.5967,-2.5726,-2.561,-2.7044,-2.639,0.0,-2.639,-2.637,0.0,-2.5504,0.0,-2.6081,0.0,0.0,0.0,0.0,0.0,-2.5484,-2.5464,-2.5484,-2.5511,0.0,-2.5495,0.0,0.0,0.0,0.0,0.0,-2.5593,-2.5607,-2.559,-2.5593,-2.5593,0.0,-2.5595,-2.5595,-2.5595,-2.5595,-2.5599,-2.5564,-2.5525,-2.5505,-2.549,-2.5507,-2.5511,-2.5511,-2.5511,-2.5511,-2.5511,-2.5511,-2.5658,-2.5959,-2.6481,-2.6577,-2.65,-2.7648,-2.8333,-2.866,-2.8655,-2.9233,-3.0083,0.0,0.0,0.0,0.0,-2.0893,0.0,0.0,0.0,-2.0082,0.0,-1.9928,-2.0408,-2.0408,-2.1417,-2.2124,-2.2192,-2.2511,-2.2697,-2.2797,-2.2761,0.0,0.0,-2.3433,-2.3795,-2.3795,0.0,0.0,0.0,0.0,0.0,0.0,0.0,0.0,0.0,-2.4157,0.0,-2.4776,-2.4855,-2.5013,-2.5176,-2.5179,-2.5171,-2.5278,-2.6113,-2.6472,-2.6659,-2.7563,-2.7909,-2.8063,-2.8794,-2.7986,-2.6659,-2.6621,-2.6005,-2.5303,-2.5303,-2.5303,-2.5476,-2.6313,-2.5928,-2.5495,-2.6332,-2.5947,0.0,0.0,0.0,-2.5437,0.0,0.0,0.0,0.0,0.0,0.0,-2.5401,-2.5456,-2.5511,-2.5511,0.0,-2.5511,0.0,0.0,0.0,0.0,-2.5595,-2.5595,-2.5595,-2.5595,-2.5595,0.0,-2.5595,-2.5595,-2.5595,-2.5595,-2.5564,-2.5492,-2.5492,-2.549,-2.5511,-2.5511,-2.5511,-2.5511,-2.5511,-2.5503,-2.5503,-2.5542,-2.5998,-2.6715,-2.6792,-2.7296,-2.801,-2.8177,-2.878,-2.9567,-2.9567,-3.0131,-3.0898,-2.0058,-2.0274,-2.0472,0.0,-2.0295,-1.9924,0.0,0.0,0.0,0.0,-2.1283,-2.1918,-2.1742,-2.2632,-2.3406,-2.3714,-2.3763,0.0,0.0,0.0,0.0,-2.3524,-2.3687,-2.3795,-2.3795,-2.3795,-2.3795,-2.3795,0.0,0.0,-2.359,0.0,0.0,0.0,0.0,0.0,-2.4586,-2.4651,-2.4731,-2.4823,-2.4828,-2.4929,-2.5076,0.0,-2.5451,-2.5751,-2.7281,-2.8241,-2.8722,-2.8352,-2.7909,-2.7448,-2.6794,-2.6005,-2.5303,-2.5303,-2.5303,-2.5341,-2.5572,-2.5457,-2.5341,-2.5572,-2.5947,-2.6111,0.0,0.0,0.0,0.0,0.0,0.0,0.0,0.0,0.0,0.0,0.0,0.0,0.0,0.0,0.0,-2.5511,0.0,-2.5536,-2.5525,-2.5536,-2.5536,-2.5525,-2.5536,0.0,0.0,0.0,-2.5525,-2.5525,-2.5525,-2.5531,-2.5507,-2.5507,-2.5499,-2.5511,-2.5511,-2.5464,-2.5429,-2.5429,-2.5421,-2.5462,-2.6099,-2.6504,-2.6804,-2.8039,-2.83,-2.8068,-2.9467,-3.0231,-3.0533,-3.0533,-3.0698,-3.0898,-2.0141,0.0,0.0,-2.1102,0.0,0.0,-2.0191,-2.0833,0.0,-2.0749,-2.1603,0.0,-2.2509,-2.3112,-2.3818,-2.4539,-2.4366,0.0,-2.4782,0.0,0.0,-2.375,-2.3771,-2.381,-2.381,-2.3813,0.0,-2.3795,0.0,0.0,-2.3324,0.0,0.0,0.0,0.0,-2.4284,0.0,-2.4949,-2.4995,-2.4726,-2.508,-2.5084,0.0,-2.4879,-2.4915,-2.5165,-2.6593,-2.747,-2.7892,-2.7465,-2.7341,-2.7187,-2.6303,-2.5687,-2.5303,-2.5303,-2.5303,-2.5303,-2.5303,-2.5303,-2.5303,-2.5303,-2.5668,-2.5909,-2.5467,-2.5717,-2.589,0.0,-2.5388,-2.5388,0.0,0.0,0.0,0.0,0.0,0.0,0.0,0.0,0.0,0.0,-2.5511,-2.5499,-2.5503,-2.5507,-2.5499,-2.5503,-2.5507,0.0,0.0,0.0,-2.551,-2.551,-2.551,-2.5495,-2.5511,-2.5464,-2.5456,-2.5456,-2.5468,-2.5633,-2.5964,-2.5964,-2.6148,-2.6525,-2.7007,-2.745,-2.7911,-2.8858,-2.9186,-2.9193,-3.0275,-3.0784,-3.0897,-3.0898,-3.0898,-3.0898,0.0,0.0,0.0,0.0,0.0,0.0,0.0,-2.1599,0.0,-2.0936,0.0,-2.2145,-2.2692,-2.3053,-2.3667,-2.4706,0.0,-2.4327,-2.467,-2.396,-2.3571,-2.3594,-2.3638,-2.3682,-2.3743,-2.3732,-2.3774,0.0,-2.3795,-2.3469,-2.2872,0.0,0.0,0.0,0.0,0.0,0.0,-2.5519,-2.5566,-2.5003,-2.5566,-2.5415,-2.481,-2.4714,-2.4692,-2.4798,-2.5693,-2.6269,-2.6638,-2.6606,-2.6655,-2.6589,-2.561,-2.5303,-2.5303,-2.5303,-2.5303,-2.5303,-2.5303,-2.5303,-2.5303,-2.5303,-2.5303,-2.5303,-2.5303,-2.5303,-2.5303,-2.5303,-2.5351,-2.5399,-2.5466,0.0,0.0,0.0,0.0,0.0,0.0,0.0,0.0,0.0,0.0,0.0,-2.5511,-2.5511,-2.5511,-2.5511,-2.5511,0.0,0.0,0.0,-2.5511,-2.5511,-2.5484,-2.5484,-2.5484,-2.5545,-2.5567,-2.5567,-2.5685,-2.612,-2.6853,-2.6853,-2.7248,-2.7913,-2.801,-2.8521,-2.9298,-2.9414,-2.9908,-3.0626,-3.0671,-3.0841,-3.1067,-3.1053,-3.1132,-3.1211,0.0,0.0,0.0,0.0,0.0,-2.2808,-2.2543,-2.3139,-2.3123,-2.1764,-2.2245,-2.251,-2.2029,-2.2587,-2.317,-2.3646,-2.3539,0.0,0.0,0.0,0.0,-2.2965,-2.2965,-2.3111,-2.3387,-2.3392,-2.3522,-2.3795,-2.3795,-2.3723,-2.3614,0.0,0.0,0.0,0.0,0.0,-2.5014,-2.5941,0.0,-2.614,-2.5625,-2.5429,-2.5372,-2.472,-2.4561,-2.4726,-2.4888,-2.5977,-2.7235,-2.6696,-2.699,-2.7328,-2.5773,-2.5303,-2.5303,-2.5303,-2.5303,-2.5303,-2.5303,-2.5303,-2.5303,-2.5303,-2.5303,-2.5303,-2.5303,-2.5303,-2.5303,-2.5303,-2.5313,-2.5524,-2.6236,0.0,0.0,0.0,0.0,0.0,0.0,0.0,0.0,0.0,0.0,-2.5429,-2.5484,-2.5511,-2.5511,-2.5511,0.0,0.0,0.0,0.0,-2.5511,0.0,-2.5456,-2.5429,0.0,0.0,-2.6476,-2.6476,-2.7142,-2.7547,-2.7681,-2.7681,-2.7768,-2.7939,-2.8593,-2.9003,-2.9272,-2.9988,-3.0432,-3.0689,-3.0695,-3.118,-3.1888,-3.1882,-3.2334,-3.2866,0.0,0.0,0.0,0.0,0.0,0.0,0.0,-2.4017,-2.3603,-2.251,-2.2675,-2.2907,-2.294,-2.3255,-2.3762,-2.4475,-2.3782,-2.3471,-2.3836,-2.3136,-2.2877,-2.324,-2.3284,-2.3684,-2.4435,-2.4477,-2.4474,-2.4411,-2.4846,-2.4827,-2.4429,-2.4846,0.0,0.0,0.0,-2.5346,0.0,0.0,0.0,-2.5789,-2.5385,-2.5086,-2.4819,-2.4856,-2.4949,-2.5188,-2.6115,-2.7042,-2.7591,-2.6113,-2.5945,-2.6204,-2.5371,-2.5201,-2.5293,-2.5222,-2.5243,-2.5303,-2.5303,-2.5303,-2.5303,-2.5303,-2.5303,-2.5418,-2.587,-2.5967,-2.6101,-2.6563,-2.6659,-2.6774,-2.7198,-2.7612,0.0,0.0,0.0,0.0,0.0,0.0,-2.5395,0.0,0.0,0.0,0.0,0.0,0.0,0.0,0.0,0.0,0.0,0.0,-2.5456,0.0,0.0,0.0,-2.606,0.0,-2.7316,-2.7335,-2.7701,-2.8114,-2.8527,-2.8527,-2.8767,-2.9217,-2.9602,-2.9834,-2.9959,-3.0445,-3.0697,-3.081,-3.1258,-3.1708,-3.2155,-3.2617,-3.3322,-3.3953,0.0,-2.1786,0.0,0.0,-2.3571,0.0,-2.4597,-2.4265,-2.3785,-2.3205,-2.2857,-2.294,-2.3686,-2.3619,-2.3947,-2.4938,-2.3927,-2.3325,-2.3585,-2.322,-2.3209,-2.3745,-2.3819,-2.4292,-2.526,-2.5341,-2.5268,-2.5039,-2.5757,-2.5786,-2.5172,-2.571,0.0,0.0,0.0,0.0,0.0,0.0,-2.5998,-2.5415,-2.5251,-2.4855,-2.4403,-2.5045,-2.5324,-2.5586,-2.7206,-2.7785,-2.7528,-2.5789,-2.5314,-2.5435,-2.5191,-2.5266,-2.5401,-2.5118,-2.5363,-2.5699,-2.557,-2.5501,-2.5529,-2.5793,-2.5696,-2.5782,-2.6668,-2.689,-2.7063,-2.7755,-2.8044,-2.8159,-2.8159,-2.8313,0.0,0.0,0.0,0.0,0.0,0.0,0.0,0.0,0.0,0.0,-2.5406,0.0,0.0,0.0,0.0,0.0,-2.5476,0.0,0.0,0.0,0.0,-2.6766,-2.694,0.0,-2.8153,-2.8153,-2.8343,-2.8756,-2.9371,-2.9371,-2.9756,-3.0398,-3.0398,-3.0568,-3.087,-3.0997,-3.1162,-3.1396,-3.2107,-3.248,-3.2734,-3.3414,-3.4234,-3.4884,0.0,0.0,0.0,0.0,0.0,0.0,-2.3288,-2.3603,-2.3984,-2.3918,-2.2725,-2.2178,-2.2907,-2.241,-2.2325,-2.3102,-2.3036,-2.2953,-2.2967,-2.3549,-2.3915,-2.3982,-2.3982,-2.4173,-2.4577,-2.4667,-2.4838,-2.517,-2.5604,-2.58,-2.5711,-2.5311,-2.5117,0.0,0.0,0.0,0.0,-2.6227,-2.6195,-2.6136,-2.5387,-2.5102,-2.5108,-2.5264,-2.5303,-2.5452,-2.6392,-2.6725,-2.6728,-2.6569,-2.6729,-2.688,-2.6133,-2.5899,-2.5788,-2.5045,-2.592,-2.699,-2.6441,-2.6155,-2.6287,-2.7374,-2.6968,-2.6565,-2.7542,-2.7775,-2.7794,-2.7871,-2.8467,-2.8986,-2.8986,-2.964,-2.991,0.0,0.0,0.0,0.0,0.0,-2.6217,-2.5495,0.0,0.0,-2.5406,-2.5406,0.0,0.0,-2.5415,0.0,0.0,0.0,0.0,-2.6553,-2.6593,-2.6988,-2.7778,-2.8585,-2.8997,-2.8997,-2.9794,-3.0217,-3.0294,-3.0294,-3.0321,-3.0398,-3.0398,-3.0882,-3.1709,-3.1837,-3.2348,-3.3069,-3.323,-3.3768,-3.4471,-3.4549,-3.5135,-3.5876,0.0,0.0,0.0,0.0,0.0,0.0,0.0,-2.3719,-2.3338,-2.3338,-2.2824,-2.2742,-2.3487,-2.2891,-2.2394,-2.2245,-2.2228,-2.2228,-2.2228,-2.2924,-2.3735,-2.463,-2.4663,-2.5046,-2.5875,-2.5907,-2.5874,0.0,-2.6188,-2.6392,-2.6392,-2.6441,-2.6439,0.0,0.0,-2.6656,-2.6168,-2.5679,-2.5502,-2.5488,-2.5179,-2.5074,-2.5245,-2.6235,-2.6662,-2.6856,-2.7684,-2.7999,-2.8044,-2.8084,-2.7616,-2.695,-2.6544,-2.6573,-2.6629,-2.6247,-2.6655,-2.7188,-2.6957,-2.6469,-2.6279,-2.7281,-2.6877,-2.6591,-2.7998,-2.8316,-2.8496,-2.9104,-2.9562,-2.989,-2.989,-3.0179,-3.0294,-2.9948,0.0,0.0,0.0,0.0,0.0,-2.5438,0.0,-2.5332,-2.5341,-2.5341,0.0,0.0,0.0,0.0,0.0,0.0,0.0,-2.6632,0.0,-2.8277,-2.8623,-2.9448,-2.989,-2.989,-3.0237,-3.0398,-3.0417,-3.0948,-3.1448,-3.1891,-3.1942,-3.2182,-3.2532,-3.2664,-3.2947,-3.3351,-3.3901,-3.4355,-3.4761,-3.5248,-3.5646,-3.5938,-2.04,0.0,-2.1374,0.0,-2.2838,-2.3124,-2.3868,-2.3555,-2.3156,-2.2924,-2.2891,-2.3106,-2.3619,-2.3023,-2.2443,-2.2145,-2.2112,-2.2212,-2.2427,-2.3139,-2.4116,-2.5375,-2.5425,0.0,-2.659,-2.6674,-2.6553,-2.6293,-2.6696,-2.6898,-2.6944,-2.7378,-2.7416,0.0,-2.7055,-2.6602,-2.5787,-2.499,-2.4646,-2.4664,-2.49,-2.5031,-2.5256,-2.6877,-2.7565,-2.7762,-2.8589,-2.8929,-2.8975,-2.8994,-2.8338,-2.7448,-2.7124,-2.7212,-2.7344,-2.7009,-2.7308,-2.7735,-2.7578,-2.7071,-2.6843,-2.7824,-2.7422,-2.7157,-2.8657,-2.8995,-2.9178,-2.9889,-3.0202,-3.0311,-3.0311,-3.0355,-3.0398,-3.0398,0.0,0.0,0.0,-2.7717,0.0,-2.6178,-2.6063,-2.5967,-2.5707,-2.5909,0.0,0.0,0.0,0.0,0.0,0.0,0.0,0.0,0.0,0.0,-2.9486,-3.0102,-3.0398,-3.0398,-3.066,-3.0794,-3.0814,-3.166,-3.2352,-3.2891,-3.2949,-3.3117,-3.3349,-3.3471,-3.3705,-3.4036,-3.4679,-3.4948,-3.5056,-3.5624,-3.584,-3.584,-2.0239,-2.134,-2.1964,-2.1347,-2.3036,-2.377,-2.1681,-2.2834,-2.3735,-2.299,-2.2891,-2.2891,-2.2907,-2.2245,-2.2096,-2.2808,-2.2891,-2.3189,-2.3934,-2.4663,-2.5425,0.0,0.0,-2.6203,-2.622,-2.638,-2.652,-2.6503,0.0,-2.7195,-2.7195,-2.7805,-2.7438,-2.6222,-2.6222,-2.5769,-2.4954,-2.4157,-2.3813,-2.3868,-2.4683,-2.5009,-2.5172,-2.6853,-2.7495,-2.7627,-2.8547,-2.8905,-2.8905,-2.8994,-2.8975,-2.8851,-2.8044,-2.7831,-2.7745,-2.6954,-2.7837,-2.8975,-2.8427,-2.8127,-2.8274,-2.9557,-2.9108,-2.8645,-2.9645,-2.9883,-2.9902,-2.9902,-3.0007,-3.0089,-3.0089,-3.0267,-3.0398,-3.0398,0.0,0.0,0.0,-2.9083,0.0,-2.7948,-2.7871,-2.7525,-2.6678,-2.7351,0.0,0.0,0.0,0.0,0.0,0.0,0.0,-2.9017,-2.9083,0.0,-3.0379,-3.0379,-3.0398,-3.0398,-3.1275,-3.1679,-3.1718,-3.2526,-3.2891,-3.2891,-3.2891,-3.3391,-3.4193,-3.4268,-3.4795,-3.5579,-3.5668,-3.5702,-3.5682,-3.5702,-3.5702,-3.5702,-1.9604,-1.996,-2.0489,-2.1377,-2.1689,-2.1917,-2.2326,-2.2878,-2.3172,-2.2924,-2.3338,-2.3653,-2.3653,-2.299,-2.2642,0.0,-2.3354,-2.3752,0.0,-2.4696,-2.5441,-2.6187,-2.622,-2.622,-2.622,-2.6239,-2.6291,-2.6291,0.0,0.0,-2.6596,-2.7449,-2.7338,-2.6402,-2.6629,-2.6301,-2.5541,-2.5461,-2.5443,-2.5516,-2.6312,-2.6638,-2.6747,-2.784,-2.8263,-2.8349,-2.8652,-2.8815,-2.8887,-2.8929,-2.8952,-2.8957,-2.8705,-2.8631,-2.8599,-2.8342,-2.8635,-2.8989,-2.8867,-2.8426,-2.8244,-2.9228,-2.8838,-2.8446,-2.9344,-2.9626,-2.9698,-2.9698,-2.9834,-2.9992,-3.0075,-3.015,-3.0241,-3.0386,-3.0398,0.0,-2.9217,0.0,-2.8794,-2.8005,-2.789,-2.7794,-2.7505,-2.7736,0.0,0.0,0.0,0.0,0.0,0.0,0.0,0.0,-3.0256,0.0,-3.1275,-3.1833,-3.2102,-3.2102,-3.2391,-3.2833,-3.341,-3.366,-3.4103,-3.468,-3.468,-3.4834,-3.5084,-3.5104,-3.5314,-3.5588,-3.563,-3.566,-3.5693,-3.565,-3.564,-3.564,-1.9616,-2.005,-2.0611,-2.1415,-2.1275,-2.1377,-2.228,-2.2818,-2.3078,-2.294,-2.3785,-2.4414,-2.4414,-2.4,0.0,-2.3338,-2.3735,-2.4116,-2.4398,-2.4845,-2.5441,-2.6187,-2.622,-2.622,-2.622,-2.6239,0.0,-2.6222,-2.6051,-2.6126,-2.6558,-2.7187,-2.7086,-2.6433,-2.6845,-2.6568,-2.5811,-2.6087,-2.6204,-2.6276,-2.7091,-2.7417,-2.7508,-2.8279,-2.8637,-2.8687,-2.8694,-2.8767,-2.8881,-2.8905,-2.8952,-2.8994,-2.8994,-2.8994,-2.8994,-2.8994,-2.8994,-2.9017,-2.9067,-2.8762,-2.8566,-2.9151,-2.8915,-2.8697,-2.9256,-2.9471,-2.9513,-2.9513,-2.9662,-2.9801,-2.9896,-2.9958,-3.008,-3.0254,-3.0299,-3.0119,-2.9617,-2.9583,-2.9379,-2.8856,-2.8791,-2.8675,-2.8338,-2.8606,-2.8664,0.0,0.0,0.0,0.0,0.0,-2.9737,-3.0063,-3.1429,-3.216,-3.216,-3.2641,-3.2891,-3.2891,-3.3237,-3.3833,-3.468,-3.468,-3.4988,-3.5493,-3.5493,-3.5493,-3.5493,-3.5493,-3.5522,-3.5558,-3.5558,-3.5585,-3.562,-3.5581,-3.5558,-3.5558,-2.0118,-2.1137,-2.1823,-2.1274,-2.1539,-2.1789,-2.1577,-2.2607,-2.3307,-2.2977,-2.4183,-2.5127,-2.5176,-2.5193,-2.4911,-2.4216,0.0,0.0,-2.5143,-2.5193,-2.5491,-2.6187,-2.622,-2.622,-2.622,-2.6241,-2.6295,-2.6295,-2.6434,-2.6607,-2.6872,-2.7004,-2.6816,-2.6371,-2.6817,-2.6649,-2.5971,-2.6249,-2.6367,-2.6439,-2.7182,-2.7489,-2.758,-2.8297,-2.8587,-2.8612,-2.8687,-2.8737,-2.881,-2.8881,-2.8929,-2.8994,-2.8994,-2.8994,-2.8994,-2.8994,-2.8994,-2.9017,-2.9067,-2.9089,-2.9112,-2.9206,-2.9209,-2.923,-2.9293,-2.9349,-2.9407,-2.9386,-2.9492,-2.9589,-2.9589,-2.9732,-2.9899,-3.0047,-3.0061,-3.0122,-3.026,-3.0336,-3.0381,-3.0388,0.0,0.0,-2.934,-3.0005,-3.0139,0.0,0.0,0.0,0.0,0.0,-3.0994,-3.1756,-3.2564,-3.2987,-3.2987,-3.3045,-3.3083,-3.3083,-3.3891,-3.4718,-3.5493,-3.5493,-3.5493,-3.5493,-3.5493,-3.5493,-3.5493,-3.5493,-3.5493,-3.5493,-3.5493,-3.5493,-3.5493,-3.5493,-3.5493,-3.5493,0.0,0.0,-1.9879,-2.0117,-2.0234,-2.0426,-2.0795,-2.1788,-2.2718,-2.3291,-2.4379,-2.5325,-2.5889,-2.5955,-2.5889,-2.5706,-2.569,-2.5756,-2.5938,-2.5955,-2.6021,-2.6203,-2.622,-2.622,-2.622,-2.6203,-2.6239,-2.6239,-2.6415,-2.6503,-2.6453,-2.6607,-2.6757,-2.6857,-2.722,-2.7423,-2.7504,-2.7864,-2.8051,-2.8044,-2.8225,-2.8316,-2.8334,-2.8515,-2.8587,-2.8612,-2.8612,-2.8662,-2.8718,-2.881,-2.8858,-2.8929,-2.8975,-2.8994,-2.8994,-2.8994,-2.8994,-2.9017,-2.9067,-2.9089,-2.8964,-2.8442,-2.8355,-2.8376,-2.8336,-2.8899,-2.9386,-2.9344,-2.9347,-2.9392,-2.9514,-2.9533,-2.957,-2.9763,-2.978,-2.9864,-3.0052,-3.008,-3.0395,0.0,-3.1289,-3.1443,-3.1864,-3.2095,-3.2133,0.0,0.0,-3.2516,-3.2516,-3.2971,-3.3037,-3.2641,-3.3455,-3.3891,-3.3891,-3.4545,-3.4891,-3.4891,-3.5103,-3.5315,-3.5493,-3.5493,-3.5493,-3.5493,-3.5493,-3.5493,-3.5493,-3.5493,-3.5493,-3.5493,-3.5493,-3.5493,-3.5493,-3.5493,-3.5493,-3.5493,-2.0364,-2.0422,-2.0502,-2.0749,-2.0338,-2.0167,-2.081,-2.1537,-2.2258,-2.3063,-2.4297,-2.5259,-2.5657,-2.6005,-2.622,-2.622,-2.622,-2.622,-2.622,-2.622,-2.622,-2.622,-2.622,-2.622,-2.622,-2.622,-2.622,-2.622,-2.631,-2.6345,-2.6258,-2.6382,-2.6555,-2.6691,-2.7066,-2.733,-2.7512,-2.8093,-2.8317,-2.8344,-2.8536,-2.8587,-2.8587,-2.8587,-2.8587,-2.8587,-2.8587,-2.8637,-2.8712,-2.8737,-2.881,-2.8858,-2.8929,-2.8952,-2.8952,-2.8994,-2.8741,-2.8466,-2.8511,-2.8493,-2.8515,-2.8507,-2.8273,-2.813,-2.8479,-2.8669,-2.886,-2.9188,-2.9262,-2.9265,-2.9334,-2.9334,-2.9357,-2.9551,-2.9551,-2.9643,-2.9834,-3.0288,-3.0803,-3.1363,-3.1857,-3.2302,-3.2709,-3.2747,-3.2747,-3.2747,-3.3111,0.0,-3.334,-3.4174,-3.4266,-3.3465,-3.426,-3.4716,-3.4749,-3.5243,-3.5493,-3.5493,-3.5493,-3.5493,-3.5493,-3.5493,-3.5493,-3.5493,-3.5493,-3.5493,-3.5493,-3.5493,-3.5493,-3.5493,-3.5493,-3.5493,-3.5493,-3.5493,-3.5493,-3.546,-2.1452,-2.1554,-2.1554,-2.1554,-2.0721,-2.0247,-2.0904,-2.1303,-2.18,-2.2557,-2.3984,-2.4978,-2.5094,-2.5773,-2.622,-2.622,-2.622,-2.622,-2.622,-2.622,-2.622,-2.622,-2.622,-2.622,-2.622,-2.622,-2.622,-2.622,-2.6203,-2.6203,-2.622,-2.6277,-2.633,-2.64,-2.6757,-2.6937,-2.7017,-2.7678,-2.7982,-2.8037,-2.8396,-2.8543,-2.8587,-2.8587,-2.8587,-2.8587,-2.8587,-2.8637,-2.8687,-2.8694,-2.8743,-2.881,-2.8881,-2.8905,-2.8929,-2.8975,-2.8429,-2.7824,-2.7952,-2.7879,-2.7993,-2.8717,-2.8452,-2.8199,-2.8972,-2.8661,-2.8424,-2.9197,-2.927,-2.9178,-2.9178,-2.9178,-2.9203,-2.9318,-2.9338,-2.9398,-2.9608,0.0,-3.1227,-3.1362,-3.2289,-3.2955,-3.3054,-3.3073,-3.3073,-3.3073,-3.3757,-3.4178,-3.4178,-3.4878,-3.4967,-3.4285,-3.4936,-3.533,-3.5398,-3.546,-3.5493,-3.5493,-3.5493,-3.5493,-3.5493,-3.5493,-3.5493,-3.5493,-3.5493,-3.5493,-3.5493,-3.5493,-3.5493,-3.5512,-3.5641,-3.5685,-3.5705,-3.582,-3.5734,-3.559,-1.9537,-1.9551,-1.9551,-1.9551,-1.9391,-1.9359,-1.9671,-2.0273,-2.0976,-2.1848,-2.3242,-2.4414,-2.5044,-2.5773,-2.622,-2.622,-2.622,-2.622,-2.622,-2.622,-2.622,-2.622,-2.622,-2.622,-2.622,-2.622,-2.622,-2.622,-2.6258,-2.6258,-2.622,-2.6277,-2.6435,-2.6657,-2.6807,-2.7066,-2.7348,-2.7624,-2.7869,-2.8102,-2.8156,-2.8352,-2.8587,-2.8587,-2.8587,-2.8587,-2.8587,-2.8612,-2.8612,-2.8669,-2.8743,-2.881,-2.8881,-2.8929,-2.8994,-2.8994,-2.8429,-2.7952,-2.8631,-2.8319,-2.7824,-2.7974,-2.7963,-2.8113,-2.8856,-2.902,-2.9233,-2.9982,-2.9591,-2.913,-2.913,-2.9085,-2.904,-2.9067,-2.9048,-2.9138,-2.9334,0.0,-3.1012,-3.2086,-3.2953,-3.3821,-3.4735,-3.4808,-3.4808,-3.4808,-3.4942,-3.5018,-3.5018,-3.5133,-3.5168,-3.5035,-3.5212,-3.533,-3.5398,-3.5412,-3.5427,-3.5493,-3.5493,-3.5493,-3.5493,-3.5493,-3.5493,-3.5493,-3.5493,-3.5493,-3.5493,-3.5493,-3.5493,-3.5584,-3.6257,-3.6498,-3.6584,-3.7275,-3.7034,-3.6424,-2.0117,-1.9856,-1.9638,-1.9638,-1.9348,-1.9213,-1.9508,-1.9894,-2.0404,-2.1004,-2.2278,-2.326,-2.3588,-2.4825,-2.5624,-2.5624,-2.5988,-2.622,-2.622,-2.622,-2.622,-2.622,-2.622,-2.622,-2.622,-2.622,-2.622,-2.622,-2.6222,-2.6222,-2.622,-2.6222,-2.6329,-2.6417,-2.6504,-2.6624,-2.6791,-2.7115,-2.7348,-2.7465,-2.7765,-2.8065,-2.8326,-2.8326,-2.8448,-2.8587,-2.8587,-2.8587,-2.8612,-2.8637,-2.8662,-2.8712,-2.881,-2.8858,-2.8923,-2.8994,-2.8429,-2.7879,-2.8246,-2.8081,-2.7897,-2.8338,-2.814,-2.8048,-2.8833,-2.8713,-2.8684,-2.943,-2.9301,-2.9062,-2.9062,-2.9017,-2.9122,-2.9586,-2.9292,-2.9333,-3.03,-3.088,-3.1573,-3.2608,-3.3539,-3.4338,-3.4981,-3.5037,-3.5089,-3.5193,-3.5209,-3.5209,-3.5209,-3.5209,-3.5209,-3.5209,-3.5273,-3.5304,-3.5339,-3.5383,-3.5398,-3.5379,-3.546,-3.5493,-3.5446,-3.5474,-3.5493,-3.5493,-3.5493,-3.5493,-3.5493,-3.5493,-3.5762,-3.619,-3.6555,-3.6968,-3.7398,-3.7747,-3.7616,-3.7258,-2.0553,-2.019,-1.987,-1.987,-1.9449,-1.9213,-1.9545,-1.9752,-1.9969,-2.033,-2.1448,-2.2213,-2.2246,-2.37,-2.4692,-2.4743,-2.5489,-2.5955,-2.5955,-2.612,-2.622,-2.622,-2.622,-2.622,-2.622,-2.622,-2.622,-2.622,-2.622,-2.622,-2.622,-2.622,-2.622,-2.622,-2.6203,-2.6239,-2.6258,-2.6641,-2.6856,-2.697,-2.7382,-2.7725,-2.802,-2.8075,-2.8255,-2.8492,-2.8587,-2.8587,-2.8587,-2.8587,-2.8612,-2.8637,-2.8737,-2.881,-2.8834,-2.8947,-2.8535,-2.8081,-2.8081,-2.8081,-2.8227,-2.8847,-2.8539,-2.8338,-2.9347,-2.8796,-2.8356,-2.9365,-2.925,-2.9049,-2.9232,-2.9292,-2.9549,-3.0356,0.0,-2.9989,-3.1219,-3.1745,-3.2238,-3.2915,-3.384,-3.4526,-3.4773,-3.4812,-3.4908,-3.5107,-3.5124,-3.5141,-3.5209,-3.5209,-3.5209,-3.5209,-3.5261,-3.5277,-3.5312,-3.5354,-3.535,-3.5315,-3.5412,-3.5427,-3.5412,-3.5446,-3.546,-3.5493,-3.546,-3.546,-3.5512,-3.5691,-3.6138,-3.6738,-3.7107,-3.7632,-3.8213,-3.8386,-3.8295,-3.8089,-1.9246,-1.9203,-1.9174,-1.9174,-1.913,-1.9139,-1.9302,-1.9588,-1.9844,-1.9934,-2.0969,-2.1686,-2.1739,-2.2753,-2.3479,-2.3614,-2.4576,-2.5193,-2.5193,-2.5839,-2.622,-2.622,-2.622,-2.622,-2.622,-2.622,-2.622,-2.622,-2.622,-2.622,-2.622,-2.622,-2.622,-2.6203,-2.6277,-2.6295,-2.6295,-2.6468,-2.6725,-2.7085,-2.7117,-2.7369,-2.7742,-2.7992,-2.8129,-2.8183,-2.8492,-2.8587,-2.8587,-2.8587,-2.8637,-2.8694,-2.8694,-2.8791,-2.8905,-2.8887,-2.8915,-2.8902,-2.8902,-2.8902,-2.892,-2.8975,-2.8957,-2.9329,-3.087,-3.0026,-2.9365,-3.0889,-3.0044,-2.9214,-2.9971,-3.0118,-3.0375,-3.1182,0.0,0.0,-3.1366,-3.207,-3.2668,-3.2966,-3.3719,-3.4298,-3.4508,-3.4529,-3.4653,-3.4889,-3.4908,-3.5001,-3.5193,-3.5209,-3.5209,-3.5209,-3.5209,-3.5245,-3.5312,-3.5293,-3.5289,-3.5315,-3.5315,-3.533,-3.5398,-3.533,-3.5379,-3.5493,-3.5364,-3.5398,-3.5551,-3.6243,-3.6592,-3.6853,-3.8342,-3.8944,-3.9101,-3.9848,-3.9619,-3.8916,-1.9261,-1.9101,-1.9101,-1.9101,-1.9101,-1.9101,-1.9176,-1.9347,-1.9493,-1.9515,-2.0106,-2.0577,-2.0713,-2.1793,-2.2633,-2.2783,-2.3752,-2.4562,-2.5077,-2.5375,-2.574,-2.6187,-2.622,-2.622,-2.622,-2.622,-2.622,-2.622,-2.622,-2.622,-2.622,-2.622,-2.622,-2.622,-2.6239,-2.6222,-2.6258,-2.6364,-2.6469,-2.6624,-2.6759,-2.7006,-2.7369,-2.7713,-2.7954,-2.8129,-2.8492,-2.8587,-2.8587,-2.8587,-2.8612,-2.8662,-2.8687,-2.8718,-2.8791,-2.8881,-2.8929,-2.8952,-2.8994,-2.8994,-2.8994,-2.8994,-2.8994,-2.914,-2.9769,-2.9824,-2.9934,-3.0522,-3.0577,-3.0577,-3.0889,-3.0944,-3.1201,-3.2008,0.0,-3.1733,-3.2742,-3.2724,-3.2823,-3.343,-3.3762,-3.4049,-3.4279,-3.4302,-3.4416,-3.4632,-3.4653,-3.4694,-3.4755,-3.4908,-3.5072,-3.5209,-3.5209,-3.5209,-3.5245,-3.5277,-3.5277,-3.5239,-3.5285,-3.53,-3.5339,-3.53,-3.533,-3.5364,-3.5315,-3.5637,-3.6204,-3.6481,-3.7233,-3.8252,-3.8867,-3.939,-3.987,-4.0176,-4.01,-3.9814,-1.9275,-1.9101,-1.9101,-1.9101,-1.9101,-1.9101,-1.9101,-1.9176,-1.9228,-1.9228,-1.9479,-1.9717,-1.9818,-2.0763,-2.1442,-2.1611,-2.2702,-2.3588,-2.4147,-2.4761,-2.5441,-2.6187,-2.622,-2.622,-2.622,-2.622,-2.622,-2.622,-2.622,-2.622,-2.622,-2.622,-2.622,-2.622,-2.622,-2.622,-2.6203,-2.6258,-2.6277,-2.633,-2.6503,-2.6742,-2.6973,-2.74,-2.7725,-2.8037,-2.8326,-2.8518,-2.8587,-2.8587,-2.8587,-2.8612,-2.8644,-2.8669,-2.8718,-2.8834,-2.8881,-2.8905,-2.897,-2.8975,-2.8994,-2.8994,-2.8994,-2.9067,-2.9305,-2.9622,-2.9898,-3.0155,-3.0632,-3.1091,-3.1347,-3.1604,-3.2045,-3.2852,-3.2504,-3.254,-3.3642,-3.333,-3.3183,-3.3733,-3.3807,-3.3868,-3.4049,-3.4074,-3.4179,-3.4394,-3.4416,-3.442,-3.4508,-3.4674,-3.4889,-3.5107,-3.5107,-3.5124,-3.5209,-3.5261,-3.5261,-3.5209,-3.5239,-3.5289,-3.5312,-3.5289,-3.5285,-3.53,-3.5285,-3.5783,-3.6619,-3.6837,-3.7797,-3.9122,-3.939,-3.9813,-4.031,-4.031,-4.031,-4.031,-1.9101,-1.9101,-1.9101,-1.9101,-1.9101,-1.9101,-1.9101,-1.9101,-1.9101,-1.9101,-1.9101,-1.9139,-1.9302,-1.9588,-1.9823,-1.9899,-2.1298,-2.2198,-2.2214,-2.3998,-2.5425,-2.617,-2.6203,-2.622,-2.622,-2.622,-2.622,-2.622,-2.622,-2.622,-2.622,-2.622,-2.622,-2.622,-2.622,-2.622,-2.622,-2.622,-2.6222,-2.6295,-2.6434,-2.6554,-2.664,-2.7038,-2.74,-2.7713,-2.7992,-2.8326,-2.8587,-2.8587,-2.8587,-2.8587,-2.8587,-2.8662,-2.8694,-2.8785,-2.8858,-2.8905,-2.8905,-2.8952,-2.8994,-2.8994,-2.8994,-2.9195,-3.0008,-2.9586,-2.9232,-3.0044,-3.021,-3.0467,-3.1237,-3.2063,-3.2871,-3.366,-3.3807,-3.3807,-3.3807,-3.3807,-3.3807,-3.3807,-3.3807,-3.3807,-3.3807,-3.3807,-3.3895,-3.4173,-3.4197,-3.4298,-3.4486,-3.4508,-3.4632,-3.4908,-3.4908,-3.5001,-3.5209,-3.5209,-3.5209,-3.5209,-3.5209,-3.5245,-3.5312,-3.5245,-3.5258,-3.53,-3.5242,-3.5755,-3.6677,-3.7403,-3.8246,-3.9179,-4.0004,-4.031,-4.031,-4.031,-4.031,-4.031,-1.9188,-1.9101,-1.9101,-1.9101,-1.9101,-1.9101,-1.9101,-1.9101,-1.9101,-1.9101,-1.9101,-1.9139,-1.9302,-1.9545,-1.9767,-1.9899,-2.0485,-2.1237,-2.2048,-2.3489,-2.4347,-2.4562,-2.5622,-2.622,-2.622,-2.622,-2.622,-2.622,-2.622,-2.622,-2.622,-2.622,-2.622,-2.622,-2.622,-2.622,-2.622,-2.622,-2.6203,-2.6222,-2.6312,-2.6434,-2.6572,-2.6973,-2.7213,-2.7413,-2.7908,-2.8156,-2.8299,-2.8518,-2.8587,-2.8587,-2.8587,-2.8612,-2.8662,-2.8761,-2.881,-2.8858,-2.8929,-2.8975,-2.8994,-2.8994,-2.8994,-2.9049,-2.931,-2.9622,-2.9916,-3.0155,-3.1109,-3.1788,-3.1458,-3.2522,-3.3348,-3.3018,-3.344,-3.3807,-3.3807,-3.3807,-3.3807,-3.3807,-3.3807,-3.3807,-3.3807,-3.3807,-3.3815,-3.3921,-3.3921,-3.4049,-3.4274,-3.4298,-3.4394,-3.4593,-3.4632,-3.5018,-3.5818,-3.541,-3.5209,-3.5209,-3.5209,-3.5534,-3.6143,-3.6126,-3.6107,-3.6179,-3.6736,-3.7118,-3.7441,-3.8284,-3.9126,-3.9985,-4.0215,-4.031,-4.031,-4.031,-4.031,-4.0387,-1.9174,-1.9101,-1.9101,-1.9101,-1.9101,-1.9101,-1.9101,-1.9101,-1.9101,-1.9101,-1.9101,-1.9139,-1.9213,-1.9362,-1.9493,-1.9573,-1.9914,-2.0677,-2.2015,-2.2817,-2.3424,-2.3869,-2.4828,-2.5475,-2.5773,-2.6071,-2.622,-2.622,-2.622,-2.622,-2.622,-2.622,-2.622,-2.622,-2.622,-2.622,-2.622,-2.622,-2.622,-2.6203,-2.6277,-2.6382,-2.652,-2.6792,-2.7038,-2.7244,-2.7589,-2.7908,-2.8129,-2.8326,-2.8492,-2.8587,-2.8587,-2.8587,-2.8612,-2.8737,-2.8785,-2.881,-2.8929,-2.8994,-2.8994,-2.8994,-2.8994,-2.8994,-2.8994,-2.936,-2.9824,-3.0136,-3.1237,-3.2063,-3.1916,-3.2926,-3.3642,-3.3146,-3.3476,-3.3807,-3.3807,-3.3807,-3.3807,-3.3807,-3.3807,-3.3807,-3.3807,-3.3807,-3.3807,-3.3807,-3.3807,-3.3868,-3.4023,-3.4049,-3.4154,-3.4371,-3.4394,-3.473,-3.5471,-3.542,-3.5493,-3.5725,-3.605,-3.6298,-3.6528,-3.6833,-3.6967,-3.7005,-3.7483,-3.7903,-3.8266,-3.8782,-3.9508,-4.031,-4.031,-4.031,-4.031,-4.031,-4.031,-4.0425,-1.9116,-1.9188,-1.9261,-1.9203,-1.9232,-1.9275,-1.9275,-1.9217,-1.9188,-1.9188,-1.9145,-1.9101,-1.9101,-1.9101,-1.9101,-1.9101,-1.9515,-2.04,-2.1784,-2.2018,-2.2573,-2.3588,-2.3869,-2.4282,-2.4895,-2.5706,-2.612,-2.612,-2.6187,-2.622,-2.622,-2.622,-2.622,-2.622,-2.622,-2.622,-2.622,-2.622,-2.622,-2.6203,-2.6277,-2.6382,-2.6485,-2.6589,-2.6825,-2.7149,-2.7181,-2.7577,-2.8075,-2.8129,-2.8352,-2.8605,-2.8677,-2.8641,-2.863,-2.876,-2.8791,-2.881,-2.8881,-2.8952,-2.8994,-2.8994,-2.8994,-2.8994,-2.8994,-2.8994,-2.9214,-3.0026,-3.0834,-3.1623,-3.2375,-3.322,-3.377,-3.3697,-3.3752,-3.3807,-3.3807,-3.3807,-3.3807,-3.3807,-3.3807,-3.3807,-3.3807,-3.3807,-3.3807,-3.3807,-3.3807,-3.3807,-3.3807,-3.3807,-3.3921,-3.4148,-3.4173,-3.4311,-3.4577,-3.5383,-3.5996,-3.6438,-3.7239,-3.7296,-3.6668,-3.7411,-3.7735,-3.7754,-3.7831,-3.8269,-3.8937,-3.9032,-3.9547,-4.0253,-4.0291,-4.031,-4.031,-4.031,-4.031,-4.0387,-1.9203,-1.9899,-2.0436,-1.9972,-2.0262,-2.0582,-2.0582,-2.019,-1.9885,-1.9885,-1.942,-1.9101,-1.9101,-1.9101,-1.9101,-1.9101,-1.9493,-1.9878,-2.0193,-2.0801,-2.1311,-2.1633,-2.3113,-2.3753,-2.3388,-2.4679,-2.5342,-2.5342,-2.5938,-2.622,-2.622,-2.622,-2.622,-2.622,-2.622,-2.622,-2.622,-2.622,-2.622,-2.622,-2.6203,-2.6345,-2.6485,-2.652,-2.6623,-2.6858,-2.7117,-2.7444,-2.7858,-2.8344,-2.8543,-2.8696,-2.9337,-2.9119,-2.8739,-2.9432,-2.9203,-2.8761,-2.8881,-2.8905,-2.8929,-2.8994,-2.8994,-2.8994,-2.8994,-2.8994,-2.9214,-3.0026,-3.0834,-3.1439,-3.1623,-3.2834,-3.3587,-3.2963,-3.3385,-3.3807,-3.3807,-3.3807,-3.3807,-3.3807,-3.3807,-3.3807,-3.3807,-3.3807,-3.3807,-3.3807,-3.3807,-3.3807,-3.3807,-3.3807,-3.3834,-3.3868,-3.3895,-3.4301,-3.5187,-3.6044,-3.6283,-3.5878,-3.6685,-3.7325,-3.7838,-3.8007,-3.8083,-3.812,-3.8822,-3.8841,-3.8426,-3.9342,-3.9825,-4.0017,-4.0234,-4.031,-4.031,-4.031,-4.0253,-4.0253,-2.0016,-2.0538,-2.0901,-2.0582,-2.0785,-2.1003,-2.1003,-2.0727,-2.0524,-2.0524,-1.9972,-1.958,-1.958,-1.929,-1.9101,-1.9101,-1.9288,-1.9508,-1.969,-2.0411,-2.0999,-2.1453,-2.2813,-2.3505,-2.334,-2.448,-2.511,-2.511,-2.5855,-2.622,-2.622,-2.622,-2.622,-2.622,-2.622,-2.622,-2.622,-2.622,-2.622,-2.622,-2.622,-2.6274,-2.6399,-2.6485,-2.6572,-2.6691,-2.6891,-2.7289,-2.7789,-2.8219,-2.8466,-2.8732,-2.9536,-2.9246,-2.8775,-2.965,-2.933,-2.8718,-2.8834,-2.9132,-2.9357,-2.902,-2.9245,-2.9428,-2.9085,-2.8994,-2.9347,-3.0522,-3.1109,-3.1623,-3.2394,-3.355,-3.4247,-3.3798,-3.4119,-3.4376,-3.4376,-3.4045,-3.3807,-3.3807,-3.3807,-3.3807,-3.3807,-3.4523,-3.4816,-3.4412,-3.4376,-3.4376,-3.4376,-3.4009,-3.3807,-3.3807,-3.3807,-3.4255,-3.5206,-3.6075,-3.6517,-3.6575,-3.7629,-3.8164,-3.8225,-3.8638,-3.8826,-3.8845,-3.9295,-3.9239,-3.8863,-3.9458,-3.9717,-3.9717,-3.987,-3.9892,-3.9832,-3.9996,-4.0264,-4.0488,-2.0901,-2.1177,-2.1293,-2.1191,-2.1264,-2.1322,-2.1322,-2.1235,-2.1162,-2.1162,-2.064,-2.0204,-2.0117,-1.9508,-1.9101,-1.9101,-1.9101,-1.925,-1.9581,-2.0273,-2.1063,-2.1874,-2.2828,-2.3458,-2.3786,-2.4761,-2.5192,-2.511,-2.5855,-2.622,-2.622,-2.622,-2.622,-2.622,-2.622,-2.622,-2.622,-2.622,-2.622,-2.622,-2.622,-2.6222,-2.6295,-2.6434,-2.6554,-2.6606,-2.6674,-2.71,-2.7654,-2.7992,-2.8281,-2.8662,-2.9536,-2.9246,-2.8775,-2.9624,-2.9305,-2.8712,-2.8761,-2.9368,-2.9831,-2.9247,-2.9594,-2.9942,-2.9502,-2.9305,-2.9622,-3.1091,-3.1513,-3.2045,-3.3532,-3.4357,-3.4825,-3.4972,-3.4862,-3.4825,-3.4972,-3.4321,-3.3844,-3.399,-3.4137,-3.4174,-3.4027,-3.5404,-3.6009,-3.5265,-3.521,-3.521,-3.521,-3.4449,-3.4082,-3.4211,-3.4082,-3.4412,-3.5192,-3.6083,-3.6835,-3.7526,-3.8774,-3.8976,-3.8321,-3.9039,-3.9376,-3.9376,-3.9376,-3.9376,-3.9376,-3.9383,-3.9408,-3.9408,-3.9433,-3.9371,-3.9327,-3.9585,-4.0066,-4.0513,-2.0973,-2.1902,-2.2453,-2.196,-2.2309,-2.2627,-2.2627,-2.2207,-2.1859,-2.1859,-2.1278,-2.0683,-2.0161,-1.9508,-1.9101,-1.9101,-1.9101,-1.9139,-1.9176,-2.0064,-2.0857,-2.1459,-2.3038,-2.3851,-2.3802,-2.517,-2.5617,-2.511,-2.5855,-2.622,-2.622,-2.622,-2.622,-2.622,-2.622,-2.622,-2.622,-2.622,-2.622,-2.622,-2.622,-2.6222,-2.6295,-2.6434,-2.6554,-2.6606,-2.6674,-2.6939,-2.7352,-2.7908,-2.8129,-2.8354,-2.9465,-2.9246,-2.8775,-2.958,-2.9228,-2.8637,-2.8712,-2.9294,-2.9901,-2.9867,-2.9947,-3.0166,-3.0844,-3.0491,-3.0301,-3.1201,-3.1953,-3.2724,-3.3623,-3.3899,-3.4192,-3.488,-3.4431,-3.4211,-3.4899,-3.4321,-3.4064,-3.4734,-3.5514,-3.5679,-3.4899,-3.5734,-3.6248,-3.6138,-3.6119,-3.6119,-3.6119,-3.5312,-3.5183,-3.5936,-3.5238,-3.5257,-3.6119,-3.6927,-3.7397,-3.7526,-3.8394,-3.8755,-3.8645,-3.8755,-3.881,-3.881,-3.881,-3.881,-3.8822,-3.8933,-3.898,-3.9008,-3.9152,-3.9231,-3.9205,-3.9205,-3.9253,-3.9328,-2.1946,-2.2467,-2.2815,-2.2526,-2.27,-2.2888,-2.2888,-2.2656,-2.2527,-2.2527,-2.1627,-2.0901,-2.0625,-1.9696,-1.9101,-1.9101,-1.9101,-1.9101,-1.9101,-2.0172,-2.1147,-2.1941,-2.3436,-2.4401,-2.4863,-2.5609,-2.5862,-2.5584,-2.6002,-2.622,-2.622,-2.622,-2.622,-2.622,-2.622,-2.622,-2.622,-2.622,-2.622,-2.622,-2.622,-2.6203,-2.6258,-2.6347,-2.6468,-2.6554,-2.6674,-2.6923,-2.7244,-2.7517,-2.7823,-2.8272,-2.9215,-2.9097,-2.8775,-2.9554,-2.9228,-2.8612,-2.8637,-2.9569,-3.0404,-3.0046,-3.061,-3.1273,-3.1243,-3.1323,-3.1558,-3.1983,-3.2357,-3.2852,-3.3642,-3.4174,-3.4761,-3.5605,-3.544,-3.5477,-3.6285,-3.5697,-3.5147,-3.5009,-3.6174,-3.645,-3.5119,-3.6615,-3.7441,-3.7,-3.6964,-3.6964,-3.6964,-3.6174,-3.5899,-3.6285,-3.5936,-3.6138,-3.6945,-3.7312,-3.7716,-3.8175,-3.8524,-3.8707,-3.8707,-3.8707,-3.8707,-3.8707,-3.8609,-3.8609,-3.859,-3.8597,-3.8609,-3.8609,-3.873,-3.8828,-3.8896,-3.8857,-3.8828,-3.8828]}]]